[[{"header":{"parameterUnit":"m.s-1","parameterCategory":1,"la1":30.6,"la2":29.2853,"lo1":-89.7004,"lo2":-87.6739,"dx":0.0162,"dy":0.0183,"nx":112,"ny":82,"refTime":"2023-01-01T18:00:00:Z","depth":0,"parameterNumber":2,"parameterNumberName":"U-component_of_WINDS"},"data":[0.0,0.0,0.0,0.0,0.0,0.0,0.0,0.0,0.0,0.0,0.0,0.0,0.0,0.0,0.0,0.0,0.0,0.0,0.0,0.0,0.0,0.0,0.0,0.0,0.0,0.0,0.0,0.0,0.0,0.0,0.0,0.0,0.0,0.0,0.0,0.0,0.0,0.0,0.0,0.0,0.0,0.0,0.0,0.0,0.0,0.0,0.0,0.0,0.0,0.0,0.0,0.0,0.0,0.0,0.0,0.0,0.0,0.0,0.0,0.0,0.0,0.0,0.0,0.0,0.0,0.0,0.0,0.0,0.0,0.0,0.0,0.0,0.0,0.0,0.0,0.0,0.0,0.0,0.0,0.0,0.0,0.0,0.0,0.0,0.0,0.0,0.0,0.0,0.0,0.0,3.9682,4.8496,5.2422,5.4349,5.4206,5.3599,4.9531,4.0824,0.0,0.0,0.0,0.0,0.0,0.0,0.0,0.0,0.0,0.0,0.0,0.0,0.0,0.0,0.0,0.0,0.0,0.0,0.0,0.0,0.0,0.0,0.0,0.0,0.0,0.0,0.0,0.0,0.0,0.0,0.0,0.0,0.0,0.0,0.0,0.0,0.0,0.0,0.0,0.0,0.0,0.0,0.0,0.0,0.0,0.0,0.0,0.0,0.0,0.0,0.0,0.0,0.0,0.0,0.0,0.0,0.0,0.0,0.0,0.0,0.0,0.0,0.0,0.0,0.0,0.0,0.0,0.0,0.0,0.0,0.0,0.0,0.0,0.0,0.0,0.0,0.0,0.0,0.0,0.0,0.0,0.0,0.0,0.0,0.0,0.0,0.0,0.0,0.0,0.0,0.0,0.0,0.0,0.0,0.0,0.0,0.0,0.0,0.0,0.0,0.0,0.0,0.0,0.0,4.4785,5.4135,5.5669,5.5776,5.5098,5.492,5.1173,4.2465,0.0,0.0,0.0,0.0,0.0,0.0,0.0,0.0,0.0,0.0,0.0,0.0,0.0,0.0,0.0,0.0,0.0,0.0,0.0,0.0,0.0,0.0,0.0,0.0,0.0,0.0,0.0,0.0,0.0,0.0,0.0,0.0,0.0,0.0,0.0,0.0,0.0,0.0,0.0,0.0,0.0,0.0,0.0,0.0,0.0,0.0,0.0,0.0,0.0,0.0,0.0,0.0,0.0,0.0,0.0,0.0,0.0,0.0,0.0,0.0,0.0,0.0,0.0,0.0,0.0,0.0,0.0,0.0,0.0,0.0,0.0,0.0,0.0,0.0,0.0,0.0,0.0,0.0,0.0,0.0,0.0,0.0,0.0,0.0,0.0,0.0,0.0,0.0,0.0,0.0,0.0,0.0,0.0,0.0,0.0,0.0,0.0,0.0,0.0,0.0,0.0,0.0,0.0,4.4,5.1458,5.7061,5.6918,5.624,5.5883,5.5455,5.153,4.2822,3.9753,0.0,0.0,0.0,0.0,0.0,0.0,0.0,0.0,0.0,0.0,0.0,0.0,0.0,0.0,0.0,0.0,0.0,0.0,0.0,0.0,0.0,0.0,0.0,0.0,0.0,0.0,0.0,0.0,0.0,0.0,0.0,0.0,0.0,0.0,0.0,0.0,0.0,0.0,0.0,0.0,0.0,0.0,0.0,0.0,0.0,0.0,0.0,0.0,0.0,0.0,0.0,0.0,0.0,0.0,0.0,0.0,0.0,0.0,0.0,0.0,0.0,0.0,0.0,0.0,0.0,0.0,0.0,0.0,0.0,0.0,0.0,0.0,0.0,0.0,0.0,0.0,0.0,0.0,0.0,0.0,0.0,0.0,0.0,0.0,0.0,0.0,0.0,0.0,0.0,0.0,0.0,0.0,0.0,0.0,0.0,0.0,0.0,0.0,0.0,0.0,0.0,0.0,4.9995,5.5491,5.8417,5.7311,5.649,5.6668,5.5955,5.1886,4.3358,4.0646,0.0,0.0,0.0,0.0,0.0,0.0,0.0,0.0,0.0,0.0,0.0,0.0,0.0,0.0,0.0,0.0,0.0,0.0,0.0,0.0,0.0,0.0,0.0,0.0,0.0,0.0,0.0,0.0,0.0,0.0,0.0,0.0,0.0,0.0,0.0,0.0,0.0,0.0,0.0,0.0,0.0,0.0,0.0,0.0,0.0,0.0,0.0,0.0,0.0,0.0,0.0,0.0,0.0,0.0,0.0,0.0,0.0,0.0,0.0,0.0,0.0,0.0,0.0,0.0,0.0,0.0,0.0,0.0,0.0,0.0,0.0,0.0,0.0,0.0,0.0,0.0,0.0,0.0,0.0,0.0,0.0,0.0,0.0,0.0,0.0,0.0,0.0,0.0,0.0,0.0,0.0,0.0,0.0,0.0,0.0,0.0,0.0,0.0,0.0,0.0,0.0,0.0,4.8889,5.3671,5.8238,5.7311,5.6704,5.7453,5.6775,5.2921,4.4963,4.2251,0.0,0.0,0.0,0.0,0.0,0.0,0.0,0.0,0.0,0.0,0.0,0.0,0.0,0.0,0.0,0.0,0.0,0.0,0.0,0.0,0.0,0.0,0.0,0.0,0.0,0.0,0.0,0.0,0.0,0.0,0.0,0.0,0.0,0.0,0.0,0.0,0.0,0.0,0.0,0.0,0.0,0.0,0.0,0.0,0.0,0.0,0.0,0.0,0.0,0.0,0.0,0.0,0.0,0.0,0.0,0.0,0.0,0.0,0.0,0.0,0.0,0.0,0.0,0.0,0.0,0.0,0.0,0.0,0.0,0.0,0.0,0.0,0.0,0.0,0.0,0.0,0.0,0.0,0.0,0.0,0.0,0.0,0.0,0.0,0.0,0.0,0.0,0.0,0.0,0.0,0.0,0.0,0.0,0.0,0.0,0.0,0.0,0.0,0.0,0.0,0.0,0.0,5.078,5.6062,5.9809,5.8381,5.7667,5.8916,5.831,5.4277,4.5891,0.0,0.0,0.0,0.0,0.0,0.0,0.0,0.0,0.0,0.0,0.0,0.0,0.0,0.0,0.0,0.0,0.0,0.0,0.0,0.0,0.0,0.0,0.0,0.0,0.0,0.0,0.0,0.0,0.0,0.0,0.0,0.0,0.0,0.0,0.0,0.0,0.0,0.0,0.0,0.0,0.0,0.0,0.0,0.0,0.0,0.0,0.0,0.0,0.0,0.0,0.0,0.0,0.0,0.0,0.0,0.0,0.0,0.0,0.0,0.0,0.0,0.0,0.0,0.0,0.0,0.0,0.0,0.0,0.0,0.0,0.0,0.0,0.0,0.0,0.0,0.0,0.0,0.0,0.0,0.0,0.0,0.0,0.0,0.0,0.0,0.0,0.0,0.0,0.0,0.0,0.0,0.0,0.0,0.0,0.0,0.0,0.0,0.0,0.0,0.0,0.0,0.0,4.5856,5.2814,5.8524,6.12,5.9345,5.8595,6.0165,5.9309,5.5134,4.6712,0.0,0.0,0.0,0.0,0.0,0.0,0.0,0.0,0.0,0.0,0.0,0.0,0.0,0.0,0.0,0.0,0.0,0.0,0.0,0.0,0.0,0.0,0.0,0.0,0.0,0.0,0.0,0.0,0.0,0.0,0.0,0.0,0.0,0.0,0.0,0.0,0.0,0.0,0.0,0.0,0.0,0.0,0.0,0.0,0.0,0.0,0.0,0.0,0.0,0.0,0.0,0.0,0.0,0.0,0.0,0.0,0.0,0.0,0.0,0.0,0.0,0.0,0.0,0.0,0.0,0.0,0.0,0.0,0.0,0.0,0.0,0.0,0.0,0.0,0.0,0.0,0.0,0.0,0.0,0.0,0.0,0.0,0.0,0.0,0.0,0.0,0.0,0.0,0.0,0.0,0.0,0.0,0.0,0.0,0.0,0.0,0.0,0.0,0.0,0.0,0.0,0.0,4.6819,5.4563,6.0522,6.2128,6.0165,5.938,6.0986,5.9666,5.5384,0.0,0.0,0.0,0.0,0.0,0.0,0.0,0.0,0.0,0.0,0.0,0.0,0.0,0.0,0.0,0.0,0.0,0.0,0.0,0.0,0.0,0.0,0.0,0.0,0.0,0.0,0.0,0.0,0.0,0.0,0.0,0.0,0.0,0.0,0.0,0.0,0.0,0.0,0.0,0.0,0.0,0.0,0.0,0.0,0.0,0.0,0.0,0.0,0.0,0.0,0.0,0.0,0.0,0.0,0.0,0.0,0.0,0.0,0.0,0.0,0.0,0.0,0.0,0.0,0.0,0.0,0.0,0.0,0.0,0.0,0.0,0.0,0.0,0.0,0.0,0.0,0.0,0.0,0.0,0.0,0.0,0.0,0.0,0.0,0.0,0.0,0.0,0.0,0.0,0.0,0.0,0.0,0.0,0.0,0.0,0.0,0.0,0.0,0.0,0.0,0.0,0.0,0.0,4.7568,5.4884,6.0522,6.2128,6.0665,6.0201,6.1807,6.0986,5.7025,4.9139,0.0,0.0,0.0,0.0,0.0,0.0,0.0,0.0,0.0,0.0,0.0,0.0,0.0,0.0,0.0,0.0,0.0,0.0,0.0,0.0,0.0,0.0,0.0,0.0,0.0,0.0,0.0,0.0,0.0,0.0,0.0,0.0,0.0,0.0,0.0,0.0,0.0,0.0,0.0,0.0,0.0,0.0,0.0,0.0,0.0,0.0,0.0,0.0,0.0,0.0,0.0,0.0,0.0,0.0,0.0,0.0,0.0,0.0,0.0,0.0,0.0,0.0,0.0,0.0,0.0,0.0,0.0,0.0,0.0,0.0,0.0,0.0,0.0,0.0,0.0,0.0,0.0,0.0,0.0,0.0,0.0,0.0,0.0,0.0,0.0,0.0,0.0,0.0,0.0,0.0,0.0,0.0,0.0,0.0,0.0,0.0,0.0,0.0,0.0,0.0,0.0,0.0,4.8389,5.6062,6.1807,6.3092,6.2057,6.1807,6.3092,6.2485,5.9202,5.2564,0.0,0.0,0.0,0.0,0.0,0.0,0.0,0.0,0.0,0.0,0.0,0.0,0.0,0.0,0.0,0.0,0.0,0.0,0.0,0.0,0.0,0.0,0.0,0.0,0.0,0.0,0.0,0.0,0.0,0.0,0.0,0.0,0.0,0.0,0.0,0.0,0.0,0.0,0.0,0.0,0.0,0.0,0.0,0.0,0.0,0.0,0.0,0.0,0.0,0.0,0.0,0.0,0.0,0.0,0.0,0.0,0.0,0.0,0.0,0.0,0.0,0.0,0.0,0.0,0.0,0.0,0.0,0.0,0.0,0.0,0.0,0.0,0.0,0.0,0.0,0.0,0.0,0.0,0.0,0.0,0.0,0.0,0.0,0.0,0.0,0.0,0.0,0.0,0.0,0.0,0.0,0.0,0.0,0.0,0.0,0.0,0.0,0.0,0.0,0.0,0.0,0.0,4.9317,5.7667,6.3734,6.4626,6.3912,6.377,6.4662,6.3912,6.145,5.6882,0.0,0.0,0.0,0.0,0.0,0.0,0.0,0.0,0.0,0.0,0.0,0.0,0.0,0.0,0.0,0.0,0.0,0.0,0.0,0.0,0.0,0.0,0.0,0.0,0.0,0.0,0.0,0.0,0.0,0.0,0.0,0.0,0.0,0.0,0.0,0.0,0.0,0.0,0.0,0.0,0.0,0.0,0.0,0.0,0.0,0.0,0.0,0.0,0.0,0.0,0.0,0.0,0.0,0.0,0.0,0.0,0.0,0.0,0.0,0.0,4.4335,3.726,0.0,0.0,0.0,0.0,0.0,0.0,0.0,0.0,0.0,0.0,0.0,0.0,0.0,0.0,0.0,0.0,0.0,0.0,0.0,0.0,0.0,0.0,0.0,0.0,0.0,0.0,0.0,0.0,0.0,0.0,0.0,0.0,0.0,0.0,0.0,0.0,0.0,0.0,0.0,0.0,5.0923,5.8345,6.3948,6.5375,6.4269,6.3984,6.5411,6.4234,6.1914,5.8452,5.6133,0.0,0.0,0.0,0.0,0.0,0.0,0.0,0.0,0.0,0.0,0.0,0.0,0.0,0.0,0.0,0.0,0.0,0.0,0.0,0.0,0.0,0.0,0.0,0.0,0.0,0.0,0.0,0.0,0.0,0.0,0.0,0.0,0.0,0.0,0.0,0.0,0.0,0.0,0.0,0.0,0.0,0.0,0.0,0.0,0.0,0.0,0.0,0.0,0.0,0.0,0.0,0.0,0.0,0.0,0.0,0.0,0.0,0.0,0.0,4.8337,4.4621,0.0,0.0,0.0,0.0,0.0,0.0,0.0,0.0,0.0,0.0,0.0,0.0,0.0,0.0,0.0,0.0,0.0,0.0,0.0,0.0,0.0,0.0,0.0,0.0,0.0,0.0,0.0,0.0,0.0,0.0,0.0,0.0,0.0,0.0,0.0,0.0,0.0,0.0,0.0,0.0,5.2497,5.9905,6.5462,6.6672,6.6002,6.5824,6.6839,6.5675,6.4223,6.2806,5.9609,0.0,0.0,0.0,0.0,0.0,0.0,0.0,0.0,0.0,0.0,0.0,0.0,0.0,0.0,0.0,0.0,0.0,0.0,0.0,0.0,0.0,0.0,0.0,0.0,0.0,0.0,0.0,0.0,0.0,0.0,0.0,0.0,0.0,0.0,0.0,0.0,0.0,0.0,0.0,0.0,0.0,0.0,0.0,0.0,0.0,0.0,0.0,0.0,0.0,0.0,0.0,0.0,0.0,5.1888,5.2623,5.2069,5.3859,5.4752,5.4749,5.2319,5.2853,5.4842,4.7957,0.0,0.0,0.0,0.0,0.0,0.0,0.0,0.0,0.0,0.0,0.0,0.0,0.0,0.0,0.0,0.0,0.0,0.0,0.0,0.0,0.0,0.0,4.4407,4.8089,4.8508,4.8318,4.9281,0.0,0.0,0.0,0.0,0.0,0.0,0.0,0.0,0.0,0.0,0.0,5.401,6.1671,6.7283,6.8034,6.7827,6.7859,6.8302,6.7323,6.6896,6.7354,6.3343,6.0431,0.0,0.0,0.0,0.0,0.0,0.0,0.0,0.0,0.0,0.0,0.0,0.0,0.0,0.0,0.0,0.0,0.0,0.0,0.0,0.0,0.0,0.0,0.0,0.0,0.0,0.0,0.0,0.0,0.0,0.0,0.0,0.0,3.3243,3.6977,0.0,0.0,0.0,0.0,0.0,0.0,0.0,0.0,0.0,0.0,0.0,0.0,0.0,4.6978,4.7751,5.2787,5.5544,5.6036,6.0736,6.2652,6.1956,6.3161,6.3673,6.3497,6.1018,0.0,5.5441,5.5721,0.0,0.0,0.0,0.0,0.0,0.0,0.0,0.0,0.0,0.0,0.0,0.0,0.0,0.0,0.0,0.0,0.0,0.0,0.0,0.0,0.0,0.0,5.8304,6.0891,5.9158,5.8345,6.3163,5.2422,4.243,4.45,4.303,4.1136,0.0,0.0,0.0,0.0,0.0,0.0,5.579,6.2897,6.8199,6.9019,6.8449,6.8306,6.9087,6.8342,6.8106,6.8801,6.8053,6.6032,6.2451,6.3466,0.0,0.0,0.0,0.0,0.0,0.0,0.0,0.0,0.0,0.0,0.0,0.0,0.0,0.0,0.0,0.0,0.0,0.0,0.0,0.0,0.0,0.0,0.0,0.0,0.0,0.0,0.0,0.0,0.0,3.2575,3.5597,3.9276,3.8927,3.7716,0.0,0.0,0.0,0.0,0.0,0.0,0.0,0.0,0.0,4.9295,5.1204,5.2588,5.3412,5.8953,6.177,6.1995,6.4821,6.6065,6.5869,6.6878,6.7321,6.7311,6.63,6.484,6.2968,6.037,5.8268,5.6396,0.0,0.0,0.0,0.0,4.948,5.0474,5.0856,5.3175,5.5908,5.5298,0.0,0.0,0.0,0.0,0.0,0.0,0.0,5.2579,5.4846,5.7923,6.1055,6.3657,6.3142,6.2699,6.5126,5.8916,5.2886,5.3028,5.041,4.738,4.4856,4.7369,0.0,0.0,0.0,5.9336,6.0036,6.5077,6.8884,6.9598,6.921,6.9139,6.9599,6.8751,6.8742,7.0057,6.9502,6.8799,6.7959,6.7271,6.3881,0.0,0.0,0.0,0.0,0.0,0.0,0.0,0.0,0.0,0.0,0.0,0.0,0.0,0.0,0.0,0.0,0.0,0.0,0.0,0.0,0.0,0.0,0.0,0.0,0.0,0.0,0.0,0.0,3.6423,3.9014,4.2318,4.3294,4.2956,0.0,0.0,0.0,0.0,0.0,0.0,5.1255,5.0016,5.0842,5.4371,5.6474,5.8126,5.9403,6.3615,6.58,6.6026,6.6786,6.7089,6.705,6.8221,6.8785,6.8925,6.9485,6.978,6.9431,6.439,6.2251,6.2128,6.0647,5.8547,5.632,5.6078,5.669,5.7657,5.7619,6.0332,6.3694,6.2662,6.1745,6.0599,5.8241,0.0,0.0,0.0,0.0,5.781,5.9921,6.1351,6.2911,6.5412,6.5867,6.5875,6.6089,6.3948,6.17,6.0736,5.7703,5.4277,5.1137,5.3744,0.0,5.2692,5.8232,6.2906,6.3448,6.6932,6.9493,6.992,6.9813,6.9813,7.0166,6.9354,6.9629,7.1286,7.0711,7.0809,7.1932,7.0388,6.7766,6.4115,0.0,0.0,0.0,0.0,0.0,0.0,0.0,0.0,0.0,0.0,0.0,0.0,0.0,0.0,0.0,0.0,0.0,0.0,0.0,0.0,0.0,0.0,0.0,0.0,0.0,0.0,0.0,0.0,0.0,4.7425,5.1968,0.0,0.0,0.0,0.0,4.9189,4.9265,5.148,5.6249,5.5685,5.8126,6.4547,6.3421,6.3871,6.6274,6.5786,6.5983,6.6973,6.7011,6.6635,6.6031,6.7808,6.8603,6.8716,7.0494,7.136,7.1277,6.8569,6.6084,6.3962,6.2994,6.1086,5.8803,5.7902,6.0212,6.3732,6.3609,6.6369,7.0075,7.0801,6.889,6.5536,6.1285,5.9764,0.0,0.0,6.0598,6.2946,6.3304,6.5359,6.7714,6.9408,6.9418,6.9301,7.005,6.716,6.4626,6.5304,6.3484,6.1521,6.0558,0.0,6.1458,5.764,6.1102,6.423,6.4365,6.7714,7.0166,7.0202,6.9991,7.0166,7.0775,7.0806,7.135,7.2705,7.2743,7.2643,7.2496,7.2491,7.104,6.7951,6.4599,0.0,0.0,0.0,0.0,0.0,0.0,0.0,0.0,0.0,0.0,0.0,0.0,0.0,0.0,0.0,0.0,0.0,0.0,0.0,0.0,0.0,0.0,0.0,0.0,0.0,0.0,0.0,0.0,4.9358,5.2723,0.0,5.2731,5.4149,5.4859,5.4296,5.7225,5.9778,6.1543,6.1355,6.2519,6.5411,6.496,6.5336,6.6762,6.7513,6.8345,6.9256,6.9863,7.0022,6.9838,7.1214,7.1521,7.1067,7.2432,7.2731,7.2236,7.1235,7.0119,6.9037,6.9291,6.8832,6.7998,6.7676,6.8464,6.9709,6.966,7.062,7.1814,7.1585,7.0674,6.9382,6.7504,6.6938,6.686,6.6829,6.7952,6.91,6.8567,6.9581,7.0701,7.0606,7.0488,7.0535,7.1154,7.0064,6.9253,7.0118,6.6339,6.277,6.1985,6.4714,6.5794,6.2346,6.5273,6.8146,6.8816,7.0095,7.1162,7.1659,7.1659,7.1695,7.1766,7.2182,7.2814,7.375,7.4236,7.4397,7.4151,7.3774,7.2753,7.1152,6.9484,6.511,0.0,0.0,0.0,0.0,0.0,0.0,0.0,0.0,0.0,0.0,0.0,0.0,0.0,0.0,0.0,0.0,0.0,0.0,0.0,0.0,0.0,0.0,0.0,0.0,0.0,4.5819,5.0059,5.1607,5.46,5.6326,5.5992,5.8052,5.9515,5.9778,6.312,6.5148,6.5148,6.5148,6.5636,6.6725,6.6762,6.7288,6.8415,6.9504,7.033,7.0893,7.1545,7.1808,7.189,7.2935,7.2683,7.1476,7.3421,7.3498,7.232,7.3148,7.3216,7.2898,7.2855,7.2663,7.2472,7.2734,7.2979,7.3222,7.3486,7.3603,7.3457,7.2887,7.2698,7.2623,7.2316,7.2235,7.2264,7.2282,7.2848,7.3243,7.2206,7.2688,7.3191,7.2273,7.2227,7.2387,7.2454,7.181,7.1476,7.2581,6.9328,6.6093,6.4903,6.71,6.8034,6.5255,6.6901,6.8678,6.9418,7.0095,7.07,7.1233,7.1869,7.233,7.2403,7.2083,7.2647,7.4434,7.431,7.4561,7.5421,7.426,7.3082,7.1865,7.0046,6.6654,6.1581,0.0,0.0,0.0,0.0,0.0,0.0,0.0,0.0,0.0,0.0,0.0,0.0,0.0,0.0,0.0,0.0,0.0,0.0,0.0,0.0,0.0,0.0,0.0,4.138,4.8877,5.4521,5.4634,5.8201,6.098,6.1806,6.3383,6.466,6.5448,6.6312,6.6838,6.6838,6.68,6.7513,6.9128,6.9166,6.9954,7.1606,7.1719,7.1757,7.1794,7.1794,7.1794,7.1832,7.2741,7.1876,6.9847,7.3388,7.3628,7.1738,7.4295,7.5397,7.5198,7.3303,7.2119,7.1636,7.2319,7.3174,7.4027,7.4789,7.5132,7.5209,7.5247,7.5285,7.5323,7.5285,7.5323,7.5246,7.4478,7.4865,7.5201,7.3993,7.4574,7.5274,7.4769,7.4867,7.4822,7.4196,7.2242,7.1122,7.2615,7.271,7.1867,6.9761,6.9308,6.8457,6.6346,6.5925,0.0,6.6125,6.7717,6.8929,6.9,7.0617,7.207,7.2834,7.0725,7.1023,7.4874,7.3093,7.3246,7.628,7.4244,7.2191,7.0266,6.6288,6.552,6.8094,0.0,0.0,0.0,0.0,0.0,0.0,0.0,0.0,0.0,0.0,0.0,0.0,0.0,0.0,0.0,0.0,0.0,0.0,0.0,0.0,0.0,4.7524,5.2216,5.2001,5.4452,5.7096,5.9552,6.1316,6.2623,6.3375,6.4507,6.5261,6.5486,6.6838,6.7664,6.7664,6.71,6.7251,6.8302,6.834,6.8828,6.9879,7.1681,7.2883,7.3521,7.3521,7.3475,7.3382,7.3876,7.3709,7.3075,7.496,7.5425,7.4932,7.6297,7.6793,7.665,7.5129,7.4408,7.4258,7.441,7.4561,7.4484,7.281,7.3416,7.5089,7.5661,7.585,7.5966,7.6618,7.6808,7.677,7.6572,7.6676,7.6701,7.5923,7.5991,7.6013,7.5328,7.5325,7.5421,7.5141,7.4848,7.4787,7.5363,7.5567,7.4813,7.2293,7.2157,7.2192,7.1624,7.1795,7.2257,7.3154,7.3653,7.4474,7.5829,7.3901,7.369,7.6622,7.4115,7.3795,7.7051,7.7132,7.7404,7.8153,7.7005,7.5544,7.3848,6.991,6.7931,0.0,0.0,0.0,0.0,0.0,0.0,0.0,0.0,0.0,0.0,0.0,0.0,0.0,0.0,0.0,0.0,0.0,0.0,0.0,0.0,0.0,0.0,5.167,5.6873,5.9229,5.9663,6.0516,6.2673,6.3043,6.3671,6.5062,6.5707,6.6312,6.7025,6.8302,6.9203,6.9541,6.9428,6.9091,6.8527,6.9879,7.033,6.9766,7.2207,7.3709,7.4197,7.4535,7.4638,7.4629,7.522,7.4915,7.4039,7.5797,7.6111,7.539,7.6899,7.7538,7.743,0.0,0.0,0.0,0.0,7.6044,7.578,7.4252,7.4699,7.6028,7.6483,7.6676,7.679,7.7296,7.6728,7.5888,7.5876,7.5346,7.4854,7.5338,7.6178,7.6867,7.6905,7.7415,7.7679,7.6996,7.657,7.655,7.7316,7.6803,0.0,7.5426,7.447,7.3438,7.2478,7.257,7.2921,7.3654,7.44,7.5289,7.6446,7.5263,7.533,7.7497,7.5066,0.0,0.0,0.0,7.7255,7.7441,7.6942,0.0,0.0,0.0,6.9992,7.0592,6.7874,0.0,0.0,6.3576,6.0894,0.0,0.0,0.0,0.0,0.0,0.0,0.0,0.0,0.0,0.0,0.0,0.0,0.0,0.0,0.0,0.0,5.4802,5.853,6.3378,6.3968,6.4062,6.4483,6.4026,6.4541,6.6721,6.7138,6.7814,6.9241,7.0217,7.1081,7.1794,7.2357,0.0,0.0,0.0,7.277,7.0668,7.3108,7.4385,7.4498,7.5173,7.5549,7.5549,7.6429,7.5718,7.393,7.6407,7.6376,7.4824,7.7059,7.8002,7.7917,7.7552,7.7445,7.7407,7.71,7.7151,7.736,7.7073,0.0,0.0,7.7495,7.7571,7.7647,7.7836,7.6355,7.4649,7.4752,7.3548,7.2614,7.4364,7.6274,7.8066,7.9009,8.0175,8.067,7.9204,7.7879,7.7354,7.859,7.7328,7.6712,7.8702,7.6425,7.3652,7.1616,7.1362,7.1412,7.1404,7.3033,7.4302,7.4483,7.5757,0.0,7.7295,7.5007,7.4889,7.8053,7.6419,7.5581,7.6112,7.6129,7.4704,7.1681,7.1479,7.2529,7.476,7.3972,7.5183,7.7946,6.8316,6.5346,0.0,0.0,0.0,0.0,0.0,0.0,0.0,0.0,0.0,0.0,0.0,0.0,0.0,0.0,0.0,5.6679,6.0152,6.2762,6.3268,6.4932,6.5993,6.5753,6.5993,6.6561,6.7664,6.9015,6.9917,7.0217,7.1606,7.2507,7.2658,7.1569,7.0743,7.0255,7.0893,7.1306,7.1494,7.3934,7.5474,7.615,7.63,0.0,7.6305,7.6616,7.6611,7.6399,7.7754,7.8218,7.8027,7.9207,7.9736,7.9571,7.8078,7.7463,7.716,7.5216,7.5717,7.7097,7.5027,7.5679,7.7517,7.8159,7.8377,7.8636,7.9973,8.0043,0.0,8.0553,7.9984,7.9245,7.9626,8.0026,8.0447,8.0666,8.143,8.1717,8.0254,8.0076,7.9897,7.8942,7.9928,8.0766,8.0373,7.8798,7.723,7.6335,7.7163,7.7736,7.7155,7.7955,7.903,8.0297,7.7945,7.7794,8.1488,7.8405,7.7605,8.0676,8.1065,8.0967,8.043,8.1031,8.0468,7.8515,7.8478,7.8365,7.814,7.799,7.8253,7.8865,7.6216,7.499,0.0,0.0,0.0,0.0,0.0,0.0,0.0,0.0,0.0,0.0,0.0,4.934,5.1043,0.0,5.7052,5.9079,6.1216,6.3198,6.4709,6.5955,6.6711,6.6483,6.7541,6.8549,6.9214,7.0373,7.1268,7.1644,7.2432,7.3108,7.3521,7.2808,7.1982,7.1118,7.2282,7.2733,7.232,7.476,7.6187,7.66,7.7051,7.7228,7.7216,7.7716,7.837,7.9071,7.9609,8.0275,8.0965,8.1422,8.1532,8.1372,8.0448,7.9571,7.8694,7.7889,7.8344,7.9301,7.8462,7.8959,8.003,8.0406,8.051,8.0694,8.1496,8.0839,7.9872,7.9865,7.8971,7.8078,7.8508,7.9215,7.9948,8.0371,8.1142,8.1552,8.0811,8.1253,8.1619,8.1268,8.2084,8.2636,8.2122,8.142,8.0677,7.9889,8.0333,8.0678,8.04,8.0588,8.1085,8.1893,8.0167,7.9902,8.2109,8.0517,8.0039,8.1519,8.197,8.2007,8.1632,8.2796,8.2871,8.1632,8.242,8.2458,8.1594,8.1594,8.1594,8.1594,8.0781,7.9602,0.0,0.0,0.0,0.0,0.0,0.0,0.0,4.5599,4.6988,4.8617,5.0903,5.2807,5.3634,5.6033,5.8719,6.1179,6.1913,6.3314,6.6636,6.7279,6.7471,6.7573,6.8967,7.0148,7.068,7.1463,7.2215,7.2853,7.3033,7.3521,7.4385,7.4423,7.3897,7.2695,7.461,7.5061,7.3897,7.5849,7.6938,7.7126,7.7952,7.829,7.8177,7.9154,8.0112,8.1066,8.1306,8.2019,8.299,8.272,8.2602,8.2523,8.2292,8.1416,8.0351,8.1109,8.1258,8.122,8.1987,8.2136,8.2053,8.201,8.2006,8.1995,8.214,8.0763,7.904,7.8504,7.7274,7.6278,7.6916,7.8208,7.9532,8.0195,8.111,8.1793,8.1603,8.2134,8.2816,8.346,8.3785,8.3909,8.3865,8.4004,8.3576,8.2002,8.1957,8.2005,8.1774,8.1846,8.1986,8.2251,8.2288,8.2332,8.2519,8.2533,8.2533,8.2533,8.2533,8.2533,8.2533,8.3795,8.4207,8.3494,8.4658,8.492,8.4283,8.4185,8.4185,8.4298,8.3472,8.1946,3.832,3.6993,3.7905,4.0413,4.3474,4.6102,0.0,5.1885,5.5874,5.4514,5.8078,6.1721,6.2433,6.3009,6.3855,6.5467,6.5938,6.6602,6.8177,6.917,6.9888,7.0298,7.0379,7.0723,7.1494,7.2312,7.28,7.2883,7.3596,7.4423,7.5211,7.5249,7.5511,7.6037,7.6338,7.6751,7.7314,7.7614,7.8102,7.8816,7.9679,7.9717,7.9041,8.0618,8.1106,8.0839,8.2,8.2716,8.2913,8.2071,8.1804,8.1843,8.1003,8.0583,8.0545,8.1193,8.0883,8.019,8.0391,8.0392,8.0315,8.0389,8.0466,8.0538,8.1236,8.1192,8.1127,8.1685,8.1186,8.046,8.0498,8.1262,8.202,8.2096,8.3347,8.4256,8.3498,8.3385,8.3498,8.3604,8.4787,8.5763,8.565,8.6266,8.5455,8.1513,8.226,8.2692,8.1112,8.1517,8.2534,8.3863,8.3997,8.4551,8.5821,8.595,8.595,8.595,8.595,8.595,8.595,8.6029,8.5994,8.5882,8.5357,8.5058,8.4945,8.4395,8.4486,8.5162,8.4335,8.3397,4.3088,4.3961,4.6001,4.8061,5.1478,5.4506,5.5369,5.7815,5.9779,5.9501,6.1657,6.3726,6.393,6.3657,6.4146,6.6223,6.6122,6.6674,6.9125,7.0156,7.1064,7.2052,7.0874,7.0046,7.0234,7.2282,7.3258,7.229,7.3859,7.5249,7.6075,7.615,7.6525,7.7314,7.7351,7.799,7.9341,7.9341,7.9754,8.0581,8.0919,8.0919,8.0581,8.1407,8.2123,8.2602,8.3323,8.3675,8.3677,8.2798,8.2454,8.2455,8.2072,8.1652,8.1308,8.1538,8.1384,8.1116,8.1652,8.1767,8.1688,8.1765,8.1644,8.1596,8.1886,8.2,8.2082,8.238,8.2613,8.2618,8.2162,8.2694,8.3145,8.2608,8.2981,8.3512,8.3619,8.3574,8.3764,8.4248,8.4892,8.5678,8.6493,8.7386,8.731,8.5283,8.4815,8.4347,8.3504,8.4137,8.4887,8.5489,8.6069,8.6574,8.7227,8.7677,8.7752,8.7302,8.7264,8.7039,8.6513,8.6947,8.7154,8.7154,8.7267,8.7342,8.7342,8.7114,8.7114,8.7415,8.61,8.5312,4.6534,4.8723,5.1239,5.3836,5.7082,6.0053,6.1649,6.204,6.2297,6.3003,6.3892,6.4431,6.4318,6.4114,6.4603,6.672,6.6777,6.7474,7.0179,7.1255,7.19,7.2235,7.1044,6.9557,6.8056,7.1319,7.3258,7.2778,7.4573,7.6075,7.6901,7.7013,7.7502,7.8553,7.859,7.9266,8.0693,8.0731,8.0919,8.1256,8.1482,8.1369,8.0919,8.1344,8.2255,8.3459,8.3666,8.3941,8.4212,8.3104,8.2798,8.2951,8.2493,8.1958,8.1423,8.1423,8.1461,8.15,8.2111,8.2263,8.2222,8.2224,8.2104,8.198,8.2167,8.2243,8.2281,8.2466,8.3046,8.343,8.2821,8.3354,8.3806,8.3117,8.3264,8.3758,8.4278,8.4772,8.5334,8.6122,8.6493,8.7089,8.8393,8.901,8.9188,8.8843,8.7773,8.6666,8.5725,8.6363,8.6851,8.6851,8.764,8.8128,8.8128,8.8654,8.8841,8.8503,8.8466,8.8278,8.7903,8.8223,8.8298,8.8073,8.8185,8.8148,8.7923,8.7978,8.809,8.8278,8.7077,8.6626,4.7957,4.8709,4.9992,5.4973,5.754,5.9696,6.2974,6.3801,6.4022,6.4705,6.508,6.5265,6.5189,6.595,6.6865,6.7725,6.9208,7.0572,7.1522,7.2731,7.266,7.0289,7.0985,6.9778,6.5003,6.8951,7.2741,7.5136,7.6075,7.6938,7.7802,7.7839,7.859,8.0243,8.0318,8.0693,8.1557,8.1557,8.1181,8.043,8.1219,8.0768,7.9191,8.0055,8.114,8.2323,8.2368,8.3122,8.4174,8.2531,8.2302,8.2837,8.1194,8.0544,8.0544,8.0544,8.0469,8.0469,8.0545,8.0507,8.0507,8.0545,8.0582,8.0698,8.1422,8.165,8.1763,8.2482,8.2707,8.2707,8.2749,8.3354,8.4001,8.3963,8.5181,8.6361,8.6399,8.7693,8.9018,8.9678,9.0552,9.1301,9.2061,9.1507,9.0941,9.0826,9.075,8.9702,8.683,8.7227,8.7752,8.7752,8.8466,8.8954,8.8954,8.8992,8.933,9.0081,9.0156,9.0494,9.132,9.0397,8.9552,8.8766,8.7192,8.5994,8.5207,8.5371,8.58,8.6551,8.6513,8.6964,4.8681,5.1478,5.4996,5.7276,5.954,6.1647,6.3296,6.459,6.5388,6.4969,6.4174,6.3562,6.3454,6.2902,6.3116,6.5067,6.534,6.6907,7.1547,6.969,6.9283,7.3222,7.1161,7.0282,7.2316,7.2485,7.2402,7.2222,7.5483,7.7802,7.8666,7.9229,7.9792,8.0355,8.0919,8.1332,8.1594,8.1594,8.1444,8.1181,8.1482,8.1395,8.1065,8.2038,8.2847,8.3383,8.3548,8.3902,8.4212,8.3066,8.276,8.2913,8.2378,8.2149,8.2149,8.2149,8.2531,8.276,8.1079,8.085,8.1347,8.1385,8.1691,8.2109,8.2414,8.2451,8.2642,8.3402,8.3671,8.4057,8.5123,8.5619,8.6001,8.6451,8.7443,8.82,8.8022,8.8851,8.9725,8.9849,9.0104,9.0711,9.2076,9.2064,9.1812,9.1605,9.0555,8.9619,8.9194,8.8822,8.8616,8.8616,8.933,8.9818,8.9818,9.0832,9.1357,9.1057,9.1057,9.0944,9.0644,8.9799,8.9236,8.8973,8.841,8.796,8.7697,8.7752,8.7903,8.8128,8.7602,8.7527,5.1509,5.4933,5.8575,5.9681,6.1644,6.3527,6.4305,6.5186,6.5648,6.5008,6.4177,6.3113,6.1819,6.1611,6.2251,6.4182,6.4267,6.6231,7.2129,7.0149,6.9624,7.384,7.2127,7.1595,7.4229,7.4064,7.3312,7.1958,7.507,7.7239,7.7764,7.859,7.9454,8.0355,8.1181,8.1594,8.1594,8.1594,8.1444,8.1181,8.1181,8.1245,8.1479,8.2453,8.2536,8.201,8.3129,8.3368,8.2951,8.299,8.3333,8.383,8.3219,8.3372,8.3868,8.3563,8.3983,8.4441,8.2531,8.2416,8.3142,8.3142,8.3447,8.3904,8.421,8.4286,8.4477,8.5317,8.5586,8.5893,8.6961,8.7378,8.776,8.8167,8.9114,8.9952,8.9771,9.0637,9.1397,9.1253,9.1431,9.2,9.3012,9.3201,9.315,9.2995,9.1665,9.0637,9.0491,8.9628,8.9104,8.946,8.9723,8.978,8.978,9.0756,9.1282,9.1057,9.1019,9.0907,9.0681,8.9855,8.9292,8.8992,8.8729,8.8428,8.809,8.8428,8.8579,8.8579,8.8353,8.8241,5.5987,5.8616,6.0411,6.2064,6.3706,6.5078,6.5796,6.5479,6.4947,6.4747,6.4672,6.3646,6.0323,6.1704,6.3691,6.4898,6.5741,6.8015,7.3003,7.361,7.3193,7.2213,7.3613,7.3747,7.1336,7.3996,7.5426,7.4385,7.5098,7.5587,7.5587,7.6375,7.7915,8.0318,8.1181,8.1594,8.1519,8.1519,8.1144,8.0393,8.043,8.043,8.0468,8.1294,8.0612,7.8869,8.1376,8.1786,8.0888,8.2455,8.4059,8.5358,8.3792,8.4174,8.5473,8.4747,8.5015,8.5588,8.4824,8.5015,8.5588,8.5588,8.5588,8.5779,8.6619,8.6887,8.704,8.788,8.811,8.8107,8.8061,8.8629,8.9196,8.9101,9.0395,9.1651,9.1651,9.2907,9.4002,9.3856,9.4464,9.4946,9.4844,9.4793,9.4755,9.4679,9.3894,9.2662,9.0884,8.9741,8.946,9.0415,8.9611,8.9029,8.8992,8.9029,8.9405,9.0099,9.0231,9.0569,9.1395,9.0606,8.978,8.8992,8.8241,8.7452,8.6626,8.7452,8.7865,8.7903,8.8654,8.8992,5.5517,5.8597,6.2008,6.3069,6.4098,6.4779,6.432,6.5562,6.5866,6.27,6.1001,5.9454,5.7498,5.5555,5.6244,6.2375,6.1873,6.3179,7.0157,6.9966,7.0079,7.2746,7.4041,7.5568,7.7907,7.8888,7.8464,7.6337,7.7362,7.8177,7.8177,7.8966,7.9717,8.0355,8.1181,8.1243,8.0465,8.0465,8.0441,8.0393,8.0994,8.1294,8.1332,8.2322,8.247,8.2085,8.3702,8.4263,8.4047,8.4591,8.5129,8.5511,8.5741,8.6084,8.6543,8.6963,8.7651,8.8301,8.811,8.7345,8.6467,8.6467,8.6925,8.746,8.7689,8.7766,8.7804,8.8033,8.853,8.91,8.9621,9.0383,9.1102,9.1712,9.2611,9.3364,9.3364,9.4068,9.4692,9.4592,9.4693,9.4844,9.4793,9.4793,9.4376,9.2971,9.2593,9.2503,9.2625,9.1692,9.085,9.0325,8.9986,8.944,8.8687,8.9211,8.966,8.9884,9.0001,9.0172,9.0359,8.9686,8.9217,8.8992,8.8804,8.8523,8.8223,8.8523,8.8636,8.856,8.8861,8.8992,5.8158,6.0805,6.3489,6.3568,6.3949,6.3986,6.28,6.3057,6.2601,5.9005,5.7781,5.6614,5.419,5.3483,5.5283,6.1526,6.1419,6.2921,6.9752,6.9777,7.0206,7.3053,7.4853,7.7153,8.0415,8.115,8.0612,7.8643,7.8247,7.7888,7.7502,7.8253,7.9079,7.9792,8.0618,8.0793,8.0254,8.0165,8.0165,8.0254,8.1506,8.1881,8.1529,8.2987,8.3062,8.2217,8.4188,8.4486,8.3659,8.5393,8.6314,8.6696,8.7192,8.7842,8.8492,8.8606,8.9141,8.9867,8.9867,8.9256,8.8492,8.8492,8.8797,8.9218,8.9218,8.9447,8.9714,8.9714,9.0326,9.1047,9.1419,9.2055,9.2772,9.3267,9.385,9.4361,9.441,9.4692,9.4782,9.4338,9.4262,9.4149,9.377,9.3694,9.3391,9.2342,9.219,9.238,9.2872,9.159,9.0621,9.0305,8.9949,8.948,8.8803,8.9178,8.9419,8.9242,8.9264,8.9323,8.9323,8.899,8.8766,8.8766,8.8766,8.8766,8.865,8.8823,8.886,8.8803,8.8936,8.8992,6.1519,6.3376,6.4585,6.3909,6.3833,6.3489,6.1814,6.0165,5.8197,5.5324,5.5032,5.4375,5.1361,5.3503,5.711,6.1292,6.2378,6.4396,6.9322,7.0837,7.1788,7.2713,7.5447,7.8214,8.0725,8.143,8.1506,8.0876,7.8643,7.6902,7.5924,7.6563,7.7652,7.9229,7.998,8.043,8.0543,8.0479,8.0376,8.0264,8.2144,8.2467,8.1612,8.3307,8.3062,8.1349,8.3747,8.3747,8.2326,8.5508,8.7307,8.811,8.8224,8.9141,9.0364,8.9714,8.9944,9.0593,9.0593,9.0593,9.0593,9.0593,9.0593,9.0631,9.0746,9.1243,9.1816,9.193,9.2618,9.3224,9.3091,9.361,9.4164,9.4164,9.4388,9.4693,9.4794,9.463,9.4262,9.3542,9.3429,9.3163,9.2443,9.2292,9.2254,9.214,9.214,9.2102,9.1938,9.0637,8.9899,9.0395,8.9883,8.9324,8.8936,8.8879,8.8766,8.8473,8.8436,8.8436,8.8436,8.8495,8.8495,8.8495,8.8495,8.8495,8.8495,8.8708,8.8803,8.8803,8.8936,8.8992,6.0402,6.2022,6.3979,6.4547,6.5192,6.5229,6.3562,6.189,5.9576,5.5572,5.315,5.1764,5.1877,5.2323,5.4339,5.9573,6.1039,6.1939,6.2955,6.8054,7.1327,7.0607,7.4101,7.8055,8.1748,8.039,8.0005,8.1792,8.0847,7.9689,7.8515,7.8688,7.9214,8.013,8.0141,8.0554,8.1369,8.1942,8.1837,8.12,8.3007,8.3382,8.2398,8.357,8.3965,8.3801,8.4505,8.5075,8.5605,8.6462,8.7307,8.8148,8.8835,8.9256,8.96,9.0173,9.0478,9.0593,9.0593,9.0593,9.0593,9.0593,9.0593,9.0746,9.1395,9.1701,9.193,9.2656,9.3497,9.4141,9.3876,9.4392,9.4953,9.4855,9.4288,9.3858,9.4008,9.334,9.2671,9.2557,9.2519,9.2481,9.2329,9.2292,9.2064,9.142,9.1306,9.0941,9.0018,9.0887,9.1378,9.0744,9.0192,8.9535,8.8687,8.8354,8.8208,8.8146,8.8293,8.8354,8.8354,8.8473,8.8495,8.8495,8.8495,8.8495,8.8495,8.8708,8.8803,8.8803,8.8936,8.8992,5.983,6.1776,6.4396,6.4813,6.5192,6.4471,6.0605,5.8786,5.6254,5.061,4.8428,4.765,4.7895,4.9043,5.207,5.8546,6.1286,6.3346,6.5457,6.9811,7.2584,7.1976,7.4821,7.7821,8.0287,7.9457,7.9187,8.0226,7.9632,7.928,7.9321,7.9688,8.0091,8.0355,8.0666,8.1215,8.2233,8.1986,8.1933,8.2024,8.2398,8.2308,8.188,8.2864,8.3397,8.3602,8.495,8.503,8.4562,8.7069,8.7575,8.6963,8.9141,8.9982,9.002,9.044,9.0593,9.0669,9.109,9.1204,9.1319,9.1739,9.1586,9.1395,9.2236,9.2809,9.3229,9.3562,9.4287,9.4891,9.4668,9.4534,9.4486,9.4486,9.3742,9.3036,9.3036,9.2645,9.2178,9.1761,9.1685,9.1534,9.1079,9.1003,9.0889,9.0472,9.0434,9.0233,8.9667,9.0361,9.065,9.0065,8.9776,8.946,8.8766,8.865,8.8414,8.8084,8.8293,8.8354,8.8171,8.8232,8.8293,8.8293,8.8293,8.8354,8.8414,8.8592,8.8708,8.8803,8.8936,8.8992,6.0122,6.204,6.4537,6.4813,6.4623,6.3031,5.7845,5.5458,5.2597,4.628,4.4513,4.4185,4.4519,4.6562,5.031,5.6885,6.0131,6.3247,6.7425,7.0269,7.2472,7.3916,7.5656,7.7586,7.9689,7.9125,7.8818,7.941,7.8815,7.8845,7.9689,8.0225,8.0605,8.0881,8.1417,8.2167,8.3096,8.2249,8.1954,8.227,8.1954,8.1564,8.1211,8.2291,8.3067,8.35,8.5269,8.4909,8.3416,8.7523,8.7877,8.6123,8.9291,9.0665,9.0818,9.0775,9.089,9.1162,9.1811,9.2083,9.2236,9.3033,9.2728,9.2193,9.3071,9.3797,9.4287,9.4197,9.4609,9.5019,9.4696,9.4106,9.3476,9.3383,9.2803,9.2137,9.1799,9.1761,9.1571,9.0927,9.0813,9.0586,8.9904,8.979,8.979,8.979,8.979,8.979,8.979,8.979,8.9692,8.9527,8.9386,8.9318,8.9102,8.9047,8.8766,8.833,8.8414,8.8414,8.8208,8.8146,8.8084,8.8084,8.8146,8.8208,8.8354,8.8473,8.865,8.886,8.8936,8.8936,6.1726,6.271,6.3307,6.4579,6.3751,6.186,5.8887,5.5321,5.1499,4.7529,4.4373,4.3171,4.6015,4.7417,4.9408,5.3283,5.4748,5.6922,6.152,6.4258,6.8098,7.4334,7.5247,7.753,8.3012,7.9961,7.8891,8.193,8.1398,8.0889,8.0594,8.0467,8.1069,8.2533,8.2683,8.3096,8.396,8.3885,8.2976,8.1377,8.2869,8.2757,8.1248,8.278,8.4229,8.5411,8.5613,8.5413,8.5138,8.7976,8.818,8.6963,8.9435,9.0841,9.1528,9.1476,9.1933,9.2672,9.2748,9.2875,9.3115,9.3861,9.3511,9.2939,9.3816,9.4075,9.4058,9.4011,9.4049,9.3935,9.2993,9.2679,9.2451,9.1545,9.1318,9.1003,9.0207,9.0017,9.0017,8.9942,8.9904,8.9904,8.9828,8.979,8.979,8.979,8.979,8.979,8.979,8.979,8.979,8.9741,8.9578,8.9423,8.9371,8.9157,8.8992,8.8936,8.8613,8.8495,8.8436,8.8269,8.8084,8.8084,8.8232,8.8354,8.8436,8.865,8.8823,8.8992,8.886,8.8803,5.8539,6.1294,6.4253,6.4124,6.3259,6.1065,5.5864,5.3067,4.9977,4.4346,4.2125,4.16,4.2894,4.4117,4.6358,5.082,5.3128,5.6764,6.3578,6.6446,7.0005,7.5774,7.6994,7.8138,8.0085,7.8216,7.7604,7.9467,7.9236,8.0211,8.299,8.2576,8.2685,8.3702,8.3637,8.3735,8.411,8.3532,8.3367,8.3688,8.3168,8.3151,8.358,8.4216,8.4867,8.5508,8.6694,8.5772,8.3823,8.8516,8.8613,8.6223,9.0219,9.201,9.2231,9.2314,9.2588,9.2977,9.36,9.3835,9.3912,9.4128,9.3923,9.3648,9.3991,9.4058,9.3897,9.3269,9.3117,9.2993,9.2467,9.205,9.1394,9.051,9.0321,9.0207,8.9866,8.979,8.979,8.979,8.979,8.979,8.979,8.979,8.979,8.979,8.979,8.979,8.979,8.979,8.979,8.979,8.9541,8.9423,8.9423,8.9318,8.9173,8.9006,8.9027,8.8861,8.8538,8.8421,8.8219,8.8084,8.8146,8.8293,8.8495,8.8592,8.8766,8.8992,8.8936,8.8879,5.619,5.9714,6.3456,6.3074,6.1548,5.8727,5.3383,5.056,4.7486,4.1798,4.0435,4.0323,4.0622,4.1642,4.4042,4.8866,5.1769,5.6029,6.3458,6.6367,6.9735,7.5115,7.6831,7.7903,7.8711,7.8482,7.8406,7.8787,7.9203,8.1136,8.5037,8.4635,8.4362,8.4656,8.4275,8.411,8.4163,8.3697,8.3945,8.4936,8.4009,8.373,8.4046,8.5245,8.56,8.5387,8.7517,8.6594,8.4041,8.8805,8.888,8.6317,9.0616,9.2594,9.3098,9.3191,9.3389,9.3739,9.444,9.4561,9.4287,9.4197,9.3868,9.3507,9.3231,9.3307,9.3297,9.2326,9.1909,9.167,9.1621,9.1155,9.0548,8.9942,8.979,8.979,8.979,8.979,8.979,8.979,8.979,8.979,8.979,8.979,8.979,8.979,8.979,8.979,8.979,8.979,8.979,8.979,8.9591,8.9527,8.9527,8.9527,8.9452,8.9235,8.9348,8.9227,8.8786,8.8673,8.8517,8.8293,8.833,8.8414,8.8592,8.865,8.8823,8.9047,8.8992,8.8879,5.6089,5.8294,5.9802,6.1201,5.8144,5.4289,5.2397,4.8152,4.3792,4.1073,3.9933,3.9675,4.0446,4.1222,4.3125,4.7417,4.9989,5.3347,5.8832,6.1544,6.5266,7.1433,7.3711,7.6407,8.0661,8.2015,8.225,8.1413,8.3021,8.4695,8.6184,8.6298,8.6019,8.5493,8.4613,8.4163,8.4317,8.507,8.5019,8.411,8.5725,8.4695,8.1574,8.5508,8.6537,8.5462,8.7903,8.8179,8.6995,8.886,8.8756,8.7741,9.0324,9.2433,9.3973,9.3973,9.46,9.5379,9.5417,9.4884,9.4197,9.4058,9.3307,9.2375,9.1394,9.1685,9.214,9.1344,9.0472,8.9828,8.9828,8.9828,8.9828,8.979,8.979,8.979,8.979,8.979,8.979,8.979,8.979,8.979,8.979,8.979,8.979,8.979,8.979,8.979,8.979,8.979,8.979,8.979,8.979,8.979,8.979,8.979,8.979,8.979,8.9578,8.9423,8.9423,8.9157,8.8936,8.8728,8.8898,8.8936,8.8803,8.8936,8.9047,8.9173,8.8936,8.8708,5.0503,5.3315,5.5503,5.4618,5.3164,5.1042,4.7545,4.5115,4.2902,4.0269,3.956,3.9526,3.989,4.0932,4.3096,4.7355,4.8986,5.2642,6.1106,6.3225,6.6322,7.2939,7.6194,7.8522,8.0304,7.9856,8.0277,8.2177,8.1799,8.3211,8.7052,8.5994,8.5678,8.6491,8.5662,8.5159,8.5108,8.4909,8.5512,8.6787,8.6711,8.5703,8.4207,8.7679,8.8092,8.6251,8.8729,8.9027,8.7796,8.9506,8.9767,8.9308,9.1849,9.3666,9.4811,9.4905,9.5142,9.5417,9.5509,9.4974,9.4083,9.3335,9.2433,9.1539,9.0521,9.0813,9.1306,9.0434,9.0017,8.979,8.979,8.979,8.979,8.979,8.979,8.979,8.979,8.979,8.979,8.979,8.979,8.979,8.979,8.979,8.979,8.979,8.979,8.979,8.979,8.979,8.979,8.979,8.979,8.979,8.979,8.979,8.979,8.979,8.9692,8.9591,8.9423,8.9338,8.9182,8.8898,8.8823,8.8823,8.8936,8.9555,8.9984,9.0238,8.9528,8.9211,4.594,4.9355,5.1882,5.0659,4.937,4.7642,4.4965,4.3025,4.1349,3.9762,3.9911,4.0274,4.0103,4.1509,4.3677,4.6551,4.9437,5.3535,6.005,6.2541,6.6056,7.2415,7.5471,7.7987,8.0383,8.0085,8.0582,8.2558,8.2411,8.371,8.7019,8.6039,8.5772,8.6581,8.5738,8.5235,8.5185,8.57,8.6719,8.8164,8.8187,8.7555,8.6433,8.933,8.9517,8.7565,9.0081,9.0625,0.0,9.0531,9.0992,9.1332,9.2936,9.4274,9.5286,9.5417,9.5463,9.5471,9.5165,9.4433,9.3457,9.248,9.1549,9.0608,8.998,9.0169,9.051,8.9942,8.979,8.979,8.979,8.979,8.979,8.979,8.979,8.979,8.979,8.979,8.979,8.979,8.979,8.979,8.979,8.979,8.979,8.979,8.979,8.979,8.979,8.979,8.979,8.979,8.979,8.979,8.979,8.979,8.979,8.979,8.979,8.9692,8.9578,8.954,8.944,8.9265,8.9098,8.9249,8.9646,9.019,9.0373,9.0216,8.9702,8.9423,0.0,4.5991,4.8447,4.8447,4.6326,4.4223,4.4148,4.1675,0.0,3.9675,4.0937,4.1761,4.106,4.3044,4.4998,4.5562,5.1003,5.5585,5.6594,6.0484,6.5144,7.0419,7.2652,7.5725,8.0562,8.2057,8.2749,8.2825,8.4475,8.5734,8.6361,8.6361,8.6184,8.5933,8.507,8.473,8.4977,8.7171,8.8305,8.8343,8.9928,8.9635,8.7758,9.0362,9.0644,8.9142,9.162,9.2709,9.2634,9.1808,9.224,9.3426,9.3453,9.4285,9.5417,9.5554,9.556,9.5407,9.451,9.3495,9.2442,9.1511,9.057,8.979,8.979,8.979,8.979,8.979,8.979,8.979,8.979,8.979,8.979,8.979,8.979,8.979,8.979,8.979,8.979,8.979,8.979,8.979,8.979,8.979,8.979,8.979,8.979,8.979,8.979,8.979,8.979,8.979,8.979,8.979,8.979,8.979,8.979,8.979,8.979,8.979,8.979,8.979,8.9779,8.9705,8.9705,9.007,9.0782,9.0826,9.0372,8.9499,8.9578,8.9489,3.6926,0.0,4.2082,4.2141,4.1803,4.136,0.0,4.0012,4.0012,4.1791,4.253,4.2904,4.3295,4.6408,4.8729,4.8248,5.201,5.5804,5.8086,6.3988,6.8866,7.0991,7.4979,7.787,7.8443,8.1151,8.3097,8.3707,8.4777,8.5689,8.6361,8.5703,8.5531,8.6029,8.5924,8.6417,8.7511,8.7609,8.762,8.7571,8.9678,8.848,8.4544,8.9929,9.1169,8.9142,9.162,9.2709,9.2634,9.1808,9.2258,9.3453,9.3504,9.4334,9.5554,9.5598,9.5172,9.451,9.4281,9.3068,9.1473,9.0494,8.998,8.979,8.979,8.979,8.979,8.979,8.979,8.979,8.979,8.979,8.979,8.979,8.979,8.979,8.979,8.979,8.979,8.979,8.979,8.979,8.979,8.979,8.979,8.979,8.979,8.979,8.979,8.979,8.979,8.979,8.979,8.979,8.979,8.979,8.979,8.979,8.979,8.979,8.979,8.979,9.0131,9.0726,9.0663,9.0991,9.1771,9.0523,9.0159,9.0714,9.0082,8.9692,3.4923,3.7166,3.9718,4.084,4.0608,4.0312,4.0932,4.0547,4.0723,4.3071,4.3623,4.4109,4.5587,4.7447,4.9235,5.0517,5.3011,5.6332,6.0746,6.5837,6.9473,7.0498,7.4182,7.6922,7.7684,8.1191,8.3633,8.4053,8.4892,8.5537,8.5828,8.5279,8.5341,8.6168,8.6252,8.6814,8.7912,8.8777,8.8597,8.7412,9.041,8.9801,8.6304,9.0699,9.2183,9.1282,9.1094,9.194,9.3238,9.1245,9.1914,9.4073,9.4124,9.4725,9.5471,9.5089,9.4669,9.4083,9.3191,9.19,9.0532,8.9942,8.979,8.979,8.979,8.979,8.979,8.979,8.979,8.979,8.979,8.979,8.979,8.979,8.979,8.979,8.979,8.979,8.979,8.979,8.979,8.979,8.979,8.979,8.979,8.979,8.979,8.979,8.979,8.979,8.979,8.979,8.979,8.979,8.979,8.979,8.979,8.979,8.979,8.979,8.979,9.0169,9.0624,9.1079,9.1408,9.1395,9.1054,9.0512,9.0335,9.051,9.0017,8.979,3.4323,3.6613,3.9318,4.1791,4.0972,4.0202,4.2651,4.1978,4.1669,4.4535,4.517,4.5917,4.8133,4.8926,4.9996,5.2412,5.438,5.7785,6.3984,6.7275,6.9323,7.0119,7.308,7.5818,7.7837,8.1688,8.4129,8.4322,8.4968,8.5346,8.5219,8.5209,8.5614,8.6404,8.6753,8.7277,8.8122,9.0238,9.0172,8.7923,9.1633,9.2043,8.9692,9.1865,9.331,9.3835,9.1038,9.1471,9.3954,9.1186,9.1854,9.4793,9.4946,9.5067,9.5104,9.4426,9.3961,9.3495,9.1701,9.0494,8.979,8.979,8.979,8.979,8.979,8.979,8.979,8.979,8.979,8.979,8.979,8.979,8.979,8.979,8.979,8.979,8.979,8.979,8.979,8.979,8.979,8.979,8.979,8.979,8.979,8.979,8.979,8.979,8.979,8.979,8.979,8.979,8.979,8.979,8.979,8.979,8.979,8.979,8.979,8.9866,8.998,9.0965,9.1458,9.1458,9.2026,9.1609,9.0169,9.0662,9.051,8.979,8.979,8.979,3.2707,3.5209,3.8611,4.1635,4.0877,4.0221,4.3332,4.2772,4.3079,4.8282,4.9399,4.9921,5.1703,5.6033,5.7827,5.3531,5.7229,6.2334,6.7085,7.0156,7.1902,7.2092,7.692,7.9893,7.8981,8.2032,8.4437,8.5242,8.5352,8.5346,8.5219,8.5904,8.6533,8.7222,8.8775,9.0219,9.1534,9.1377,9.0742,8.9631,9.2768,9.2571,8.9729,9.2505,9.3873,9.3948,9.3596,9.3728,9.4142,9.3783,9.4076,9.4793,9.4844,9.4578,9.4211,9.4096,9.3051,9.1587,9.0456,8.9904,8.979,8.979,8.979,8.979,8.979,8.979,8.979,8.979,8.979,8.979,8.979,8.979,8.979,8.979,8.979,8.979,8.979,8.979,8.979,8.979,8.979,8.979,8.979,8.979,8.979,8.979,8.979,8.979,8.979,8.979,8.979,8.979,8.979,8.979,8.979,8.979,8.979,8.979,8.979,9.0131,9.0851,9.2367,9.3201,9.3201,9.2595,9.2178,9.1913,9.0624,8.9942,8.979,8.979,8.979,3.2863,3.5135,3.8861,4.4209,4.2836,4.1975,4.8707,4.6576,4.511,5.1703,5.0514,4.9508,5.3491,5.6106,5.8015,5.9171,6.4142,6.8621,7.0746,7.2535,7.3752,7.4326,7.8176,8.0354,7.932,8.2607,8.5051,8.5473,8.5349,8.5262,8.5219,8.5975,8.6951,8.8104,8.9505,9.114,9.3074,9.2782,9.1767,9.0011,9.3033,9.2722,8.9729,9.2618,9.3986,9.3873,9.2241,9.2579,9.4142,9.2533,9.3047,9.4755,9.4402,9.4122,9.3802,9.2889,9.1653,9.0418,8.9942,8.979,8.979,8.979,8.979,8.979,8.979,8.979,8.979,8.979,8.979,8.979,8.979,8.979,8.979,8.979,8.979,8.979,8.979,8.979,8.979,8.979,8.979,8.979,8.979,8.979,8.979,8.979,8.979,8.979,8.979,8.979,8.979,8.979,8.979,8.979,8.979,8.979,9.0017,9.0472,9.051,9.1079,9.2405,9.3163,9.358,9.358,9.2846,9.2152,9.1647,9.0445,8.9839,8.979,8.979,8.979,3.3317,3.5551,3.9444,4.6224,4.4636,4.398,5.3751,5.0235,4.7161,5.4948,5.2671,5.0916,5.6328,5.6847,5.8417,6.4441,6.9388,7.2924,7.4072,7.5135,7.6123,7.7117,7.9508,8.0889,8.0465,8.3525,8.5511,8.5511,8.5308,8.53,8.5528,8.6387,8.7627,8.9345,9.0456,9.2015,9.3997,9.4035,9.3048,9.1149,9.332,9.3138,9.0811,9.2994,9.4044,9.3894,9.1469,9.1973,9.4232,9.1671,9.2152,9.4414,9.3719,9.3313,9.2972,9.1491,9.0456,8.979,8.9839,8.9839,8.9839,8.9839,8.9839,8.9839,8.979,8.979,8.979,8.979,8.979,8.979,8.979,8.979,8.979,8.979,8.979,8.979,8.979,8.979,8.979,8.979,8.979,8.979,8.979,8.979,8.979,8.979,8.979,8.979,8.979,8.979,8.979,8.979,8.979,8.979,8.979,8.998,9.0472,9.1344,9.1571,9.2254,9.3542,9.377,9.3883,9.3883,9.2972,9.2137,9.1382,9.0466,8.9935,8.979,8.979,8.979,3.346,3.6084,4.0072,4.5649,4.5002,4.5492,5.536,5.1884,4.9113,5.8166,5.8541,5.8315,6.207,6.2636,6.354,6.6446,6.9121,7.2251,7.6483,7.8457,7.9778,8.0807,8.2542,8.3662,8.3748,8.4782,8.5511,8.5511,8.5311,8.5613,8.6455,8.7839,8.9383,9.1064,9.2689,9.3921,9.4679,9.4717,9.4604,9.4452,9.4454,9.4291,9.4064,9.4047,9.4102,9.418,9.4085,9.4232,9.4545,9.3681,9.3467,9.358,9.2709,9.195,9.1155,9.0245,8.9866,8.979,8.9935,9.002,9.002,9.002,9.002,8.9935,8.9839,8.979,8.979,8.979,8.979,8.979,8.979,8.979,8.979,8.979,8.979,8.979,8.979,8.979,8.979,8.979,8.979,8.979,8.979,8.979,8.979,8.979,8.979,8.979,8.979,8.979,8.979,8.979,8.979,8.979,8.979,9.0548,9.1344,9.214,9.2974,9.3467,9.358,9.43,9.4717,9.4717,9.3275,9.244,9.2216,9.0732,8.9935,8.979,8.979,8.979,3.4811,3.8019,4.2579,4.872,4.8198,4.8546,5.7379,5.4943,5.3061,6.1206,5.9553,5.7449,6.034,6.437,6.7918,6.9881,7.3166,7.623,7.839,8.0175,8.1468,8.1868,8.2998,8.3791,8.3963,8.4851,8.5388,8.5308,8.527,8.5803,8.7099,8.8194,8.9733,9.1843,9.3231,9.4209,9.4793,9.4869,9.4869,9.4793,9.4567,9.4404,9.4404,9.418,9.4122,9.4142,9.393,9.3812,9.3789,9.3214,9.2884,9.2709,9.1875,9.1041,9.0245,8.9904,8.979,8.979,8.9839,8.9839,8.9839,8.9839,8.9839,8.9839,8.979,8.979,8.979,8.979,8.979,8.979,8.979,8.979,8.979,8.979,8.979,8.979,8.979,8.979,8.979,8.979,8.979,8.979,8.979,8.979,8.979,8.979,8.979,8.979,8.979,8.979,8.979,8.979,8.979,9.0017,9.0548,9.1382,9.2216,9.305,9.3429,9.3808,9.4338,9.4642,9.4617,9.4224,9.3145,9.2309,9.1719,9.0637,8.9982,8.979,8.979,8.979,3.608,3.9406,4.3929,5.0194,5.0108,5.0787,5.9628,5.745,5.5676,6.2975,6.2372,6.0941,6.2372,6.667,7.0259,7.1124,7.4606,7.7552,7.8557,8.0905,8.2463,8.2302,8.3228,8.3983,8.4247,8.491,8.5295,8.5214,8.5138,8.5828,8.7481,8.8569,9.0159,9.2337,9.3659,9.4486,9.4817,9.4933,9.4793,9.4452,9.4167,9.4211,9.4459,9.4029,9.3916,9.3934,9.3267,9.2995,9.2971,9.2391,9.1909,9.1507,9.0987,9.0418,8.9839,8.9887,8.9935,8.9935,8.9982,8.9935,8.9935,8.9935,8.9887,8.9839,8.979,8.979,8.979,8.979,8.979,8.979,8.979,8.979,8.979,8.979,8.979,8.979,8.979,8.979,8.979,8.979,8.979,8.979,8.979,8.979,8.979,8.979,8.979,8.979,8.979,8.979,8.979,8.979,8.979,9.0169,9.1041,9.1837,9.2671,9.3542,9.3631,9.401,9.4755,9.4617,9.425,9.3818,9.2822,9.1986,9.1311,9.0578,9.0029,8.979,8.979,8.979,3.714,3.9964,4.3643,4.9332,5.0047,5.1978,6.1957,5.9176,5.6425,6.3273,6.8073,7.068,6.9733,7.0135,7.0352,6.9566,7.2369,7.5205,7.6776,8.0594,8.2934,8.2312,8.3606,8.4685,8.4976,8.5113,8.5203,8.5203,8.5068,8.5759,8.7595,8.9108,9.0722,9.247,9.4106,9.4931,9.479,9.4893,9.4528,9.3605,9.3467,9.3832,9.4545,9.3591,9.3251,9.3335,9.2465,9.219,9.2216,9.1567,9.078,8.9982,9.0159,9.0113,9.002,9.0159,9.0205,9.025,9.034,9.0295,9.0205,9.0205,9.0113,9.002,8.9839,8.979,8.979,8.979,8.979,8.979,8.979,8.979,8.979,8.979,8.979,8.979,8.979,8.979,8.979,8.979,8.979,8.979,8.979,8.979,8.979,8.979,8.979,8.979,8.979,8.979,8.979,8.979,8.979,9.0169,9.1041,9.1837,9.2671,9.3542,9.3731,9.4111,9.4755,9.4149,9.378,9.378,9.2345,9.1507,9.1273,9.0578,9.0029,8.979,8.979,8.979,3.9735,4.2851,4.5864,4.8718,5.166,5.4593,5.7632,5.8608,6.0263,6.5351,6.8374,6.9472,6.7391,7.0482,7.3081,7.2293,7.4928,7.7447,7.8455,8.1167,8.2798,8.2104,8.351,8.4627,8.4892,8.5037,8.5044,8.4992,8.5569,8.6601,8.825,8.9859,9.1518,9.3211,9.4402,9.4665,9.3944,9.4665,9.4262,9.272,9.3277,9.3277,9.2834,9.2579,9.2451,9.2428,9.1698,9.1458,9.1529,9.0836,9.0342,8.9982,9.0159,9.0205,9.0159,9.0205,9.0205,9.0205,9.025,9.025,9.0205,9.0205,9.0113,8.9982,8.9935,8.9839,8.979,8.979,8.979,8.979,8.979,8.979,8.979,8.979,8.979,8.979,8.979,8.979,8.979,8.979,8.979,8.979,8.979,8.979,8.979,8.979,8.979,8.979,8.979,8.979,8.979,8.979,8.979,9.0396,9.1799,9.214,9.2721,9.3693,9.378,9.3894,9.4111,9.3373,9.2793,9.2231,9.1774,9.1195,9.054,9.0227,8.9935,8.979,8.979,8.979,4.2563,4.5769,4.915,5.31,5.5183,5.6654,5.8417,6.0372,6.3312,6.8562,7.0453,7.0833,6.9622,7.2751,7.5312,7.4821,7.7229,7.9284,7.9763,8.1645,8.2862,8.2519,8.365,8.4579,8.4808,8.4909,8.5023,8.5309,8.5903,8.6943,8.8501,8.9555,9.0863,9.2569,9.3529,9.3719,9.3089,9.435,9.3934,9.1836,9.2671,9.2417,9.118,9.1547,9.1736,9.166,9.0927,9.078,9.0882,9.0441,9.025,9.0205,9.0295,9.034,9.0295,9.034,9.034,9.034,9.034,9.034,9.0295,9.0295,9.0159,8.9982,8.9982,8.9887,8.979,8.979,8.979,8.979,8.979,8.979,8.979,8.979,8.979,8.979,8.979,8.979,8.979,8.979,8.979,8.979,8.979,8.979,8.979,8.979,8.979,8.979,8.979,8.979,8.979,8.979,9.0093,9.0775,9.1875,9.2405,9.291,9.359,9.3307,9.3051,9.2937,9.2535,9.2048,9.1642,9.1248,9.0783,9.0205,9.0067,8.9935,8.979,8.979,8.979,4.5304,4.8624,5.2786,5.947,5.9095,5.838,6.3201,6.418,6.5878,7.2195,7.3443,7.367,7.4615,7.6079,7.7123,7.7198,7.916,8.066,8.0715,8.1946,8.2975,8.3198,8.3952,8.453,8.4713,8.4845,8.5233,8.5858,8.6189,8.6965,8.8501,8.8729,8.9583,9.1142,9.2101,9.2569,9.2404,9.4111,9.3681,9.1217,9.1962,9.148,8.9942,9.0662,9.1003,9.0927,9.0314,9.0159,9.0378,9.0383,9.0383,9.0422,9.0508,9.0508,9.0383,9.0508,9.0551,9.0551,9.0551,9.0508,9.0383,9.0383,9.0205,8.9982,8.9982,8.9887,8.979,8.979,8.979,8.979,8.979,8.979,8.979,8.979,8.979,8.979,8.979,8.979,8.979,8.979,8.979,8.979,8.979,8.979,8.979,8.979,8.979,8.979,8.979,8.979,8.979,8.979,9.051,9.1155,9.1534,9.2367,9.2986,9.3249,9.2527,9.1902,9.1528,9.1528,9.1528,9.1528,9.0765,9.034,9.0205,9.0029,8.9887,8.979,8.979,8.979,4.68,5.0306,5.3394,5.4267,5.6311,6.0408,6.9199,6.9733,6.9435,7.28,7.2951,7.314,7.5258,7.6992,7.827,7.8859,7.9331,8.0075,8.1344,8.1833,8.2334,8.3122,8.405,8.4665,8.4713,8.5309,8.5772,8.5895,8.7127,8.8104,8.8577,8.9859,9.1003,9.2025,9.291,9.3326,9.3288,9.4326,9.3896,9.2025,9.2228,9.1784,9.0787,9.0283,9.0093,9.0055,9.0011,8.9963,8.993,9.0281,9.0327,9.0236,9.0416,9.0422,9.0383,9.0295,9.0295,9.0295,9.0295,9.025,9.025,9.025,9.0159,8.9982,8.9982,8.9887,8.979,8.979,8.979,8.979,8.979,8.979,8.979,8.979,8.979,8.979,8.979,8.979,8.979,8.979,8.979,8.979,8.979,8.979,8.979,8.979,8.979,8.979,8.979,8.979,8.979,8.979,8.998,9.0624,9.1988,9.1155,9.1079,9.2455,9.2547,9.201,9.0856,9.0818,9.0818,9.0818,9.0454,9.025,9.0205,8.9935,8.9839,8.979,8.979,8.979,4.5742,5.0656,5.5551,5.8186,6.1946,6.6031,7.0073,7.1587,7.2652,7.4396,7.4317,7.4615,7.6733,7.8126,7.9214,7.9991,8.0009,8.0365,8.1607,8.2134,8.2598,8.316,8.4341,8.5043,8.4627,8.5328,8.5961,8.6417,8.7636,8.8615,8.9128,8.9649,9.0283,9.1105,9.1938,9.2431,9.2366,9.3997,9.3959,9.229,9.2746,9.2266,9.1052,9.0169,8.9839,8.9887,8.9935,9.0011,9.0001,9.0205,9.025,9.0198,9.0295,9.0295,9.0295,9.025,9.0205,9.0205,9.0205,9.0205,9.0205,9.0205,9.0113,8.9982,8.9982,8.9887,8.979,8.979,8.979,8.979,8.979,8.979,8.979,8.979,8.979,8.979,8.979,8.979,8.979,8.979,8.979,8.979,8.979,8.979,8.979,8.979,8.979,8.979,8.979,8.979,8.979,8.979,8.979,9.0169,9.1041,9.1761,9.1875,9.1155,9.1453,9.1381,9.0631,9.0508,9.0508,9.0593,9.034,9.0205,9.0205,8.9935,8.979,8.979,8.979,8.979,4.3726,5.0328,5.7901,6.4254,6.8299,7.0455,6.9587,7.1706,7.4317,7.5952,7.6327,7.6771,7.817,7.9366,8.0217,8.0519,8.0688,8.1043,8.1671,8.2473,8.3213,8.3575,8.5021,8.5662,8.4956,8.5636,8.6405,8.7141,8.8054,8.8945,8.9752,8.9173,8.9173,8.998,9.0889,9.1408,9.1534,9.3719,9.4097,9.2758,9.3188,9.2519,9.0825,9.0131,8.9839,8.9973,8.9973,9.0067,9.0159,9.0167,9.0167,9.0205,9.0167,9.0167,9.0121,9.0159,9.0159,9.0159,9.0159,9.0159,9.0159,9.0159,9.0067,8.9973,8.9973,8.9887,8.979,8.979,8.979,8.979,8.979,8.979,8.979,8.979,8.979,8.979,8.979,8.979,8.979,8.979,8.979,8.979,8.979,8.979,8.979,8.979,8.979,8.979,8.979,8.979,8.979,8.979,8.979,8.979,8.979,9.2329,9.2746,8.998,9.0205,9.0465,9.0465,9.034,9.034,9.0508,9.0295,9.0159,9.0159,8.9887,8.979,8.979,8.979,8.979,4.239,4.9872,5.8575,6.4518,6.5349,6.6179,7.163,7.1632,7.1785,7.6133,7.769,7.8301,7.8359,8.0855,8.2161,7.9849,8.0704,8.1633,8.1645,8.2523,8.3726,8.516,8.6278,8.6807,8.6594,8.7235,8.7825,8.8028,8.8822,8.94,8.979,8.9714,9.0017,9.0901,9.1723,9.2468,9.3277,9.43,9.4679,9.4452,9.3125,9.1609,8.998,8.9866,8.979,8.9839,8.9839,8.9915,9.0028,8.999,9.0087,9.0181,9.0087,9.0011,8.9991,8.9887,8.9839,8.9839,8.9839,8.9839,8.9839,8.9839,8.9839,8.9839,8.9839,8.979,8.979,8.979,8.979,8.979,8.979,8.979,8.979,8.979,8.979,8.979,8.979,8.979,8.979,8.979,8.979,8.979,8.979,8.979,8.979,8.979,8.979,8.979,8.979,8.979,8.979,8.979,8.979,8.979,8.979,9.0207,9.0283,8.9828,8.9839,8.9925,8.9925,9.0075,9.0205,9.0198,9.0067,9.0067,9.0067,8.9839,8.979,8.979,8.979,8.979,4.5731,5.0698,5.5692,6.5686,6.5262,6.4225,7.1255,7.1331,7.1332,7.6293,7.7998,7.8983,8.0288,8.1585,8.2131,8.0989,8.1355,8.1645,8.1156,8.316,8.4805,8.4971,8.6606,8.7475,8.6868,8.7042,8.7426,8.807,8.8494,8.8832,8.9021,8.9525,8.979,8.9714,9.1382,9.2481,9.2885,9.4187,9.4793,9.4793,9.358,9.2367,9.1192,9.0738,9.0245,8.979,8.979,8.9828,8.9904,8.9904,8.9915,8.9963,8.9915,8.9877,8.9887,8.9839,8.979,8.979,8.979,8.979,8.979,8.979,8.979,8.979,8.979,8.979,8.979,8.979,8.979,8.979,8.979,8.979,8.979,8.979,8.979,8.979,8.979,8.979,8.979,8.979,8.979,8.979,8.979,8.979,8.979,8.979,8.979,8.979,8.979,8.979,8.979,8.979,8.979,8.979,8.979,8.979,8.979,8.979,8.979,8.979,8.979,8.9887,9.002,9.0105,9.002,8.9982,8.9982,8.9839,8.979,8.979,8.979,8.979,4.6809,4.9835,5.214,6.3716,6.3171,6.1482,6.8299,6.9058,6.974,7.4743,7.7282,7.9248,8.1414,8.2028,8.2157,8.2028,8.2082,8.192,8.1424,8.3936,8.5685,8.516,8.7122,8.8126,8.7141,8.6922,8.7152,8.7978,8.7886,8.8066,8.8631,8.9173,8.9286,8.8908,9.1117,9.2329,9.2304,9.3946,9.4566,9.4149,9.377,9.2898,9.1647,9.1268,9.0624,8.979,8.979,8.979,8.979,8.979,8.979,8.979,8.979,8.979,8.979,8.979,8.979,8.979,8.979,8.979,8.979,8.979,8.979,8.979,8.979,8.979,8.979,8.979,8.979,8.979,8.979,8.979,8.979,8.979,8.979,8.979,8.979,8.979,8.979,8.979,8.979,8.979,8.979,8.979,8.979,8.979,8.979,8.979,8.979,8.979,8.979,8.979,8.979,8.979,8.979,8.979,8.979,8.979,8.979,8.979,8.979,8.979,8.9877,9.002,8.9973,8.9935,8.9935,8.9839,8.979,8.979,8.979,8.979,4.1971,4.566,4.9004,5.5927,5.6404,5.6494,6.1675,6.3413,6.5343,7.0384,7.5236,7.9053,8.0528,8.2066,8.2896,8.2141,8.2534,8.2975,8.3085,8.4692,8.6101,8.6707,8.8291,8.8994,8.8006,8.7824,8.779,8.8012,8.7281,8.7555,8.9438,8.8847,8.8847,8.9714,9.1382,9.2329,9.2317,9.3959,9.3997,9.2443,9.3239,9.2292,8.998,9.0738,9.0624,8.979,8.979,8.979,8.979,8.979,8.979,8.979,8.979,8.979,8.979,8.979,8.979,8.979,8.979,8.979,8.979,8.979,8.979,8.979,8.979,8.979,8.979,8.979,8.979,8.979,8.979,8.979,8.979,8.979,8.979,8.979,8.979,8.979,8.979,8.979,8.979,8.979,8.979,8.979,8.979,8.979,8.979,8.979,8.979,8.979,8.979,8.979,8.979,8.979,8.979,8.979,8.979,8.979,8.979,8.979,8.979,8.979,8.979,8.9828,8.979,8.979,8.979,8.979,8.979,8.979,8.979,8.979,3.97,4.1663,4.4287,5.4078,5.331,5.2247,6.0358,6.3308,6.5196,6.8073,7.3944,7.8523,7.833,8.1056,8.3219,8.282,8.351,8.3936,8.3512,8.5413,8.6879,8.6858,8.7914,8.8602,8.8651,8.7114,8.668,8.7786,8.5204,8.4824,8.7714,8.6694,8.6982,8.8983,9.1192,9.2822,9.3883,9.449,9.4225,9.3125,9.3972,9.3062,9.0662,9.1496,9.1117,8.979,8.979,8.979,8.979,8.979,8.979,8.979,8.979,8.979,8.979,8.979,8.979,8.979,8.979,8.979,8.979,8.979,8.979,8.979,8.979,8.979,8.979,8.979,8.979,8.979,8.979,8.979,8.979,8.979,8.979,8.979,8.979,8.979,8.979,8.979,8.979,8.979,8.979,8.979,8.979,8.979,8.979,8.979,8.979,8.979,8.979,8.979,8.979,8.979,8.979,8.979,8.979,8.979,8.979,8.979,8.979,8.979,8.979,8.979,8.979,8.979,8.979,8.979,8.979,8.979,8.979,9.0093,3.688,3.8367,4.0615,4.9074,4.92,4.8985,5.5869,6.1076,6.4815,6.6144,7.2611,7.8019,7.7832,8.015,8.2425,8.3462,8.4201,8.4533,8.4105,8.5735,8.6852,8.6568,8.7235,8.7773,8.777,8.6288,8.5837,8.726,8.4642,8.4358,8.7537,8.6568,8.7084,8.9779,9.1458,9.3088,9.4755,9.4793,9.4376,9.3631,9.4162,9.3201,9.1155,9.1635,9.1155,8.979,8.979,8.979,8.979,8.979,8.979,8.979,8.979,8.979,8.979,8.979,8.979,8.979,8.979,8.979,8.979,8.979,8.979,8.979,8.979,8.979,8.979,8.979,8.979,8.979,8.979,8.979,8.979,8.979,8.979,8.979,8.979,8.979,8.979,8.979,8.979,8.979,8.979,8.979,8.979,8.979,8.979,8.979,8.979,8.979,8.979,8.979,8.979,8.979,8.979,8.979,8.979,8.979,8.979,8.979,8.979,8.979,8.979,8.979,8.979,8.979,8.979,8.979,8.979,8.9828,9.0093,9.0851,0.0,0.0,0.0,4.0528,4.3819,4.6806,4.805,5.6185,6.3668,6.4331,7.1048,7.7312,7.8822,7.9293,8.0519,8.3839,8.4541,8.4722,8.4816,8.5583,8.6019,8.5776,8.6443,8.6529,8.55,8.5349,8.5612,8.6455,8.565,8.6373,8.9149,8.8569,8.9427,9.2178,9.2241,9.3075,9.4755,9.4793,9.4376,9.3542,9.3567,9.2696,9.1079,9.1117,9.0624,8.979,8.979,8.979,8.979,8.979,8.979,8.979,8.979,8.979,8.979,8.979,8.979,8.979,8.979,8.979,8.979,8.979,8.979,8.979,8.979,8.979,8.979,8.979,8.979,8.979,8.979,8.979,8.979,8.979,8.979,8.979,8.979,8.979,8.979,8.979,8.979,8.979,8.979,8.979,8.979,8.979,8.979,8.979,8.979,8.979,8.979,8.979,8.979,8.979,8.979,8.979,8.979,8.979,8.979,8.979,8.979,8.979,8.979,8.979,8.979,8.979,8.979,8.9828,8.9828,8.9866,9.0738,9.2026,3.201,0.0,0.0,0.0,0.0,0.0,4.8461,5.4002,5.8843,6.0833,6.739,7.3222,7.4576,7.6919,7.9311,8.1366,8.2831,8.3729,8.3814,8.5157,8.6256,8.6668,8.6833,8.7221,8.8028,8.6417,8.565,8.6438,8.3576,8.3179,8.6416,8.7135,8.8696,9.1382,9.1446,9.2544,9.4755,9.4793,9.4073,9.2683,9.3264,9.2393,9.0207,9.0802,9.0612,8.979,8.979,8.979,8.979,8.979,8.979,8.979,8.979,8.979,8.979,8.979,8.979,8.979,8.979,8.979,8.979,8.979,8.979,8.979,8.979,8.979,8.979,8.979,8.979,8.979,8.979,8.979,8.979,8.979,8.979,8.979,8.979,8.979,8.979,8.979,8.979,8.979,8.979,8.979,8.979,8.979,8.979,8.979,8.979,8.979,8.979,8.979,8.979,8.979,8.979,8.979,8.979,8.979,8.979,8.979,8.979,8.979,8.979,8.979,8.979,8.979,8.979,9.0434,9.0738,9.0775,9.2026,9.286,3.2607,3.3867,3.5688,3.9522,0.0,0.0,4.6846,5.3186,5.8653,5.9942,6.6749,7.2335,7.2078,7.3401,7.502,7.663,7.8125,8.0121,8.2916,8.4315,8.5309,8.595,8.6014,8.6455,8.7622,8.635,8.5921,8.7034,8.492,8.4486,8.6515,8.7386,8.8631,9.051,9.1256,9.2279,9.3732,9.4111,9.3618,9.2304,9.2481,9.1749,9.0359,9.0461,9.0271,8.979,8.979,8.979,8.979,8.979,8.979,8.979,8.979,8.979,8.979,8.979,8.979,8.979,8.979,8.979,8.979,8.979,8.979,8.979,8.979,8.979,8.979,8.979,8.979,8.979,8.979,8.979,8.979,8.979,8.979,8.979,8.979,8.979,8.979,8.979,8.979,8.979,8.979,9.0965,9.1875,9.1875,9.07,8.979,8.979,8.979,8.979,8.979,8.979,8.979,8.979,8.979,8.979,8.979,8.979,8.979,8.979,9.1155,9.1875,9.1875,9.1875,9.1534,9.0851,9.0662,9.0927,9.1609,9.2443,9.3201,3.4399,3.5145,3.626,3.862,4.0552,0.0,4.4315,5.2372,5.9513,5.9731,6.6172,7.1363,6.9697,6.8795,6.8871,7.0592,7.1582,7.45,8.1263,8.2822,8.3482,8.3888,8.4276,8.4843,8.5726,8.565,8.6203,8.7743,8.7856,8.7871,8.7952,8.8279,8.8842,8.9638,9.1192,9.2102,9.2292,9.305,9.3012,9.214,9.1458,9.1079,9.0965,9.0169,8.979,8.979,8.979,8.979,8.979,8.979,8.979,8.979,8.979,8.979,8.979,8.979,8.979,8.979,8.979,8.979,8.979,8.979,8.979,8.979,8.979,8.979,8.979,8.979,8.979,8.979,8.979,8.979,8.979,8.979,8.979,8.979,8.979,8.979,8.9904,9.0283,9.0359,9.0359,9.0359,9.2822,9.4793,9.4793,9.2254,9.0359,9.0359,9.0017,8.979,8.979,8.979,8.979,8.979,8.979,8.979,8.979,9.0169,9.0359,9.0359,9.3201,9.4793,9.4793,9.4793,9.4073,9.2557,9.0889,9.0927,9.2595,9.2595,9.3391,3.5398,3.5582,3.6267,3.8607,3.9976,0.0,4.3841,4.657,4.9656,5.3593,5.5797,5.8216,6.2097,6.2633,6.3238,6.5376,6.5983,6.8512,7.5178,7.9123,8.1141,8.0566,8.2168,8.4142,8.6289,8.5348,8.5272,8.6802,8.7094,8.6882,8.6216,8.7008,8.7912,8.8805,8.979,9.0927,9.2292,9.2481,9.214,9.1344,9.1192,9.0738,9.0055,8.9866,8.979,8.979,8.979,8.979,8.979,8.979,8.979,8.979,8.979,8.979,8.979,8.979,8.979,8.979,8.979,8.979,8.979,8.979,8.979,8.979,8.979,8.979,8.979,8.979,8.979,8.979,8.979,8.979,8.979,8.979,8.979,8.979,8.979,8.979,9.0586,9.3277,9.3808,9.3808,9.3808,9.4376,9.4793,9.4793,9.4225,9.3808,9.3808,9.1458,8.979,8.979,8.979,8.979,8.979,8.979,8.979,8.979,9.2329,9.3808,9.3808,9.4452,9.4793,9.4793,9.4793,9.4642,9.43,9.2633,9.2671,9.43,9.43,9.449,3.7084,3.6968,3.7383,3.8992,3.9986,0.0,0.0,4.5893,4.8624,5.1002,5.3479,5.563,5.7089,5.758,5.8472,6.0448,6.0716,6.2034,6.5758,7.2472,7.7953,8.0349,8.1366,8.2685,8.4758,8.4607,8.5059,8.6576,8.6882,8.6744,8.6329,8.7322,8.8112,8.8577,8.979,9.0624,9.1041,9.1496,9.1268,9.0434,9.0472,9.0245,8.979,8.979,8.979,8.979,8.979,8.979,8.979,8.979,8.979,8.979,8.979,8.979,8.979,8.979,8.979,8.979,8.979,8.979,8.979,8.979,8.979,8.979,8.979,8.979,8.979,8.979,8.979,8.979,8.979,8.979,8.979,8.979,8.979,9.0245,9.1913,9.2292,9.2784,9.4452,9.3429,9.2822,9.449,9.4793,9.4225,9.2557,9.2292,9.2292,9.2292,9.0851,8.979,8.979,8.979,8.979,8.979,8.979,9.051,9.2178,9.3846,9.4793,9.4793,9.4793,9.4793,9.4793,9.4793,9.4793,9.4793,9.3959,9.3959,9.4793,9.4793,9.4793,3.927,3.8972,3.9148,3.9702,4.0328,4.1132,0.0,0.0,0.0,4.863,5.1863,5.4244,5.2526,5.2547,5.3375,5.5049,5.54,5.5986,5.7413,6.4668,7.1944,7.7542,7.8267,7.9039,8.0811,8.3073,8.4997,8.6124,8.741,8.7763,8.6933,8.8279,8.8908,8.8615,9.0245,9.0662,8.9828,9.051,9.051,8.979,8.979,8.979,8.979,8.979,8.979,8.979,8.979,8.979,8.979,8.979,8.979,8.979,8.979,8.979,8.979,8.979,8.979,8.979,8.979,8.979,8.979,8.979,8.979,8.979,8.979,8.979,8.979,8.979,8.979,8.979,8.979,8.979,8.979,8.979,8.979,9.0548,9.3239,9.3846,9.3846,9.3846,9.1647,9.0662,9.3353,9.3846,9.2898,9.0207,8.979,8.979,8.979,8.979,8.979,8.979,8.979,8.979,8.979,8.979,9.123,9.4566,9.4793,9.4793,9.4793,9.4793,9.4793,9.4793,9.4793,9.4793,9.4793,9.4793,9.4793,9.4793,9.4793,9.4793,4.2291,4.1672,4.1517,4.082,4.0718,4.0861,4.1028,0.0,4.3887,4.3062,0.0,4.524,4.6262,0.0,0.0,4.8174,4.9483,5.163,5.5385,5.6849,5.9477,6.451,6.7706,7.0373,7.2778,7.9865,8.4406,8.4581,8.9393,9.0782,8.7084,8.9276,9.0032,8.8653,9.0245,9.0662,8.9828,8.9904,8.9904,8.979,8.979,8.979,8.979,8.979,8.979,8.979,8.979,8.979,8.979,8.979,8.979,8.979,8.979,8.979,8.979,8.979,8.979,8.979,8.979,8.979,8.979,8.979,8.979,8.979,8.979,8.979,8.979,8.979,8.979,8.979,8.979,8.979,8.979,8.979,8.979,8.9904,9.0283,9.0359,9.0359,9.0359,9.0055,8.9904,9.0283,9.0359,9.0245,8.9866,8.979,8.979,8.979,8.979,8.979,8.979,8.979,8.979,8.979,8.979,9.123,9.4566,9.4793,9.4793,9.4793,9.4793,9.4793,9.4793,9.4793,9.4793,9.4793,9.4793,9.4793,9.4793,9.4793,9.4793,4.606,4.6872,4.7583,4.5699,4.6344,4.7066,4.557,4.4628,4.3827,4.2937,0.0,0.0,0.0,0.0,0.0,0.0,4.7483,4.8664,5.0391,5.1029,5.4597,6.3421,6.4885,6.7063,7.1944,7.4732,7.7485,8.038,8.3828,8.5512,8.4683,8.7714,8.9604,8.9957,9.0196,9.0396,9.0548,9.0055,8.979,8.979,8.979,8.979,8.979,8.979,8.979,8.979,8.979,8.979,8.979,8.979,8.979,8.979,8.979,8.979,8.979,8.979,8.979,8.979,8.979,8.979,8.979,8.979,8.979,8.979,8.979,8.979,8.979,8.979,8.979,8.979,8.979,8.979,8.979,8.979,8.979,8.979,8.979,8.979,8.979,8.979,8.979,8.979,8.979,8.979,8.979,8.979,8.979,8.979,8.979,8.979,8.979,8.979,8.979,8.979,8.979,9.1571,9.3277,9.4717,9.4793,9.4793,9.4793,9.4793,9.4793,9.4793,9.4793,9.4793,9.4793,9.4793,9.4793,9.4793,9.4793,9.4793,5.1794,5.2802,5.3281,4.9906,5.0332,5.0835,4.8009,4.6085,4.4678,4.3827,4.3982,0.0,0.0,0.0,4.5166,4.5371,0.0,4.6384,4.6298,4.7012,5.0992,6.0342,6.1806,6.4021,6.9053,7.0517,7.247,7.5624,7.9402,8.1795,8.2372,8.638,8.9175,9.0247,9.0423,9.0586,9.0738,9.0359,9.0055,8.979,8.979,8.979,8.979,8.979,8.979,8.979,8.979,8.979,8.979,8.979,8.979,8.979,8.979,8.979,8.979,8.979,8.979,8.979,8.979,8.979,8.979,8.979,8.979,8.979,8.979,8.979,8.979,8.979,8.979,8.979,8.979,8.979,8.979,8.979,8.979,8.979,8.979,8.979,8.979,8.979,8.979,8.979,8.979,8.979,8.979,8.979,8.979,8.979,8.979,8.979,8.979,8.979,8.979,8.979,8.979,9.286,9.4793,9.4793,9.4793,9.4793,9.4793,9.4793,9.4793,9.4793,9.4793,9.4793,9.4793,9.4793,9.4793,9.4793,9.4793,9.4793,6.0313,5.911,5.7338,5.2113,5.0279,4.8875,4.5504,4.5258,4.5529,4.4717,4.3904,4.3324,4.3324,4.2526,4.2078,4.2699,4.3969,0.0,0.0,4.5284,4.7124,5.0729,5.6061,5.9853,6.0905,6.8152,7.2245,7.0818,7.8966,8.31,8.0972,8.6254,8.9163,8.8691,9.0965,9.1458,8.9866,9.0662,9.0624,8.979,8.979,8.979,8.979,8.979,8.979,8.979,8.979,8.979,8.979,8.979,8.979,8.979,8.979,8.979,8.979,8.979,8.979,8.979,8.979,8.979,8.979,8.979,8.979,8.979,8.979,8.979,8.979,8.979,8.979,8.979,8.979,8.979,8.979,8.979,8.979,8.979,8.979,8.979,8.979,8.979,8.979,8.979,8.979,8.979,8.979,8.979,8.979,8.979,8.979,8.979,8.979,8.979,8.979,8.979,8.979,9.286,9.4793,9.4793,9.4793,9.4793,9.4793,9.4793,9.4793,9.4793,9.4793,9.4793,9.4793,9.4793,9.4793,9.4793,9.4793,9.4793,6.4231,6.5343,6.5289,6.0616,5.9242,5.7831,5.3204,4.9745,4.727,4.6419,4.6032,4.5645,4.5065,4.4546,4.3936,4.302,4.3014,4.3123,0.0,4.4116,4.5322,4.6448,5.0729,5.4784,5.7863,6.068,6.3458,6.6199,7.078,7.3605,7.3959,8.0602,8.4858,8.5836,8.949,9.1395,9.1458,9.123,9.0965,9.0662,9.0093,8.979,8.979,8.979,8.979,8.979,8.979,8.979,8.979,8.979,8.979,8.979,8.979,8.979,8.979,8.979,8.979,8.979,8.979,8.979,8.979,8.979,8.979,8.979,8.979,8.979,8.979,8.979,8.979,8.979,8.979,8.979,8.979,8.979,8.979,8.979,8.979,8.979,8.979,8.979,8.979,8.979,8.979,8.979,8.979,8.979,8.979,8.979,8.979,8.979,8.979,8.979,8.979,9.07,9.2898,9.4149,9.4793,9.4793,9.4793,9.4793,9.4793,9.4793,9.4793,9.4793,9.4793,9.4793,9.4793,9.4793,9.4793,9.4793,9.4793,9.4793,6.9434,7.0509,7.0339,6.6244,6.5235,6.4054,5.9436,5.5831,5.331,5.2768,5.1654,5.0284,4.8463,4.7534,4.621,4.3816,4.3387,4.3278,0.0,4.389,4.4496,4.4496,4.8438,0.0,0.0,5.5873,5.8239,6.143,6.5035,6.8006,7.0003,7.7232,8.2082,8.3634,8.8369,9.1042,9.142,9.1799,9.1685,9.1079,9.0548,9.0093,8.979,8.979,8.979,8.979,8.979,8.979,8.979,8.979,8.979,8.979,8.979,8.979,8.979,8.979,8.979,8.979,8.979,8.979,8.979,8.979,8.979,8.979,8.979,8.979,8.979,8.979,8.979,8.979,8.979,8.979,8.979,8.979,8.979,8.979,8.979,8.979,8.979,8.979,8.979,8.979,8.979,8.979,8.979,8.979,8.979,8.979,8.979,8.979,8.979,8.979,8.979,9.1155,9.449,9.4793,9.4793,9.4793,9.4793,9.4793,9.4793,9.4793,9.4793,9.4793,9.4793,9.4793,9.4793,9.4793,9.4793,9.4793,9.4793,9.4793]},{"header":{"parameterUnit":"m.s-1","parameterCategory":1,"la1":30.6,"la2":29.2853,"lo1":-89.7004,"lo2":-87.6739,"dx":0.0162,"dy":0.0183,"nx":112,"ny":82,"refTime":"2023-01-01T18:00:00:Z","depth":0,"parameterNumber":3,"parameterNumberName":"V-component_of_WINDS"},"data":[0.0,0.0,0.0,0.0,0.0,0.0,0.0,0.0,0.0,0.0,0.0,0.0,0.0,0.0,0.0,0.0,0.0,0.0,0.0,0.0,0.0,0.0,0.0,0.0,0.0,0.0,0.0,0.0,0.0,0.0,0.0,0.0,0.0,0.0,0.0,0.0,0.0,0.0,0.0,0.0,0.0,0.0,0.0,0.0,0.0,0.0,0.0,0.0,0.0,0.0,0.0,0.0,0.0,0.0,0.0,0.0,0.0,0.0,0.0,0.0,0.0,0.0,0.0,0.0,0.0,0.0,0.0,0.0,0.0,0.0,0.0,0.0,0.0,0.0,0.0,0.0,0.0,0.0,0.0,0.0,0.0,0.0,0.0,0.0,0.0,0.0,0.0,0.0,0.0,0.0,-1.7668,-2.1592,-2.334,-2.4198,-2.4134,-2.3864,-2.2053,-1.8176,0.0,0.0,0.0,0.0,0.0,0.0,0.0,0.0,0.0,0.0,0.0,0.0,0.0,0.0,0.0,0.0,0.0,0.0,0.0,0.0,0.0,0.0,0.0,0.0,0.0,0.0,0.0,0.0,0.0,0.0,0.0,0.0,0.0,0.0,0.0,0.0,0.0,0.0,0.0,0.0,0.0,0.0,0.0,0.0,0.0,0.0,0.0,0.0,0.0,0.0,0.0,0.0,0.0,0.0,0.0,0.0,0.0,0.0,0.0,0.0,0.0,0.0,0.0,0.0,0.0,0.0,0.0,0.0,0.0,0.0,0.0,0.0,0.0,0.0,0.0,0.0,0.0,0.0,0.0,0.0,0.0,0.0,0.0,0.0,0.0,0.0,0.0,0.0,0.0,0.0,0.0,0.0,0.0,0.0,0.0,0.0,0.0,0.0,0.0,0.0,0.0,0.0,0.0,0.0,-1.994,-2.4102,-2.4785,-2.4833,-2.4531,-2.4452,-2.2784,-1.8907,0.0,0.0,0.0,0.0,0.0,0.0,0.0,0.0,0.0,0.0,0.0,0.0,0.0,0.0,0.0,0.0,0.0,0.0,0.0,0.0,0.0,0.0,0.0,0.0,0.0,0.0,0.0,0.0,0.0,0.0,0.0,0.0,0.0,0.0,0.0,0.0,0.0,0.0,0.0,0.0,0.0,0.0,0.0,0.0,0.0,0.0,0.0,0.0,0.0,0.0,0.0,0.0,0.0,0.0,0.0,0.0,0.0,0.0,0.0,0.0,0.0,0.0,0.0,0.0,0.0,0.0,0.0,0.0,0.0,0.0,0.0,0.0,0.0,0.0,0.0,0.0,0.0,0.0,0.0,0.0,0.0,0.0,0.0,0.0,0.0,0.0,0.0,0.0,0.0,0.0,0.0,0.0,0.0,0.0,0.0,0.0,0.0,0.0,0.0,0.0,0.0,0.0,0.0,-1.959,-2.2911,-2.5405,-2.5342,-2.504,-2.4881,-2.469,-2.2942,-1.9066,-1.7699,0.0,0.0,0.0,0.0,0.0,0.0,0.0,0.0,0.0,0.0,0.0,0.0,0.0,0.0,0.0,0.0,0.0,0.0,0.0,0.0,0.0,0.0,0.0,0.0,0.0,0.0,0.0,0.0,0.0,0.0,0.0,0.0,0.0,0.0,0.0,0.0,0.0,0.0,0.0,0.0,0.0,0.0,0.0,0.0,0.0,0.0,0.0,0.0,0.0,0.0,0.0,0.0,0.0,0.0,0.0,0.0,0.0,0.0,0.0,0.0,0.0,0.0,0.0,0.0,0.0,0.0,0.0,0.0,0.0,0.0,0.0,0.0,0.0,0.0,0.0,0.0,0.0,0.0,0.0,0.0,0.0,0.0,0.0,0.0,0.0,0.0,0.0,0.0,0.0,0.0,0.0,0.0,0.0,0.0,0.0,0.0,0.0,0.0,0.0,0.0,0.0,0.0,-2.2259,-2.4706,-2.6009,-2.5516,-2.5151,-2.523,-2.4913,-2.3101,-1.9304,-1.8097,0.0,0.0,0.0,0.0,0.0,0.0,0.0,0.0,0.0,0.0,0.0,0.0,0.0,0.0,0.0,0.0,0.0,0.0,0.0,0.0,0.0,0.0,0.0,0.0,0.0,0.0,0.0,0.0,0.0,0.0,0.0,0.0,0.0,0.0,0.0,0.0,0.0,0.0,0.0,0.0,0.0,0.0,0.0,0.0,0.0,0.0,0.0,0.0,0.0,0.0,0.0,0.0,0.0,0.0,0.0,0.0,0.0,0.0,0.0,0.0,0.0,0.0,0.0,0.0,0.0,0.0,0.0,0.0,0.0,0.0,0.0,0.0,0.0,0.0,0.0,0.0,0.0,0.0,0.0,0.0,0.0,0.0,0.0,0.0,0.0,0.0,0.0,0.0,0.0,0.0,0.0,0.0,0.0,0.0,0.0,0.0,0.0,0.0,0.0,0.0,0.0,0.0,-2.1767,-2.3896,-2.5929,-2.5516,-2.5246,-2.558,-2.5278,-2.3562,-2.0019,-1.8812,0.0,0.0,0.0,0.0,0.0,0.0,0.0,0.0,0.0,0.0,0.0,0.0,0.0,0.0,0.0,0.0,0.0,0.0,0.0,0.0,0.0,0.0,0.0,0.0,0.0,0.0,0.0,0.0,0.0,0.0,0.0,0.0,0.0,0.0,0.0,0.0,0.0,0.0,0.0,0.0,0.0,0.0,0.0,0.0,0.0,0.0,0.0,0.0,0.0,0.0,0.0,0.0,0.0,0.0,0.0,0.0,0.0,0.0,0.0,0.0,0.0,0.0,0.0,0.0,0.0,0.0,0.0,0.0,0.0,0.0,0.0,0.0,0.0,0.0,0.0,0.0,0.0,0.0,0.0,0.0,0.0,0.0,0.0,0.0,0.0,0.0,0.0,0.0,0.0,0.0,0.0,0.0,0.0,0.0,0.0,0.0,0.0,0.0,0.0,0.0,0.0,0.0,-2.2609,-2.496,-2.6628,-2.5993,-2.5675,-2.6231,-2.5961,-2.4166,-2.0432,0.0,0.0,0.0,0.0,0.0,0.0,0.0,0.0,0.0,0.0,0.0,0.0,0.0,0.0,0.0,0.0,0.0,0.0,0.0,0.0,0.0,0.0,0.0,0.0,0.0,0.0,0.0,0.0,0.0,0.0,0.0,0.0,0.0,0.0,0.0,0.0,0.0,0.0,0.0,0.0,0.0,0.0,0.0,0.0,0.0,0.0,0.0,0.0,0.0,0.0,0.0,0.0,0.0,0.0,0.0,0.0,0.0,0.0,0.0,0.0,0.0,0.0,0.0,0.0,0.0,0.0,0.0,0.0,0.0,0.0,0.0,0.0,0.0,0.0,0.0,0.0,0.0,0.0,0.0,0.0,0.0,0.0,0.0,0.0,0.0,0.0,0.0,0.0,0.0,0.0,0.0,0.0,0.0,0.0,0.0,0.0,0.0,0.0,0.0,0.0,0.0,0.0,-2.0416,-2.3514,-2.6057,-2.7248,-2.6422,-2.6088,-2.6787,-2.6406,-2.4547,-2.0798,0.0,0.0,0.0,0.0,0.0,0.0,0.0,0.0,0.0,0.0,0.0,0.0,0.0,0.0,0.0,0.0,0.0,0.0,0.0,0.0,0.0,0.0,0.0,0.0,0.0,0.0,0.0,0.0,0.0,0.0,0.0,0.0,0.0,0.0,0.0,0.0,0.0,0.0,0.0,0.0,0.0,0.0,0.0,0.0,0.0,0.0,0.0,0.0,0.0,0.0,0.0,0.0,0.0,0.0,0.0,0.0,0.0,0.0,0.0,0.0,0.0,0.0,0.0,0.0,0.0,0.0,0.0,0.0,0.0,0.0,0.0,0.0,0.0,0.0,0.0,0.0,0.0,0.0,0.0,0.0,0.0,0.0,0.0,0.0,0.0,0.0,0.0,0.0,0.0,0.0,0.0,0.0,0.0,0.0,0.0,0.0,0.0,0.0,0.0,0.0,0.0,0.0,-2.0845,-2.4293,-2.6946,-2.7661,-2.6787,-2.6438,-2.7153,-2.6565,-2.4658,0.0,0.0,0.0,0.0,0.0,0.0,0.0,0.0,0.0,0.0,0.0,0.0,0.0,0.0,0.0,0.0,0.0,0.0,0.0,0.0,0.0,0.0,0.0,0.0,0.0,0.0,0.0,0.0,0.0,0.0,0.0,0.0,0.0,0.0,0.0,0.0,0.0,0.0,0.0,0.0,0.0,0.0,0.0,0.0,0.0,0.0,0.0,0.0,0.0,0.0,0.0,0.0,0.0,0.0,0.0,0.0,0.0,0.0,0.0,0.0,0.0,0.0,0.0,0.0,0.0,0.0,0.0,0.0,0.0,0.0,0.0,0.0,0.0,0.0,0.0,0.0,0.0,0.0,0.0,0.0,0.0,0.0,0.0,0.0,0.0,0.0,0.0,0.0,0.0,0.0,0.0,0.0,0.0,0.0,0.0,0.0,0.0,0.0,0.0,0.0,0.0,0.0,0.0,-2.1179,-2.4436,-2.6946,-2.7661,-2.701,-2.6803,-2.7518,-2.7153,-2.5389,-2.1878,0.0,0.0,0.0,0.0,0.0,0.0,0.0,0.0,0.0,0.0,0.0,0.0,0.0,0.0,0.0,0.0,0.0,0.0,0.0,0.0,0.0,0.0,0.0,0.0,0.0,0.0,0.0,0.0,0.0,0.0,0.0,0.0,0.0,0.0,0.0,0.0,0.0,0.0,0.0,0.0,0.0,0.0,0.0,0.0,0.0,0.0,0.0,0.0,0.0,0.0,0.0,0.0,0.0,0.0,0.0,0.0,0.0,0.0,0.0,0.0,0.0,0.0,0.0,0.0,0.0,0.0,0.0,0.0,0.0,0.0,0.0,0.0,0.0,0.0,0.0,0.0,0.0,0.0,0.0,0.0,0.0,0.0,0.0,0.0,0.0,0.0,0.0,0.0,0.0,0.0,0.0,0.0,0.0,0.0,0.0,0.0,0.0,0.0,0.0,0.0,0.0,0.0,-2.1544,-2.496,-2.7518,-2.809,-2.7629,-2.7518,-2.809,-2.782,-2.6358,-2.3403,0.0,0.0,0.0,0.0,0.0,0.0,0.0,0.0,0.0,0.0,0.0,0.0,0.0,0.0,0.0,0.0,0.0,0.0,0.0,0.0,0.0,0.0,0.0,0.0,0.0,0.0,0.0,0.0,0.0,0.0,0.0,0.0,0.0,0.0,0.0,0.0,0.0,0.0,0.0,0.0,0.0,0.0,0.0,0.0,0.0,0.0,0.0,0.0,0.0,0.0,0.0,0.0,0.0,0.0,0.0,0.0,0.0,0.0,0.0,0.0,0.0,0.0,0.0,0.0,0.0,0.0,0.0,0.0,0.0,0.0,0.0,0.0,0.0,0.0,0.0,0.0,0.0,0.0,0.0,0.0,0.0,0.0,0.0,0.0,0.0,0.0,0.0,0.0,0.0,0.0,0.0,0.0,0.0,0.0,0.0,0.0,0.0,0.0,0.0,0.0,0.0,0.0,-2.1957,-2.5675,-2.8376,-2.8773,-2.8456,-2.8392,-2.8789,-2.8456,-2.7359,-2.5326,0.0,0.0,0.0,0.0,0.0,0.0,0.0,0.0,0.0,0.0,0.0,0.0,0.0,0.0,0.0,0.0,0.0,0.0,0.0,0.0,0.0,0.0,0.0,0.0,0.0,0.0,0.0,0.0,0.0,0.0,0.0,0.0,0.0,0.0,0.0,0.0,0.0,0.0,0.0,0.0,0.0,0.0,0.0,0.0,0.0,0.0,0.0,0.0,0.0,0.0,0.0,0.0,0.0,0.0,0.0,0.0,0.0,0.0,0.0,0.0,-1.126,-0.9117,0.0,0.0,0.0,0.0,0.0,0.0,0.0,0.0,0.0,0.0,0.0,0.0,0.0,0.0,0.0,0.0,0.0,0.0,0.0,0.0,0.0,0.0,0.0,0.0,0.0,0.0,0.0,0.0,0.0,0.0,0.0,0.0,0.0,0.0,0.0,0.0,0.0,0.0,0.0,0.0,-2.2672,-2.5977,-2.8471,-2.9107,-2.8614,-2.8487,-2.9123,-2.8599,-2.7566,-2.6025,-2.4992,0.0,0.0,0.0,0.0,0.0,0.0,0.0,0.0,0.0,0.0,0.0,0.0,0.0,0.0,0.0,0.0,0.0,0.0,0.0,0.0,0.0,0.0,0.0,0.0,0.0,0.0,0.0,0.0,0.0,0.0,0.0,0.0,0.0,0.0,0.0,0.0,0.0,0.0,0.0,0.0,0.0,0.0,0.0,0.0,0.0,0.0,0.0,0.0,0.0,0.0,0.0,0.0,0.0,0.0,0.0,0.0,0.0,0.0,0.0,-1.2164,-1.0919,0.0,0.0,0.0,0.0,0.0,0.0,0.0,0.0,0.0,0.0,0.0,0.0,0.0,0.0,0.0,0.0,0.0,0.0,0.0,0.0,0.0,0.0,0.0,0.0,0.0,0.0,0.0,0.0,0.0,0.0,0.0,0.0,0.0,0.0,0.0,0.0,0.0,0.0,0.0,0.0,-2.3648,-2.6985,-2.9488,-3.0034,-2.9905,-2.9824,-2.9758,-2.9585,-2.9099,-2.7963,-2.5919,0.0,0.0,0.0,0.0,0.0,0.0,0.0,0.0,0.0,0.0,0.0,0.0,0.0,0.0,0.0,0.0,0.0,0.0,0.0,0.0,0.0,0.0,0.0,0.0,0.0,0.0,0.0,0.0,0.0,0.0,0.0,0.0,0.0,0.0,0.0,0.0,0.0,0.0,0.0,0.0,0.0,0.0,0.0,0.0,0.0,0.0,0.0,0.0,0.0,0.0,0.0,0.0,0.0,-1.4756,-1.4594,-1.3952,-1.3429,-1.2892,-1.2388,-1.3774,-1.3423,-1.1782,-1.1072,0.0,0.0,0.0,0.0,0.0,0.0,0.0,0.0,0.0,0.0,0.0,0.0,0.0,0.0,0.0,0.0,0.0,0.0,0.0,0.0,0.0,0.0,-1.9539,-2.116,-2.147,-2.1513,-2.1941,0.0,0.0,0.0,0.0,0.0,0.0,0.0,0.0,0.0,0.0,0.0,-2.4756,-2.8105,-3.0485,-3.1005,-3.1269,-3.1104,-3.041,-3.0681,-3.0486,-2.9461,-2.6725,-2.4569,0.0,0.0,0.0,0.0,0.0,0.0,0.0,0.0,0.0,0.0,0.0,0.0,0.0,0.0,0.0,0.0,0.0,0.0,0.0,0.0,0.0,0.0,0.0,0.0,0.0,0.0,0.0,0.0,0.0,0.0,0.0,0.0,-0.9768,-1.0778,0.0,0.0,0.0,0.0,0.0,0.0,0.0,0.0,0.0,0.0,0.0,0.0,0.0,-1.4812,-1.4827,-1.6391,-1.6453,-1.5146,-1.5707,-1.5621,-1.5017,-1.4147,-1.3825,-1.4077,-1.3527,0.0,-1.1784,-1.1971,0.0,0.0,0.0,0.0,0.0,0.0,0.0,0.0,0.0,0.0,0.0,0.0,0.0,0.0,0.0,0.0,0.0,0.0,0.0,0.0,0.0,0.0,-2.4899,-2.6004,-2.5876,-2.5977,-2.8122,-2.334,-1.8891,-1.9812,-1.9271,-1.853,0.0,0.0,0.0,0.0,0.0,0.0,-2.5278,-2.8333,-3.0543,-3.091,-3.0655,-3.0591,-3.0759,-3.0607,-2.979,-2.8147,-2.8015,-2.6344,-2.2576,-2.31,0.0,0.0,0.0,0.0,0.0,0.0,0.0,0.0,0.0,0.0,0.0,0.0,0.0,0.0,0.0,0.0,0.0,0.0,0.0,0.0,0.0,0.0,0.0,0.0,0.0,0.0,0.0,0.0,0.0,-0.9264,-1.0207,-1.1262,-1.1346,-1.1172,0.0,0.0,0.0,0.0,0.0,0.0,0.0,0.0,0.0,-1.4719,-1.5289,-1.5702,-1.5948,-1.7044,-1.7421,-1.6902,-1.6915,-1.6625,-1.6118,-1.5594,-1.5233,-1.4922,-1.4244,-1.3782,-1.3384,-1.2832,-1.2385,-1.1987,0.0,0.0,0.0,0.0,-1.0517,-1.0729,-1.081,-1.1545,-1.2395,-1.2259,0.0,0.0,0.0,0.0,0.0,0.0,0.0,-2.0315,-2.202,-2.3992,-2.5916,-2.7679,-2.7783,-2.7915,-2.8996,-2.6231,-2.3546,-2.361,-2.2576,-2.1219,-1.9971,-2.1338,0.0,0.0,0.0,-2.6729,-2.736,-2.9486,-3.1211,-3.1717,-3.1906,-3.1874,-3.1902,-3.1877,-3.1146,-2.9198,-2.8081,-2.6238,-2.34,-2.2999,-2.1685,0.0,0.0,0.0,0.0,0.0,0.0,0.0,0.0,0.0,0.0,0.0,0.0,0.0,0.0,0.0,0.0,0.0,0.0,0.0,0.0,0.0,0.0,0.0,0.0,0.0,0.0,0.0,0.0,-1.0444,-1.1187,-1.2134,-1.2414,-1.2318,0.0,0.0,0.0,0.0,0.0,0.0,-1.4697,-1.4342,-1.4579,-1.5591,-1.6194,-1.6667,-1.7033,-1.7642,-1.8093,-1.8156,-1.7739,-1.7351,-1.6873,-1.6694,-1.6355,-1.5754,-1.5404,-1.5151,-1.4916,-1.3833,-1.3374,-1.3206,-1.3029,-1.2578,-1.1971,-1.1792,-1.1921,-1.2255,-1.2247,-1.2824,-1.3539,-1.3319,-1.3124,-1.2881,-1.2512,0.0,0.0,0.0,0.0,-2.1614,-2.4058,-2.5413,-2.6542,-2.8442,-2.9154,-2.9329,-2.9425,-2.8471,-2.7471,-2.7042,-2.5691,-2.4166,-2.2768,-2.421,0.0,-2.3598,-2.6231,-2.8503,-2.8915,-3.0503,-3.1853,-3.2419,-3.274,-3.274,-3.1977,-3.234,-3.1365,-2.8983,-2.7144,-2.5423,-2.372,-2.2531,-2.1367,-2.0215,0.0,0.0,0.0,0.0,0.0,0.0,0.0,0.0,0.0,0.0,0.0,0.0,0.0,0.0,0.0,0.0,0.0,0.0,0.0,0.0,0.0,0.0,0.0,0.0,0.0,0.0,0.0,0.0,0.0,-1.3599,-1.4902,0.0,0.0,0.0,0.0,-1.4105,-1.4126,-1.4762,-1.6129,-1.5968,-1.6667,-1.8509,-1.8186,-1.8315,-1.9004,-1.8864,-1.8454,-1.7945,-1.7956,-1.7699,-1.7077,-1.7064,-1.7105,-1.6974,-1.6599,-1.6147,-1.5802,-1.5201,-1.4499,-1.3595,-1.3821,-1.3403,-1.2499,-1.1649,-1.225,-1.3547,-1.3375,-1.4107,-1.4895,-1.5049,-1.4643,-1.408,-1.3587,-1.3935,0.0,0.0,-1.9543,-2.1521,-2.3984,-2.6241,-2.8221,-2.8927,-3.0004,-3.0855,-3.1188,-2.9901,-2.8773,-2.9075,-2.8265,-2.7391,-2.6962,0.0,-2.8008,-2.6117,-2.7846,-2.9271,-2.9163,-3.0859,-3.1977,-3.1993,-3.2452,-3.1977,-3.0408,-3.0238,-2.8827,-2.5568,-2.5225,-2.4306,-2.2337,-2.1817,-2.1889,-2.2571,-1.9442,0.0,0.0,0.0,0.0,0.0,0.0,0.0,0.0,0.0,0.0,0.0,0.0,0.0,0.0,0.0,0.0,0.0,0.0,0.0,0.0,0.0,0.0,0.0,0.0,0.0,0.0,0.0,0.0,-1.4504,-1.5243,0.0,-1.5495,-1.5655,-1.5731,-1.5569,-1.6409,-1.7141,-1.7647,-1.7593,-1.7927,-1.8756,-1.8627,-1.8735,-1.9144,-1.9359,-1.9436,-1.9369,-1.9375,-1.909,-1.8876,-1.8251,-1.7832,-1.7554,-1.6889,-1.6457,-1.6345,-1.5629,-1.5064,-1.4517,-1.4255,-1.416,-1.4144,-1.3769,-1.4396,-1.5295,-1.4966,-1.5333,-1.6085,-1.6034,-1.5992,-1.5859,-1.6831,-1.7156,-1.7915,-2.0432,-2.1425,-2.2452,-2.5636,-2.671,-2.7494,-2.9607,-3.0284,-3.0669,-3.1494,-3.0283,-2.9396,-3.1035,-2.9536,-2.7947,-2.7598,-2.9151,-2.9984,-2.8413,-3.0091,-3.1416,-3.1361,-3.1944,-3.243,-3.2657,-3.2846,-3.2673,-3.2517,-3.1386,-2.9789,-2.7391,-2.5924,-2.4353,-2.267,-2.2028,-2.1896,-2.1923,-2.0417,-1.867,0.0,0.0,0.0,0.0,0.0,0.0,0.0,0.0,0.0,0.0,0.0,0.0,0.0,0.0,0.0,0.0,0.0,0.0,0.0,0.0,0.0,0.0,0.0,0.0,0.0,-1.3247,-1.4473,-1.5164,-1.5785,-1.6284,-1.6453,-1.6783,-1.7066,-1.7141,-1.8099,-1.8681,-1.8681,-1.8681,-1.8821,-1.9133,-1.9144,-1.9295,-1.9618,-1.993,-2.0167,-2.0328,-2.0178,-2.0252,-2.0106,-1.9543,-1.8966,-1.8485,-1.7796,-1.7476,-1.7196,-1.6384,-1.5897,-1.5329,-1.5154,-1.5114,-1.5074,-1.4963,-1.5512,-1.6233,-1.6123,-1.6317,-1.679,-1.6827,-1.6951,-1.71,-1.8198,-1.8513,-1.9025,-2.0727,-2.1578,-2.2567,-2.5924,-2.6996,-2.7547,-2.8834,-2.9365,-2.9799,-3.0755,-2.9561,-2.9242,-3.1936,-3.0505,-2.8738,-2.8727,-3.0226,-3.1005,-2.9567,-3.0665,-3.1661,-3.1453,-3.1944,-3.2406,-3.2651,-3.3322,-3.3536,-3.3378,-3.1905,-3.0091,-2.8015,-2.595,-2.4226,-2.3058,-2.2173,-2.1475,-2.1458,-2.0583,-1.8955,-1.6933,0.0,0.0,0.0,0.0,0.0,0.0,0.0,0.0,0.0,0.0,0.0,0.0,0.0,0.0,0.0,0.0,0.0,0.0,0.0,0.0,0.0,0.0,0.0,-1.2553,-1.4478,-1.5634,-1.5666,-1.6689,-1.7486,-1.7723,-1.8175,-1.8541,-1.8767,-1.9015,-1.9165,-1.9165,-1.9155,-1.9359,-1.9822,-1.9833,-2.0059,-2.0533,-2.0565,-2.0576,-2.0587,-2.0587,-2.0587,-2.0597,-2.0686,-2.0441,-1.9864,-1.9664,-1.9213,-1.872,-1.7837,-1.6888,-1.6155,-1.6587,-1.6154,-1.5063,-1.5042,-1.5721,-1.6751,-1.6923,-1.7173,-1.7363,-1.7372,-1.7381,-1.739,-1.7381,-1.7563,-1.7891,-1.8569,-1.9885,-2.1741,-2.4578,-2.6958,-2.8331,-2.6294,-2.7065,-2.8534,-2.8853,-2.8275,-2.8555,-3.1762,-3.1051,-3.0136,-3.0877,-3.1221,-3.1017,-2.9713,-2.9697,0.0,-2.9441,-3.1039,-3.2142,-3.2175,-3.3872,-3.4183,-3.2618,-3.1304,-2.9419,-2.6698,-2.5168,-2.3976,-2.3321,-2.1816,-2.1042,-2.1482,-1.9793,-1.8942,-1.8884,0.0,0.0,0.0,0.0,0.0,0.0,0.0,0.0,0.0,0.0,0.0,0.0,0.0,0.0,0.0,0.0,0.0,0.0,0.0,0.0,0.0,-1.0863,-1.2416,-1.4055,-1.4718,-1.5566,-1.6795,-1.7872,-1.855,-1.8622,-1.8649,-1.8713,-1.8778,-1.9165,-1.9402,-1.9402,-1.9241,-1.9284,-1.9585,-1.9596,-1.9736,-2.0037,-2.0554,-2.0899,-2.1082,-2.1082,-2.1242,-2.1563,-2.0835,-2.0268,-1.9923,-1.9212,-1.8806,-1.8683,-1.9023,-1.8969,-1.8402,-1.821,-1.8035,-1.7656,-1.7693,-1.79,-1.8054,-1.8154,-1.8305,-1.8374,-1.8339,-1.8385,-1.8238,-1.7513,-1.738,-1.7724,-1.856,-1.9117,-1.9658,-2.1055,-2.3596,-2.5803,-2.5022,-2.4656,-2.5236,-2.7907,-2.7799,-2.7962,-3.0258,-2.9957,-2.9847,-3.1622,-3.2504,-3.29,-3.2452,-3.159,-3.1606,-3.2954,-3.2216,-3.2189,-3.396,-3.3484,-3.2809,-3.213,-2.9382,-2.7042,-2.5781,-2.4135,-2.3112,-2.3336,-2.281,-2.2377,-2.205,-2.0212,-1.9319,0.0,0.0,0.0,0.0,0.0,0.0,0.0,0.0,0.0,0.0,0.0,0.0,0.0,0.0,0.0,0.0,0.0,0.0,0.0,0.0,0.0,0.0,-1.3003,-1.4576,-1.4493,-1.5014,-1.5932,-1.7381,-1.8226,-1.886,-1.9118,-1.8997,-1.9015,-1.9219,-1.9585,-1.9844,-1.9941,-1.9908,-1.9811,-1.965,-2.0037,-2.0167,-2.0005,-2.0705,-2.1136,-2.1276,-2.1373,-2.1579,-2.1752,-2.1392,-2.06,-1.9493,-1.925,-1.88,-1.8622,-1.9351,-1.9692,-1.9485,0.0,0.0,0.0,0.0,-1.8081,-1.7321,-1.8341,-1.8971,-1.9132,-1.9247,-1.9117,-1.9146,-1.8557,-1.8244,-1.8394,-1.9094,-1.8961,-1.8837,-1.9309,-2.1305,-2.3134,-2.2598,-2.2381,-2.301,-2.5576,-2.562,-2.5799,-2.8332,-2.8144,0.0,-3.1242,-3.1803,-3.2122,-3.2649,-3.1179,-3.0953,-3.2986,-3.1965,-3.1571,-3.2844,-3.2725,-3.1976,-3.0918,-2.844,0.0,0.0,0.0,-2.3067,-2.2572,-2.2609,0.0,0.0,0.0,-2.007,-2.0242,-1.8505,0.0,0.0,-1.6738,-1.6032,0.0,0.0,0.0,0.0,0.0,0.0,0.0,0.0,0.0,0.0,0.0,0.0,0.0,0.0,0.0,0.0,-1.5069,-1.6095,-1.4778,-1.5505,-1.6419,-1.7127,-1.8057,-1.8812,-1.9289,-1.9252,-1.9445,-1.9854,-2.0134,-2.0382,-2.0587,-2.0748,0.0,0.0,0.0,-2.0867,-2.0264,-2.0963,-2.133,-2.1362,-2.1556,-2.1663,-2.1663,-2.2277,-2.1355,-1.9292,-1.9227,-1.8866,-1.8309,-1.9034,-1.9448,-1.9788,-1.9156,-1.8772,-1.8762,-1.8866,-1.7457,-1.5739,-1.7971,0.0,0.0,-1.9861,-1.9881,-1.99,-1.9949,-1.9747,-1.9479,-1.9855,-1.9364,-1.861,-1.8541,-1.9903,-2.0918,-2.0249,-2.0735,-2.1615,-2.3086,-2.2884,-2.3281,-2.6105,-2.6061,-2.6414,-2.9426,-2.9912,-3.0319,-3.1512,-2.9925,-2.9398,-3.1605,-3.1189,-3.0587,-3.0661,-3.1768,0.0,-2.9284,-2.8044,-2.6888,-2.5738,-2.483,-2.3468,-2.1825,-2.219,-2.1774,-2.0554,-2.0834,-2.114,-2.1437,-2.1211,-2.1381,-2.18,-1.9106,-1.8122,0.0,0.0,0.0,0.0,0.0,0.0,0.0,0.0,0.0,0.0,0.0,0.0,0.0,0.0,0.0,-1.3738,-1.4164,-1.5503,-1.8291,-1.6642,-1.5084,-1.4728,-1.7529,-1.9558,-1.9402,-1.979,-2.0048,-2.0134,-2.0533,-2.0791,-2.0834,-2.0522,-2.0285,-2.0145,-2.0328,-2.0447,-2.05,-2.12,-2.1642,-2.1836,-2.1879,0.0,-2.2422,-2.2332,-2.1787,-2.065,-1.8488,-1.752,-1.7477,-1.8104,-1.8592,-1.9287,-1.9467,-1.9673,-1.9596,-1.9627,-1.9406,-1.9044,-1.9578,-1.9396,-1.8968,-1.9306,-1.9723,-1.9971,-1.994,-2.0143,0.0,-2.0832,-1.9572,-1.8113,-1.82,-1.9397,-2.0618,-2.0862,-2.087,-2.1324,-2.3392,-2.372,-2.4046,-2.489,-2.501,-2.5079,-2.4764,-2.8486,-3.199,-3.3588,-3.2555,-3.2199,-3.415,-3.2889,-3.2131,-3.2646,-3.169,-3.0057,-2.7661,-2.6044,-2.4842,-2.3897,-2.382,-2.36,-2.3063,-2.3235,-2.3074,-2.2514,-2.2503,-2.2471,-2.2406,-2.2363,-2.2439,-2.2428,-2.1316,-2.062,0.0,0.0,0.0,0.0,0.0,0.0,0.0,0.0,0.0,0.0,0.0,-1.1846,-1.3558,0.0,-1.2648,-1.3775,-1.5405,-1.6639,-1.7036,-1.7365,-1.7253,-1.6885,-1.794,-1.8849,-1.952,-2.0013,-2.0436,-2.0544,-2.077,-2.0963,-2.1082,-2.0877,-2.064,-2.0393,-2.0727,-2.0856,-2.0737,-2.1437,-2.1846,-2.1965,-2.2094,-2.2327,-2.2507,-2.2468,-2.1734,-2.0633,-1.9296,-1.8164,-1.7394,-1.7865,-1.8449,-1.8973,-1.9314,-1.9287,-1.9256,-1.942,-1.9533,-1.9405,-1.9381,-1.9321,-1.9214,-1.9489,-1.9887,-2.0119,-2.013,-2.0343,-2.0656,-2.084,-2.024,-1.9467,-1.9029,-1.9751,-2.0676,-2.0598,-2.0419,-2.0711,-2.1842,-2.2152,-2.2443,-2.2538,-2.2957,-2.3306,-2.2968,-2.5476,-2.8569,-3.167,-3.0636,-3.0164,-3.2076,-3.0733,-2.9513,-2.9806,-2.9179,-2.7708,-2.5496,-2.4425,-2.3709,-2.3375,-2.3504,-2.3515,-2.3408,-2.3741,-2.3763,-2.3408,-2.3634,-2.3644,-2.3397,-2.3397,-2.3397,-2.3397,-2.2973,-2.2263,0.0,0.0,0.0,0.0,0.0,0.0,0.0,-0.7733,-0.9453,-1.28,-1.3164,-1.3289,-1.3995,-1.2551,-1.1946,-1.3703,-1.63,-1.741,-1.5078,-1.7399,-1.9506,-1.9856,-1.8803,-1.8469,-1.9934,-2.0323,-2.0537,-2.0718,-2.0942,-2.1082,-2.133,-2.134,-2.119,-2.0845,-2.1394,-2.1523,-2.119,-2.1749,-2.2062,-2.2116,-2.2352,-2.2449,-2.2417,-2.2697,-2.2029,-2.04,-2.0084,-1.9124,-1.764,-1.8149,-1.8501,-1.8673,-1.881,-1.8609,-1.8182,-1.8725,-1.8947,-1.8938,-1.874,-1.8963,-1.9321,-1.95,-1.9688,-2.0064,-2.029,-2.0324,-2.0441,-2.0485,-2.0705,-2.0796,-2.0071,-2.0226,-2.0568,-2.0181,-2.0223,-2.0393,-2.0346,-2.0478,-2.0648,-2.0809,-2.1279,-2.1896,-2.2668,-2.2902,-2.4558,-2.9039,-2.822,-2.7837,-2.9561,-2.8182,-2.7035,-2.6725,-2.6737,-2.5959,-2.3857,-2.3666,-2.3666,-2.3666,-2.3666,-2.3666,-2.3666,-2.4226,-2.4345,-2.4139,-2.4475,-2.4551,-2.4367,-2.414,-2.414,-2.4172,-2.3935,-2.3304,-1.0178,-0.9999,-1.0512,-1.1971,-1.2775,-1.3111,0.0,-1.2456,-1.29,-1.5375,-1.475,-1.3966,-1.4701,-1.4113,-1.3719,-1.4214,-1.4618,-1.5223,-1.6211,-1.6926,-1.8074,-1.9992,-1.9849,-1.978,-2.05,-2.0906,-2.1047,-2.0899,-2.1103,-2.134,-2.1566,-2.1577,-2.1653,-2.1803,-2.1889,-2.2008,-2.2169,-2.2256,-2.2395,-2.26,-2.2848,-2.2858,-2.2665,-2.3117,-2.2683,-2.1283,-1.9876,-1.8527,-1.7624,-1.8007,-1.7948,-1.7583,-1.7773,-1.768,-1.7304,-1.7814,-1.8487,-1.8882,-1.8006,-1.7822,-1.7805,-1.819,-1.8207,-1.8594,-1.9878,-2.0055,-1.9664,-2.0177,-2.0242,-2.0247,-2.0257,-2.0261,-2.045,-2.0469,-2.0781,-2.1007,-2.0818,-2.079,-2.0818,-2.1039,-2.114,-2.1582,-2.295,-2.2913,-2.4101,-2.8665,-2.913,-2.908,-2.9322,-2.9468,-2.8822,-2.7451,-2.7292,-2.6456,-2.4812,-2.4646,-2.4646,-2.4646,-2.4646,-2.4646,-2.4646,-2.5075,-2.5473,-2.5439,-2.5284,-2.5195,-2.5162,-2.4399,-2.4226,-2.442,-2.4183,-2.3914,-1.0444,-1.0149,-1.0515,-1.1649,-1.2478,-1.3086,-1.2656,-1.3348,-1.4214,-1.4697,-1.5087,-1.5005,-1.4466,-1.4258,-1.4221,-1.4227,-1.4508,-1.5087,-1.6277,-1.7005,-1.8048,-1.9813,-1.9822,-1.959,-1.9643,-2.0727,-2.1007,-2.0558,-2.1179,-2.1577,-2.1814,-2.1836,-2.1943,-2.2169,-2.218,-2.2363,-2.2751,-2.2751,-2.2869,-2.3106,-2.3203,-2.3203,-2.3106,-2.2768,-2.1621,-2.0213,-1.8854,-1.8168,-1.7786,-1.7788,-1.7714,-1.7526,-1.7632,-1.7542,-1.7283,-1.7517,-1.7856,-1.7983,-1.7728,-1.7753,-1.811,-1.8127,-1.8662,-1.9213,-1.9848,-1.9876,-1.9706,-1.9968,-1.9834,-1.9644,-1.9536,-1.9662,-1.9961,-2.0023,-2.0305,-2.0435,-2.0655,-2.0837,-2.0885,-2.1201,-2.1363,-2.176,-2.2974,-2.2803,-2.3395,-2.6074,-2.6133,-2.6191,-2.6529,-2.673,-2.6561,-2.5933,-2.5904,-2.585,-2.5012,-2.5141,-2.5163,-2.5033,-2.5023,-2.4958,-2.4807,-2.5137,-2.5403,-2.5403,-2.5436,-2.5458,-2.5458,-2.498,-2.498,-2.5066,-2.4689,-2.4463,-1.0636,-1.0134,-1.0308,-1.1812,-1.3047,-1.3726,-1.3385,-1.4323,-1.51,-1.4835,-1.5487,-1.5915,-1.4701,-1.4361,-1.4322,-1.4334,-1.4804,-1.5268,-1.588,-1.6943,-1.7927,-1.8513,-1.9202,-1.9453,-1.8874,-2.0114,-2.1007,-2.0697,-2.1383,-2.1814,-2.2051,-2.2083,-2.2223,-2.2525,-2.2535,-2.2729,-2.3138,-2.3149,-2.3203,-2.33,-2.3365,-2.3332,-2.3203,-2.2559,-2.1272,-1.9652,-1.8932,-1.8417,-1.79,-1.7664,-1.7599,-1.7632,-1.7534,-1.7421,-1.7307,-1.7307,-1.7315,-1.7509,-1.7453,-1.7861,-1.8228,-1.804,-1.8578,-1.9115,-1.9348,-1.9366,-1.9375,-1.9608,-1.9364,-1.9261,-1.9121,-1.9244,-1.9541,-1.9572,-1.9798,-1.9915,-2.0428,-2.0548,-2.0881,-2.1273,-2.1565,-2.1916,-2.2654,-2.2606,-2.2858,-2.4013,-2.393,-2.3831,-2.4581,-2.4764,-2.4904,-2.4904,-2.513,-2.527,-2.527,-2.5421,-2.5475,-2.5378,-2.5367,-2.5313,-2.5206,-2.5506,-2.5528,-2.5462,-2.5495,-2.5484,-2.5419,-2.5227,-2.526,-2.5313,-2.4969,-2.484,-1.1072,-1.0576,-1.074,-1.3961,-1.5418,-1.6275,-1.7021,-1.6649,-1.626,-1.6583,-1.6377,-1.6121,-1.6102,-1.4923,-1.4213,-1.4859,-1.5026,-1.5,-1.5039,-1.6457,-1.6942,-1.5744,-1.8358,-1.9679,-1.8333,-1.9446,-2.0686,-2.1545,-2.1814,-2.2062,-2.2309,-2.232,-2.2535,-2.3009,-2.3031,-2.3138,-2.3386,-2.3386,-2.3278,-2.3063,-2.3289,-2.316,-2.2708,-2.2955,-2.2121,-2.0526,-2.0346,-1.9381,-1.7892,-1.7543,-1.7494,-1.7607,-1.7258,-1.712,-1.712,-1.712,-1.7471,-1.7655,-1.7304,-1.748,-1.7664,-1.7304,-1.7128,-1.7337,-1.7865,-1.8101,-1.8314,-1.8853,-1.9094,-1.9094,-1.8914,-1.9244,-1.9393,-1.9384,-1.9666,-1.9938,-1.9947,-2.0246,-2.0756,-2.153,-2.174,-2.213,-2.2314,-2.2603,-2.3096,-2.3701,-2.3681,-2.3826,-2.4693,-2.5012,-2.5163,-2.5163,-2.5367,-2.5507,-2.5507,-2.5518,-2.5615,-2.583,-2.5852,-2.5949,-2.6185,-2.6562,-2.6527,-2.6294,-2.5828,-2.5473,-2.524,-2.4681,-2.4603,-2.4818,-2.4807,-2.4937,-1.1912,-1.2478,-1.3712,-1.5347,-1.5954,-1.6086,-1.5782,-1.6404,-1.691,-1.65,-1.6298,-1.5848,-1.4795,-1.4233,-1.3992,-1.4574,-1.4785,-1.5293,-1.6026,-1.6089,-1.6793,-1.8596,-1.9068,-1.9326,-1.9885,-2.0443,-2.059,-2.0369,-2.1466,-2.2309,-2.2557,-2.2718,-2.288,-2.3042,-2.3203,-2.3321,-2.3397,-2.3397,-2.3354,-2.3278,-2.3365,-2.2956,-2.2101,-2.179,-2.0848,-1.9634,-1.9097,-1.8409,-1.79,-1.7656,-1.7591,-1.7624,-1.751,-1.7461,-1.7461,-1.7461,-1.7543,-1.778,-1.7234,-1.737,-1.7476,-1.7299,-1.755,-1.8015,-1.8082,-1.8279,-1.8321,-1.8681,-1.855,-1.8251,-1.8677,-1.8785,-1.8869,-1.9364,-1.9586,-1.9958,-2.0726,-2.1126,-2.1334,-2.1986,-2.2257,-2.2407,-2.2744,-2.2954,-2.3317,-2.4118,-2.4264,-2.4433,-2.4945,-2.526,-2.541,-2.541,-2.5615,-2.5755,-2.5755,-2.6046,-2.6196,-2.611,-2.611,-2.6078,-2.5992,-2.5962,-2.5799,-2.5723,-2.556,-2.543,-2.5354,-2.5163,-2.5206,-2.527,-2.512,-2.5098,-1.201,-1.3315,-1.5012,-1.5574,-1.5942,-1.5986,-1.5438,-1.5951,-1.652,-1.6661,-1.6597,-1.6029,-1.3705,-1.3377,-1.3374,-1.3496,-1.4395,-1.5443,-1.6984,-1.6357,-1.6876,-1.9785,-1.9833,-1.9855,-2.0586,-2.0888,-2.0676,-2.0294,-2.1349,-2.2148,-2.2299,-2.2535,-2.2783,-2.3042,-2.3278,-2.3397,-2.3397,-2.3397,-2.3354,-2.3278,-2.3278,-2.2913,-2.2214,-2.1901,-2.0961,-1.95,-1.9001,-1.8292,-1.7632,-1.764,-1.7713,-1.7819,-1.7689,-1.7721,-1.7827,-1.7762,-1.7851,-1.7949,-1.7543,-1.7518,-1.7672,-1.7672,-1.7928,-1.8217,-1.8284,-1.83,-1.8342,-1.8524,-1.8387,-1.8257,-1.8682,-1.8972,-1.9055,-1.9748,-2.0164,-2.0354,-2.1138,-2.1551,-2.1732,-2.2329,-2.2585,-2.2725,-2.319,-2.3238,-2.3441,-2.405,-2.4347,-2.471,-2.5095,-2.5278,-2.555,-2.5441,-2.5516,-2.5744,-2.5744,-2.6024,-2.6175,-2.611,-2.6099,-2.6067,-2.6002,-2.5766,-2.5604,-2.5518,-2.5443,-2.5356,-2.526,-2.5356,-2.5399,-2.5399,-2.5335,-2.5303,-1.1264,-1.2995,-1.4922,-1.49,-1.5589,-1.6226,-1.6252,-1.5569,-1.5443,-1.7046,-1.7329,-1.6312,-1.3235,-1.2554,-1.238,-1.1882,-1.3674,-1.5703,-1.7695,-1.6994,-1.7235,-1.9518,-2.0761,-2.1147,-2.0624,-2.0695,-2.1095,-2.133,-2.1534,-2.1674,-2.1674,-2.19,-2.2342,-2.3031,-2.3278,-2.3397,-2.3375,-2.3375,-2.3268,-2.3052,-2.3063,-2.3063,-2.3074,-2.3311,-2.1977,-1.9847,-2.0289,-1.9258,-1.7193,-1.7526,-1.7867,-1.8144,-1.7811,-1.7892,-1.8168,-1.8014,-1.807,-1.8192,-1.803,-1.807,-1.8192,-1.8192,-1.8192,-1.8233,-1.8412,-1.8468,-1.8501,-1.868,-1.8728,-1.8929,-1.9321,-1.9649,-1.9979,-2.0571,-2.0869,-2.1159,-2.1159,-2.1449,-2.1918,-2.2533,-2.2679,-2.3014,-2.3428,-2.3635,-2.3625,-2.3606,-2.3846,-2.4396,-2.4991,-2.531,-2.5441,-2.5074,-2.5484,-2.5529,-2.5518,-2.5529,-2.5636,-2.6048,-2.5873,-2.597,-2.6207,-2.5981,-2.5744,-2.5518,-2.5303,-2.5076,-2.484,-2.5076,-2.5195,-2.5206,-2.5421,-2.5518,-1.1801,-1.3259,-1.546,-1.5725,-1.6279,-1.6452,-1.6037,-1.5891,-1.5965,-1.6069,-1.5776,-1.5514,-1.5272,-1.4367,-1.3373,-1.1983,-1.4,-1.5606,-1.5072,-1.7769,-1.9764,-1.9492,-2.0533,-2.1312,-2.1057,-2.1322,-2.1392,-2.117,-2.2001,-2.2417,-2.2417,-2.2643,-2.2858,-2.3042,-2.3278,-2.3488,-2.3644,-2.3644,-2.3447,-2.3052,-2.3225,-2.3311,-2.3321,-2.283,-2.2291,-2.1611,-2.0482,-1.9647,-1.9018,-1.8367,-1.8095,-1.8176,-1.8225,-1.8298,-1.8395,-1.8485,-1.8631,-1.8769,-1.8728,-1.8566,-1.8379,-1.8379,-1.8476,-1.859,-1.8639,-1.8655,-1.8663,-1.8712,-1.8818,-1.9142,-1.9868,-2.0038,-2.0405,-2.0542,-2.1168,-2.1555,-2.1555,-2.215,-2.2734,-2.3146,-2.339,-2.3428,-2.3635,-2.3635,-2.3531,-2.3828,-2.3731,-2.3923,-2.4386,-2.4998,-2.5408,-2.5687,-2.6016,-2.6493,-2.6692,-2.6849,-2.6985,-2.7052,-2.666,-2.6496,-2.6551,-2.5929,-2.5583,-2.5518,-2.5464,-2.5593,-2.5924,-2.5593,-2.5625,-2.6023,-2.569,-2.5518,-1.3427,-1.4458,-1.5977,-1.6144,-1.6389,-1.6399,-1.5512,-1.5284,-1.5174,-1.5535,-1.4809,-1.4641,-1.5795,-1.4707,-1.3528,-1.3218,-1.4745,-1.5834,-1.5464,-1.7721,-1.9305,-1.9404,-2.0232,-2.0854,-2.1359,-2.1176,-2.1223,-2.1625,-2.1884,-2.215,-2.2223,-2.2439,-2.2675,-2.288,-2.3117,-2.3358,-2.3392,-2.3556,-2.3556,-2.3392,-2.3564,-2.3672,-2.3764,-2.3209,-2.2645,-2.203,-2.0795,-1.9894,-1.9314,-1.8541,-1.8347,-1.8428,-1.8533,-1.8671,-1.8809,-1.8834,-1.8948,-1.9102,-1.9102,-1.8972,-1.8809,-1.8809,-1.8874,-1.8964,-1.8964,-1.9013,-1.9069,-1.9069,-1.9199,-1.956,-2.0058,-2.0619,-2.0992,-2.1104,-2.1883,-2.2437,-2.2231,-2.2734,-2.3193,-2.3521,-2.3502,-2.3474,-2.3379,-2.3361,-2.3285,-2.3452,-2.3413,-2.3461,-2.3586,-2.4327,-2.4919,-2.5469,-2.558,-2.5658,-2.6305,-2.6416,-2.6699,-2.7284,-2.7078,-2.6883,-2.6883,-2.636,-2.6294,-2.6294,-2.6294,-2.6294,-2.6681,-2.61,-2.6111,-2.6305,-2.5712,-2.5518,-1.5481,-1.5948,-1.6103,-1.6231,-1.6211,-1.5977,-1.5269,-1.4444,-1.4106,-1.5083,-1.436,-1.3936,-1.558,-1.4336,-1.3448,-1.4432,-1.5264,-1.6056,-1.6963,-1.6843,-1.7235,-1.9313,-1.9512,-2.0046,-2.1253,-2.087,-2.0889,-2.2049,-2.1625,-2.1327,-2.1771,-2.1954,-2.2266,-2.2718,-2.2934,-2.3063,-2.3095,-2.3457,-2.3808,-2.3775,-2.3748,-2.4037,-2.4175,-2.4085,-2.3231,-2.1797,-2.1269,-2.0299,-1.9007,-1.8566,-1.8558,-1.8728,-1.8753,-1.8948,-1.9207,-1.9069,-1.9118,-1.9256,-1.9256,-1.9256,-1.9256,-1.9256,-1.9256,-1.9264,-1.9289,-1.9394,-1.9516,-1.954,-1.9687,-2.0028,-2.0638,-2.1182,-2.1739,-2.1739,-2.2661,-2.339,-2.2977,-2.3156,-2.3502,-2.3323,-2.3294,-2.3228,-2.3049,-2.3011,-2.3001,-2.2973,-2.2973,-2.2964,-2.3136,-2.3651,-2.4299,-2.4856,-2.4505,-2.4772,-2.5712,-2.5906,-2.6294,-2.726,-2.7249,-2.7249,-2.7249,-2.7056,-2.7056,-2.7056,-2.7056,-2.7056,-2.7056,-2.6487,-2.6305,-2.6305,-2.5712,-2.5518,-1.5903,-1.604,-1.5952,-1.6093,-1.6254,-1.6264,-1.5848,-1.5287,-1.4716,-1.3984,-1.3993,-1.4477,-1.549,-1.5499,-1.4687,-1.2256,-1.3253,-1.4585,-1.5697,-1.5711,-1.6467,-1.826,-1.8304,-1.8739,-2.0572,-2.0044,-2.0133,-2.1343,-2.1097,-2.1353,-2.2514,-2.2192,-2.2341,-2.2977,-2.3359,-2.3479,-2.3332,-2.3884,-2.4241,-2.4052,-2.3998,-2.4106,-2.4408,-2.4161,-2.3483,-2.2455,-2.1461,-2.0621,-1.9567,-1.8773,-1.8558,-1.8736,-1.8883,-1.8972,-1.9045,-1.9167,-1.9232,-1.9256,-1.9256,-1.9256,-1.9256,-1.9256,-1.9256,-1.9289,-1.9427,-1.9492,-1.954,-1.9695,-1.9873,-2.0225,-2.1242,-2.1792,-2.214,-2.2554,-2.3072,-2.3184,-2.2569,-2.284,-2.3105,-2.3077,-2.3068,-2.3058,-2.302,-2.3011,-2.2954,-2.2794,-2.2765,-2.3096,-2.37,-2.3929,-2.4058,-2.4315,-2.5437,-2.6309,-2.6692,-2.7646,-2.8236,-2.8428,-2.7839,-2.7646,-2.7646,-2.726,-2.7056,-2.7056,-2.7056,-2.7056,-2.7056,-2.6487,-2.6305,-2.6305,-2.5712,-2.5518,-1.4502,-1.5259,-1.6056,-1.616,-1.6254,-1.6075,-1.5111,-1.4657,-1.4156,-1.3206,-1.3203,-1.3663,-1.4757,-1.4877,-1.4685,-1.4326,-1.429,-1.4916,-1.632,-1.6599,-1.6924,-1.7946,-1.8482,-1.9043,-1.9646,-1.9259,-1.9377,-2.0375,-1.9855,-2.0135,-2.1811,-2.2099,-2.2399,-2.3042,-2.3512,-2.3864,-2.358,-2.4285,-2.4464,-2.4297,-2.4408,-2.4576,-2.4643,-2.4349,-2.3914,-2.3185,-2.1772,-2.0807,-1.9912,-1.9104,-1.8615,-1.8485,-1.8948,-1.9126,-1.9134,-1.9224,-1.9256,-1.9272,-1.9362,-1.9386,-1.941,-1.95,-1.9467,-1.9427,-1.9605,-1.9727,-1.9817,-2.0314,-2.0472,-2.082,-2.1638,-2.2042,-2.2249,-2.2249,-2.2506,-2.2766,-2.2766,-2.2884,-2.2983,-2.2879,-2.286,-2.2822,-2.2708,-2.269,-2.2661,-2.2557,-2.2548,-2.2707,-2.3189,-2.3159,-2.3444,-2.4133,-2.4897,-2.5441,-2.6294,-2.6681,-2.7453,-2.862,-2.7839,-2.7646,-2.8224,-2.8031,-2.7839,-2.7839,-2.7839,-2.7646,-2.7453,-2.6874,-2.6487,-2.6305,-2.5712,-2.5518,-1.3054,-1.4323,-1.5643,-1.616,-1.6112,-1.5715,-1.4556,-1.3956,-1.348,-1.3052,-1.2554,-1.2566,-1.4037,-1.3903,-1.4307,-1.6177,-1.5551,-1.533,-1.6499,-1.687,-1.7232,-1.7575,-1.8688,-1.9344,-1.9132,-1.8631,-1.8741,-1.9615,-1.8922,-1.9293,-2.1353,-2.206,-2.2733,-2.3192,-2.3731,-2.3949,-2.3828,-2.4363,-2.4665,-2.4565,-2.4665,-2.4742,-2.4829,-2.4767,-2.4212,-2.355,-2.2251,-2.0973,-1.9834,-1.9403,-1.8879,-1.8306,-1.9183,-1.9478,-1.9511,-1.9709,-1.9734,-1.9585,-1.9725,-1.9573,-1.9605,-1.9987,-1.9921,-1.9807,-1.9995,-2.0151,-2.0472,-2.0883,-2.1191,-2.1501,-2.1862,-2.2159,-2.2442,-2.1989,-2.2066,-2.2333,-2.2888,-2.2879,-2.2831,-2.2671,-2.2642,-2.2586,-2.2416,-2.2387,-2.2387,-2.2387,-2.2387,-2.2387,-2.2387,-2.2387,-2.2779,-2.3571,-2.3951,-2.4351,-2.5129,-2.5324,-2.6294,-2.785,-2.7453,-2.7453,-2.8236,-2.8428,-2.862,-2.862,-2.8428,-2.8236,-2.7646,-2.726,-2.6681,-2.6111,-2.5712,-2.5712,-1.2839,-1.3472,-1.4035,-1.5802,-1.5895,-1.5567,-1.5366,-1.4178,-1.3199,-1.3517,-1.2619,-1.2277,-1.3959,-1.4045,-1.4051,-1.4402,-1.467,-1.4854,-1.4486,-1.5131,-1.6035,-1.7161,-1.7545,-1.8077,-1.9165,-1.8828,-1.894,-1.967,-1.9542,-1.9981,-2.1595,-2.2505,-2.3246,-2.3666,-2.3709,-2.3828,-2.4075,-2.4054,-2.4382,-2.4685,-2.4744,-2.471,-2.484,-2.5308,-2.4551,-2.3086,-2.294,-2.1692,-1.9851,-1.9705,-1.9146,-1.8485,-1.9623,-2.0139,-2.0291,-2.0699,-2.0802,-2.0545,-2.0562,-2.0165,-1.9792,-2.0594,-2.0731,-2.0604,-2.0798,-2.1071,-2.1499,-2.1704,-2.1713,-2.1687,-2.2111,-2.225,-2.2195,-2.2613,-2.2557,-2.269,-2.2491,-2.2444,-2.2444,-2.2425,-2.2416,-2.2416,-2.2397,-2.2387,-2.2387,-2.2387,-2.2387,-2.2387,-2.2387,-2.2387,-2.2387,-2.2583,-2.3375,-2.3961,-2.4156,-2.4935,-2.5518,-2.5712,-2.6669,-2.7056,-2.7249,-2.8043,-2.862,-2.862,-2.8031,-2.7646,-2.7249,-2.6681,-2.61,-2.5518,-2.6111,-2.6305,-1.1246,-1.261,-1.4097,-1.5691,-1.5772,-1.5367,-1.4577,-1.3848,-1.3158,-1.2716,-1.2378,-1.2224,-1.2808,-1.3488,-1.4173,-1.4933,-1.5109,-1.5742,-1.7184,-1.703,-1.713,-1.8367,-1.8307,-1.8219,-1.8121,-1.8058,-1.8273,-1.8712,-1.884,-1.9628,-2.1077,-2.1741,-2.2543,-2.3409,-2.3785,-2.4011,-2.4118,-2.415,-2.4299,-2.4591,-2.4833,-2.5026,-2.4956,-2.5146,-2.4736,-2.3914,-2.3432,-2.2182,-2.0318,-2.0843,-2.0254,-1.9313,-2.0414,-2.082,-2.1081,-2.0889,-2.0738,-2.0612,-2.0323,-2.0159,-2.0176,-2.0652,-2.1037,-2.119,-2.1268,-2.1499,-2.1678,-2.1962,-2.1926,-2.2111,-2.2627,-2.2524,-2.2575,-2.2567,-2.2519,-2.2491,-2.2406,-2.2387,-2.2387,-2.2387,-2.2387,-2.2387,-2.2387,-2.2387,-2.2387,-2.2387,-2.2387,-2.2387,-2.2387,-2.2387,-2.2387,-2.2387,-2.3365,-2.3961,-2.3961,-2.4351,-2.473,-2.4893,-2.5108,-2.569,-2.6647,-2.7033,-2.7815,-2.862,-2.8428,-2.7839,-2.7056,-2.6874,-2.6294,-2.5518,-2.5712,-2.5906,-0.9529,-1.1337,-1.3343,-1.4707,-1.5203,-1.5051,-1.4179,-1.3548,-1.2946,-1.2381,-1.217,-1.2136,-1.2226,-1.303,-1.3992,-1.5056,-1.5581,-1.6464,-1.8196,-1.8094,-1.8197,-1.9077,-1.8978,-1.8703,-1.8172,-1.8119,-1.8101,-1.8189,-1.8468,-1.9292,-2.0612,-2.1102,-2.2014,-2.3477,-2.3967,-2.4118,-2.3935,-2.4,-2.4269,-2.4355,-2.4885,-2.5001,-2.4896,-2.5251,-2.5153,-2.4484,-2.4271,-2.3203,-2.1539,-2.2141,-2.1338,-2.0126,-2.1129,-2.159,-2.1493,-2.1087,-2.0918,-2.0782,-2.0505,-2.0315,-2.0472,-2.0883,-2.1456,-2.1803,-2.1953,-2.1971,-2.2184,-2.2379,-2.2278,-2.2432,-2.2631,-2.2727,-2.2576,-2.2425,-2.2387,-2.2387,-2.2387,-2.2387,-2.2387,-2.2387,-2.2387,-2.2387,-2.2387,-2.2387,-2.2387,-2.2387,-2.2387,-2.2387,-2.2387,-2.2387,-2.2387,-2.2387,-2.317,-2.3571,-2.3571,-2.3571,-2.3551,-2.391,-2.3941,-2.4535,-2.5669,-2.6056,-2.6851,-2.7839,-2.785,-2.7453,-2.6874,-2.6681,-2.61,-2.5324,-2.5518,-2.5906,-0.7883,-0.9494,-1.1084,-1.2869,-1.3825,-1.442,-1.4531,-1.3467,-1.2661,-1.2754,-1.2209,-1.1847,-1.2269,-1.28,-1.3391,-1.4045,-1.5522,-1.6565,-1.6177,-1.7357,-1.8407,-1.8807,-1.8892,-1.9227,-1.9924,-1.9312,-1.8989,-1.8796,-1.8595,-1.9164,-2.0691,-2.0718,-2.1846,-2.4111,-2.4063,-2.3935,-2.3383,-2.3592,-2.3778,-2.4118,-2.4581,-2.4486,-2.4163,-2.5735,-2.5839,-2.4506,-2.5206,-2.4661,-2.3514,-2.3188,-2.2335,-2.1065,-2.1685,-2.1765,-2.1695,-2.1695,-2.1406,-2.1145,-2.1154,-2.1035,-2.0883,-2.1499,-2.1971,-2.2177,-2.2575,-2.286,-2.2973,-2.2775,-2.2557,-2.2397,-2.2397,-2.2397,-2.2397,-2.2387,-2.2387,-2.2387,-2.2387,-2.2387,-2.2387,-2.2387,-2.2387,-2.2387,-2.2387,-2.2387,-2.2387,-2.2387,-2.2387,-2.2387,-2.2387,-2.2387,-2.2387,-2.2387,-2.2387,-2.2387,-2.2387,-2.2387,-2.2387,-2.2387,-2.3375,-2.3961,-2.3961,-2.4935,-2.5712,-2.6282,-2.5701,-2.5712,-2.6305,-2.5712,-2.5324,-2.473,-2.5712,-2.6487,-0.7999,-0.9641,-1.1292,-1.261,-1.3626,-1.4155,-1.3746,-1.315,-1.2505,-1.2312,-1.2095,-1.1802,-1.1532,-1.2416,-1.3485,-1.4252,-1.5328,-1.6851,-1.8974,-1.8578,-1.8549,-1.9374,-1.8293,-1.7948,-1.8909,-1.807,-1.7797,-1.8783,-1.8509,-1.8638,-1.9898,-2.0645,-2.176,-2.358,-2.3354,-2.3417,-2.3603,-2.3149,-2.3313,-2.4272,-2.4251,-2.4373,-2.4345,-2.5556,-2.5676,-2.4732,-2.5443,-2.5108,-2.4142,-2.4402,-2.3424,-2.206,-2.2688,-2.2487,-2.1889,-2.1475,-2.131,-2.1154,-2.0737,-2.0621,-2.0858,-2.1334,-2.1765,-2.1977,-2.236,-2.2642,-2.2765,-2.2548,-2.2444,-2.2387,-2.2387,-2.2387,-2.2387,-2.2387,-2.2387,-2.2387,-2.2387,-2.2387,-2.2387,-2.2387,-2.2387,-2.2387,-2.2387,-2.2387,-2.2387,-2.2387,-2.2387,-2.2387,-2.2387,-2.2387,-2.2387,-2.2387,-2.2387,-2.2387,-2.2387,-2.2387,-2.2387,-2.2387,-2.2779,-2.317,-2.3961,-2.3521,-2.4105,-2.5701,-2.5679,-2.5679,-2.5712,-2.5679,-2.5166,-2.439,-2.4618,-2.474,-0.7585,-0.9147,-1.0673,-1.1347,-1.2538,-1.3549,-1.3106,-1.2642,-1.2248,-1.1967,-1.2012,-1.2025,-1.1499,-1.2394,-1.3458,-1.4343,-1.5587,-1.7137,-1.9078,-1.8823,-1.863,-1.9065,-1.8293,-1.8005,-1.8743,-1.8121,-1.7865,-1.887,-1.8459,-1.8558,-1.969,-2.0458,-2.1385,-2.2795,-2.2773,-2.2839,-2.3025,-2.2763,-2.3034,-2.383,-2.4043,-2.4281,-2.4377,-2.5615,-2.5669,-2.5109,-2.583,-2.5772,0.0,-2.5532,-2.4594,-2.2983,-2.3172,-2.2633,-2.1561,-2.1154,-2.0945,-2.0729,-2.0662,-2.0719,-2.1147,-2.1563,-2.1768,-2.2172,-2.2434,-2.2482,-2.2567,-2.2425,-2.2387,-2.2387,-2.2387,-2.2387,-2.2387,-2.2387,-2.2387,-2.2387,-2.2387,-2.2387,-2.2387,-2.2387,-2.2387,-2.2387,-2.2387,-2.2387,-2.2387,-2.2387,-2.2387,-2.2387,-2.2387,-2.2387,-2.2387,-2.2387,-2.2387,-2.2387,-2.2387,-2.2387,-2.2387,-2.2387,-2.2387,-2.2779,-2.3375,-2.274,-2.3131,-2.4546,-2.4709,-2.4751,-2.5072,-2.5012,-2.4639,-2.4173,-2.3826,-2.3961,0.0,-0.8213,-0.9527,-0.9527,-1.1015,-1.2576,-1.2555,-1.2246,0.0,-1.1847,-1.2126,-1.237,-1.226,-1.2852,-1.3543,-1.4366,-1.6204,-1.7392,-1.7168,-1.8204,-1.8834,-1.8048,-1.862,-1.9056,-1.9341,-1.9133,-1.8914,-1.8931,-1.8534,-1.8811,-1.9938,-1.9938,-2.0691,-2.2024,-2.2397,-2.2307,-2.1977,-2.2544,-2.2837,-2.2847,-2.3886,-2.4227,-2.4131,-2.5698,-2.5992,-2.5561,-2.6272,-2.6584,-2.6562,-2.6325,-2.5364,-2.3944,-2.3517,-2.2418,-2.1154,-2.0529,-2.0312,-2.0279,-2.0736,-2.1156,-2.1554,-2.1759,-2.2162,-2.2387,-2.2387,-2.2387,-2.2387,-2.2387,-2.2387,-2.2387,-2.2387,-2.2387,-2.2387,-2.2387,-2.2387,-2.2387,-2.2387,-2.2387,-2.2387,-2.2387,-2.2387,-2.2387,-2.2387,-2.2387,-2.2387,-2.2387,-2.2387,-2.2387,-2.2387,-2.2387,-2.2387,-2.2387,-2.2387,-2.2387,-2.2387,-2.2387,-2.2387,-2.2387,-2.2387,-2.2387,-2.2387,-2.2387,-2.2593,-2.3199,-2.3199,-2.3503,-2.4325,-2.3701,-2.3582,-2.3981,-2.3375,-2.3561,-0.7178,0.0,-0.9426,-0.9342,-1.0908,-1.2349,0.0,-1.1947,-1.1947,-1.2677,-1.28,-1.2913,-1.3237,-1.441,-1.5364,-1.5328,-1.6774,-1.7863,-1.7897,-1.8047,-1.797,-1.7371,-1.8001,-1.8336,-1.829,-1.8363,-1.8612,-1.8749,-1.8795,-1.9193,-1.9938,-2.018,-2.0732,-2.1649,-2.1423,-2.1546,-2.2632,-2.225,-2.2049,-2.224,-2.361,-2.3708,-2.2851,-2.5363,-2.6142,-2.5561,-2.6272,-2.6584,-2.6562,-2.6325,-2.5152,-2.3517,-2.3313,-2.2213,-2.0529,-2.032,-2.0447,-2.0736,-2.0686,-2.1273,-2.175,-2.2144,-2.2434,-2.2387,-2.2387,-2.2387,-2.2387,-2.2387,-2.2387,-2.2387,-2.2387,-2.2387,-2.2387,-2.2387,-2.2387,-2.2387,-2.2387,-2.2387,-2.2387,-2.2387,-2.2387,-2.2387,-2.2387,-2.2387,-2.2387,-2.2387,-2.2387,-2.2387,-2.2387,-2.2387,-2.2387,-2.2387,-2.2387,-2.2387,-2.2387,-2.2387,-2.2387,-2.2387,-2.2387,-2.2387,-2.2387,-2.2387,-2.2472,-2.2831,-2.3236,-2.3532,-2.3947,-2.3622,-2.3317,-2.3038,-2.2669,-2.2779,-0.7423,-0.8495,-0.9078,-0.9429,-1.0691,-1.2037,-1.2416,-1.2203,-1.2159,-1.3168,-1.3233,-1.338,-1.4155,-1.4619,-1.5053,-1.5928,-1.646,-1.7088,-1.8282,-1.8104,-1.7805,-1.7251,-1.7468,-1.7582,-1.7578,-1.8186,-1.8541,-1.8634,-1.882,-1.9159,-1.9815,-2.0277,-2.0686,-2.1085,-2.0906,-2.1243,-2.2327,-2.1929,-2.168,-2.1592,-2.3592,-2.4062,-2.2923,-2.5366,-2.6433,-2.6175,-2.6121,-2.6146,-2.6296,-2.5734,-2.4628,-2.3455,-2.325,-2.2087,-2.0729,-2.0646,-2.0555,-2.0858,-2.1087,-2.164,-2.2153,-2.2425,-2.2387,-2.2387,-2.2387,-2.2387,-2.2387,-2.2387,-2.2387,-2.2387,-2.2387,-2.2387,-2.2387,-2.2387,-2.2387,-2.2387,-2.2387,-2.2387,-2.2387,-2.2387,-2.2387,-2.2387,-2.2387,-2.2387,-2.2387,-2.2387,-2.2387,-2.2387,-2.2387,-2.2387,-2.2387,-2.2387,-2.2387,-2.2387,-2.2387,-2.2387,-2.2387,-2.2387,-2.2387,-2.2387,-2.2387,-2.2482,-2.2595,-2.2708,-2.3002,-2.3211,-2.3125,-2.3197,-2.2942,-2.2567,-2.2444,-2.2387,-0.7609,-0.8285,-0.8537,-0.9648,-1.0691,-1.1718,-1.2938,-1.2734,-1.2541,-1.3722,-1.3918,-1.4148,-1.5176,-1.4725,-1.4691,-1.6149,-1.5979,-1.6297,-1.8347,-1.8026,-1.7606,-1.7483,-1.7376,-1.733,-1.7256,-1.811,-1.8651,-1.8501,-1.8837,-1.9116,-1.9674,-2.0064,-2.0554,-2.0943,-2.0828,-2.1155,-2.1971,-2.1873,-2.1648,-2.1311,-2.3698,-2.4448,-2.3405,-2.5692,-2.6756,-2.6907,-2.589,-2.5797,-2.6056,-2.5074,-2.4398,-2.3635,-2.3014,-2.2166,-2.1302,-2.0934,-2.1046,-2.1156,-2.1804,-2.2144,-2.2387,-2.2387,-2.2387,-2.2387,-2.2387,-2.2387,-2.2387,-2.2387,-2.2387,-2.2387,-2.2387,-2.2387,-2.2387,-2.2387,-2.2387,-2.2387,-2.2387,-2.2387,-2.2387,-2.2387,-2.2387,-2.2387,-2.2387,-2.2387,-2.2387,-2.2387,-2.2387,-2.2387,-2.2387,-2.2387,-2.2387,-2.2387,-2.2387,-2.2387,-2.2387,-2.2387,-2.2387,-2.2387,-2.2387,-2.2406,-2.2434,-2.268,-2.2803,-2.2803,-2.2945,-2.2841,-2.2482,-2.2605,-2.2567,-2.2387,-2.2387,-2.2387,-0.8003,-0.8291,-0.8295,-0.9804,-1.1049,-1.2201,-1.3248,-1.3077,-1.3274,-1.5223,-1.5576,-1.574,-1.5931,-1.6997,-1.7542,-1.6366,-1.6816,-1.7433,-1.8132,-1.7655,-1.7428,-1.7308,-1.8112,-1.8261,-1.751,-1.8186,-1.8526,-1.8313,-1.8727,-1.9116,-1.9674,-1.9833,-2.0575,-2.1545,-2.1108,-2.1452,-2.2822,-2.2149,-2.1785,-2.1725,-2.3991,-2.4588,-2.3415,-2.5871,-2.6918,-2.6939,-2.6176,-2.5993,-2.6108,-2.5348,-2.4549,-2.3635,-2.3428,-2.2706,-2.1534,-2.1508,-2.1696,-2.1777,-2.2134,-2.2416,-2.2387,-2.2387,-2.2387,-2.2387,-2.2387,-2.2387,-2.2387,-2.2387,-2.2387,-2.2387,-2.2387,-2.2387,-2.2387,-2.2387,-2.2387,-2.2387,-2.2387,-2.2387,-2.2387,-2.2387,-2.2387,-2.2387,-2.2387,-2.2387,-2.2387,-2.2387,-2.2387,-2.2387,-2.2387,-2.2387,-2.2387,-2.2387,-2.2387,-2.2387,-2.2387,-2.2387,-2.2387,-2.2387,-2.2387,-2.2472,-2.2652,-2.303,-2.3238,-2.3238,-2.3086,-2.2983,-2.2916,-2.2595,-2.2425,-2.2387,-2.2387,-2.2387,-0.8346,-0.876,-0.8972,-1.1433,-1.188,-1.2334,-1.4775,-1.4129,-1.3577,-1.5931,-1.5806,-1.5491,-1.6226,-1.6619,-1.6772,-1.6271,-1.7788,-1.903,-1.8956,-1.8759,-1.8731,-1.8532,-1.8228,-1.763,-1.6679,-1.7747,-1.8272,-1.8168,-1.8922,-1.9488,-1.9674,-2.0047,-2.0674,-2.1559,-2.1076,-2.1461,-2.2775,-2.2489,-2.2031,-2.1817,-2.406,-2.4628,-2.3415,-2.5903,-2.695,-2.6918,-2.5798,-2.5457,-2.5666,-2.4578,-2.3847,-2.3625,-2.31,-2.2597,-2.2087,-2.1872,-2.2004,-2.2125,-2.2425,-2.2387,-2.2387,-2.2387,-2.2387,-2.2387,-2.2387,-2.2387,-2.2387,-2.2387,-2.2387,-2.2387,-2.2387,-2.2387,-2.2387,-2.2387,-2.2387,-2.2387,-2.2387,-2.2387,-2.2387,-2.2387,-2.2387,-2.2387,-2.2387,-2.2387,-2.2387,-2.2387,-2.2387,-2.2387,-2.2387,-2.2387,-2.2387,-2.2387,-2.2387,-2.2387,-2.2387,-2.2387,-2.2444,-2.2557,-2.2567,-2.2708,-2.3039,-2.3228,-2.3332,-2.3332,-2.2719,-2.2763,-2.285,-2.2341,-2.2191,-2.2387,-2.2387,-2.2387,-0.8461,-0.9029,-0.9561,-1.2819,-1.2694,-1.2715,-1.6177,-1.5119,-1.4082,-1.6537,-1.6103,-1.5566,-1.6418,-1.6167,-1.6063,-1.6516,-1.8592,-1.9881,-1.9674,-1.9781,-1.9864,-1.9764,-1.8539,-1.7563,-1.6737,-1.7563,-1.8176,-1.8176,-1.9108,-1.9497,-1.9549,-2.0341,-2.1037,-2.1244,-2.1299,-2.1667,-2.2784,-2.2793,-2.2554,-2.2093,-2.4352,-2.4738,-2.3909,-2.6008,-2.6745,-2.6702,-2.5367,-2.4859,-2.5029,-2.3708,-2.3404,-2.354,-2.2933,-2.2618,-2.2535,-2.2176,-2.2134,-2.2387,-2.2191,-2.2191,-2.2191,-2.2191,-2.2191,-2.2191,-2.2387,-2.2387,-2.2387,-2.2387,-2.2387,-2.2387,-2.2387,-2.2387,-2.2387,-2.2387,-2.2387,-2.2387,-2.2387,-2.2387,-2.2387,-2.2387,-2.2387,-2.2387,-2.2387,-2.2387,-2.2387,-2.2387,-2.2387,-2.2387,-2.2387,-2.2387,-2.2387,-2.2387,-2.2387,-2.2387,-2.2387,-2.2434,-2.2557,-2.2775,-2.2831,-2.3001,-2.3323,-2.3379,-2.3408,-2.3408,-2.2535,-2.2333,-2.2784,-2.1928,-2.1799,-2.2387,-2.2387,-2.2387,-0.7879,-0.8663,-0.962,-1.2552,-1.3117,-1.38,-1.6793,-1.5739,-1.4781,-1.7229,-1.7202,-1.6859,-1.6922,-1.7223,-1.7472,-1.7649,-1.8683,-1.9529,-1.9247,-1.9562,-2.0076,-2.0148,-1.9626,-1.9123,-1.8566,-1.8408,-1.8176,-1.8176,-1.8913,-1.9176,-1.9167,-2.0481,-2.1253,-2.1443,-2.2039,-2.2765,-2.3606,-2.3616,-2.3587,-2.355,-2.4647,-2.5265,-2.5204,-2.6303,-2.654,-2.6118,-2.543,-2.5029,-2.4451,-2.3574,-2.3304,-2.3332,-2.3115,-2.2926,-2.2727,-2.2501,-2.2406,-2.2387,-2.1799,-2.1612,-2.1612,-2.1612,-2.1612,-2.1799,-2.2191,-2.2387,-2.2387,-2.2387,-2.2387,-2.2387,-2.2387,-2.2387,-2.2387,-2.2387,-2.2387,-2.2387,-2.2387,-2.2387,-2.2387,-2.2387,-2.2387,-2.2387,-2.2387,-2.2387,-2.2387,-2.2387,-2.2387,-2.2387,-2.2387,-2.2387,-2.2387,-2.2387,-2.2387,-2.2387,-2.2387,-2.2576,-2.2775,-2.2973,-2.3181,-2.3304,-2.3332,-2.3512,-2.3616,-2.3616,-2.2609,-2.2406,-2.2992,-2.1992,-2.1799,-2.2387,-2.2387,-2.2387,-0.8277,-0.9303,-1.0222,-1.2713,-1.3593,-1.4495,-1.7133,-1.6144,-1.534,-1.7406,-1.6936,-1.6338,-1.6734,-1.7398,-1.804,-1.8561,-1.9434,-2.007,-2.0456,-2.0735,-2.088,-2.1363,-2.0886,-2.0116,-1.9384,-1.9005,-1.893,-1.9108,-1.9099,-1.9219,-1.9509,-2.0159,-2.1129,-2.205,-2.1953,-2.24,-2.3635,-2.3653,-2.3653,-2.3635,-2.4677,-2.5295,-2.5295,-2.6118,-2.6324,-2.6108,-2.4949,-2.448,-2.4256,-2.3025,-2.2729,-2.3115,-2.2907,-2.2699,-2.2501,-2.2416,-2.2387,-2.2387,-2.2191,-2.2191,-2.2191,-2.2191,-2.2191,-2.2191,-2.2387,-2.2387,-2.2387,-2.2387,-2.2387,-2.2387,-2.2387,-2.2387,-2.2387,-2.2387,-2.2387,-2.2387,-2.2387,-2.2387,-2.2387,-2.2387,-2.2387,-2.2387,-2.2387,-2.2387,-2.2387,-2.2387,-2.2387,-2.2387,-2.2387,-2.2387,-2.2387,-2.2387,-2.2387,-2.2444,-2.2576,-2.2784,-2.2992,-2.32,-2.3294,-2.3389,-2.3521,-2.3597,-2.3372,-2.2839,-2.2147,-2.1949,-2.2232,-2.1551,-2.1603,-2.2387,-2.2387,-2.2387,-0.8164,-0.9551,-1.0953,-1.3098,-1.4014,-1.5044,-1.738,-1.6474,-1.5571,-1.7169,-1.7005,-1.6757,-1.7151,-1.802,-1.8662,-1.9058,-1.9642,-2.0418,-2.1049,-2.1489,-2.1711,-2.1861,-2.1718,-2.1134,-2.0226,-1.9798,-1.9692,-1.9869,-1.9851,-1.9815,-1.9594,-2.0448,-2.1022,-2.1318,-2.1838,-2.2249,-2.2545,-2.323,-2.3635,-2.355,-2.4353,-2.4804,-2.5089,-2.5635,-2.5604,-2.5389,-2.4555,-2.405,-2.3828,-2.2608,-2.2278,-2.2603,-2.2264,-2.2125,-2.2191,-2.1995,-2.1799,-2.1799,-2.1603,-2.1799,-2.1799,-2.1799,-2.1995,-2.2191,-2.2387,-2.2387,-2.2387,-2.2387,-2.2387,-2.2387,-2.2387,-2.2387,-2.2387,-2.2387,-2.2387,-2.2387,-2.2387,-2.2387,-2.2387,-2.2387,-2.2387,-2.2387,-2.2387,-2.2387,-2.2387,-2.2387,-2.2387,-2.2387,-2.2387,-2.2387,-2.2387,-2.2387,-2.2387,-2.2482,-2.2699,-2.2897,-2.3105,-2.3323,-2.3128,-2.3222,-2.3625,-2.3372,-2.3063,-2.2524,-2.1643,-2.1448,-2.1922,-2.112,-2.1406,-2.2387,-2.2387,-2.2387,-0.7303,-0.9226,-1.1592,-1.3449,-1.4233,-1.515,-1.762,-1.6689,-1.5648,-1.6658,-1.7605,-1.8444,-1.8359,-1.9121,-1.951,-1.9129,-1.9391,-1.9975,-2.0752,-2.1595,-2.2222,-2.1671,-2.1817,-2.1704,-2.1187,-2.063,-2.0259,-2.0259,-2.0816,-2.0787,-1.962,-2.1393,-2.1362,-1.9444,-2.2159,-2.2572,-2.0364,-2.2563,-2.3568,-2.3555,-2.3304,-2.3613,-2.4451,-2.4859,-2.4769,-2.4138,-2.3913,-2.3413,-2.2992,-2.2195,-2.1794,-2.1603,-2.1022,-2.1219,-2.1612,-2.1022,-2.0826,-2.0629,-2.0235,-2.0432,-2.0826,-2.0826,-2.1219,-2.1612,-2.2191,-2.2387,-2.2387,-2.2387,-2.2387,-2.2387,-2.2387,-2.2387,-2.2387,-2.2387,-2.2387,-2.2387,-2.2387,-2.2387,-2.2387,-2.2387,-2.2387,-2.2387,-2.2387,-2.2387,-2.2387,-2.2387,-2.2387,-2.2387,-2.2387,-2.2387,-2.2387,-2.2387,-2.2387,-2.2482,-2.2699,-2.2897,-2.3105,-2.3323,-2.2719,-2.2811,-2.3625,-2.282,-2.2515,-2.2515,-2.1107,-2.0916,-2.1913,-2.112,-2.1406,-2.2387,-2.2387,-2.2387,-0.656,-0.8426,-1.0588,-1.1248,-1.336,-1.5525,-1.6118,-1.6253,-1.6571,-1.7358,-1.7842,-1.7967,-1.7743,-1.8886,-1.9753,-1.9371,-2.0252,-2.1114,-2.1573,-2.2319,-2.2573,-2.2,-2.2181,-2.2083,-2.1363,-2.0612,-2.0417,-2.0797,-2.0741,-2.0791,-2.078,-2.1781,-2.2394,-2.2378,-2.31,-2.2509,-2.0397,-2.2509,-2.3502,-2.3548,-2.3257,-2.3257,-2.3577,-2.3943,-2.4125,-2.3903,-2.3288,-2.2803,-2.2185,-2.1389,-2.1273,-2.1603,-2.1022,-2.0826,-2.1022,-2.0826,-2.0826,-2.0826,-2.0629,-2.0629,-2.0826,-2.0826,-2.1219,-2.1603,-2.1799,-2.2191,-2.2387,-2.2387,-2.2387,-2.2387,-2.2387,-2.2387,-2.2387,-2.2387,-2.2387,-2.2387,-2.2387,-2.2387,-2.2387,-2.2387,-2.2387,-2.2387,-2.2387,-2.2387,-2.2387,-2.2387,-2.2387,-2.2387,-2.2387,-2.2387,-2.2387,-2.2387,-2.2387,-2.2538,-2.2888,-2.2973,-2.2903,-2.271,-2.2515,-2.2542,-2.2811,-2.2202,-2.1423,-2.1081,-2.0977,-2.1054,-2.1111,-2.1246,-2.1799,-2.2387,-2.2387,-2.2387,-0.8273,-0.9938,-1.18,-1.2748,-1.44,-1.5845,-1.6063,-1.6318,-1.6817,-1.8051,-1.8384,-1.8319,-1.8168,-1.9323,-2.018,-2.0048,-2.0874,-2.1801,-2.212,-2.2642,-2.2785,-2.2111,-2.2414,-2.2268,-2.1538,-2.0973,-2.1002,-2.1468,-2.102,-2.0873,-2.1247,-2.1707,-2.2444,-2.351,-2.3536,-2.2933,-2.1705,-2.2651,-2.3203,-2.3537,-2.3105,-2.2828,-2.2945,-2.325,-2.3298,-2.3279,-2.2671,-2.1794,-2.1191,-2.0672,-2.0629,-2.0826,-2.0432,-2.0235,-2.0432,-2.0235,-2.0235,-2.0235,-2.0235,-2.0235,-2.0432,-2.0432,-2.1022,-2.1603,-2.1603,-2.1995,-2.2387,-2.2387,-2.2387,-2.2387,-2.2387,-2.2387,-2.2387,-2.2387,-2.2387,-2.2387,-2.2387,-2.2387,-2.2387,-2.2387,-2.2387,-2.2387,-2.2387,-2.2387,-2.2387,-2.2387,-2.2387,-2.2387,-2.2387,-2.2387,-2.2387,-2.2387,-2.2463,-2.2633,-2.2907,-2.3039,-2.295,-2.2469,-2.1971,-2.1696,-2.167,-2.1151,-2.0828,-2.0317,-2.0647,-2.0751,-2.0826,-2.1415,-2.1799,-2.2387,-2.2387,-2.2387,-1.1086,-1.2462,-1.4144,-1.6213,-1.625,-1.6053,-1.7082,-1.6897,-1.6884,-1.8671,-1.8994,-1.9052,-1.9297,-2.003,-2.0665,-2.0685,-2.1211,-2.1802,-2.2195,-2.2726,-2.2816,-2.2293,-2.2495,-2.2452,-2.1908,-2.1548,-2.1449,-2.2005,-2.1489,-2.128,-2.1247,-2.1302,-2.1921,-2.3571,-2.3605,-2.351,-2.3682,-2.2811,-2.2924,-2.359,-2.2716,-2.2385,-2.2425,-2.2605,-2.269,-2.2671,-2.1891,-2.1022,-2.0243,-2.0038,-2.0038,-2.0046,-1.9651,-1.9651,-2.0038,-1.9651,-1.9454,-1.9454,-1.9454,-1.9651,-2.0038,-2.0038,-2.0826,-2.1603,-2.1603,-2.1995,-2.2387,-2.2387,-2.2387,-2.2387,-2.2387,-2.2387,-2.2387,-2.2387,-2.2387,-2.2387,-2.2387,-2.2387,-2.2387,-2.2387,-2.2387,-2.2387,-2.2387,-2.2387,-2.2387,-2.2387,-2.2387,-2.2387,-2.2387,-2.2387,-2.2387,-2.2387,-2.2567,-2.2727,-2.2822,-2.303,-2.2969,-2.2387,-2.1362,-2.0585,-2.0291,-2.0291,-2.0291,-2.0291,-2.0122,-2.0235,-2.0826,-2.1406,-2.1995,-2.2387,-2.2387,-2.2387,-0.8991,-1.0578,-1.2696,-1.3405,-1.4563,-1.6186,-1.8542,-1.8359,-1.7796,-1.8827,-1.8866,-1.8915,-1.9463,-2.0091,-2.0607,-2.113,-2.1628,-2.2019,-2.2559,-2.2694,-2.264,-2.2273,-2.2128,-2.2093,-2.1908,-2.1468,-2.1385,-2.2014,-2.1925,-2.1559,-2.1265,-2.1781,-2.269,-2.3585,-2.3596,-2.3702,-2.3692,-2.3081,-2.3194,-2.3585,-2.2781,-2.2459,-2.2425,-2.251,-2.2463,-2.2453,-2.1817,-2.2014,-2.2631,-2.0843,-2.0646,-2.104,-2.0252,-2.0046,-2.0038,-2.0432,-2.0432,-2.0432,-2.0432,-2.0629,-2.0629,-2.0629,-2.1022,-2.1603,-2.1603,-2.1995,-2.2387,-2.2387,-2.2387,-2.2387,-2.2387,-2.2387,-2.2387,-2.2387,-2.2387,-2.2387,-2.2387,-2.2387,-2.2387,-2.2387,-2.2387,-2.2387,-2.2387,-2.2387,-2.2387,-2.2387,-2.2387,-2.2387,-2.2387,-2.2387,-2.2387,-2.2387,-2.2434,-2.2595,-2.2935,-2.2727,-2.2708,-2.2838,-2.1792,-2.082,-1.9519,-1.9511,-1.9511,-1.9511,-2.026,-2.0629,-2.0826,-2.1799,-2.2191,-2.2387,-2.2387,-2.2387,-0.9306,-1.0998,-1.3081,-1.4642,-1.602,-1.7384,-1.8449,-1.868,-1.862,-1.8894,-1.9047,-1.9297,-1.9845,-2.0387,-2.0855,-2.1433,-2.1813,-2.2287,-2.2632,-2.2778,-2.2713,-2.2283,-2.2402,-2.2192,-2.2083,-2.1869,-2.2231,-2.2954,-2.246,-2.2094,-2.1809,-2.2144,-2.251,-2.2926,-2.3136,-2.326,-2.3673,-2.3436,-2.3427,-2.3653,-2.3124,-2.2791,-2.2491,-2.2482,-2.2191,-2.1995,-2.1799,-2.1817,-2.2023,-2.0826,-2.0629,-2.1031,-2.0432,-2.0432,-2.0432,-2.0629,-2.0826,-2.0826,-2.0826,-2.0826,-2.0826,-2.0826,-2.1219,-2.1603,-2.1603,-2.1995,-2.2387,-2.2387,-2.2387,-2.2387,-2.2387,-2.2387,-2.2387,-2.2387,-2.2387,-2.2387,-2.2387,-2.2387,-2.2387,-2.2387,-2.2387,-2.2387,-2.2387,-2.2387,-2.2387,-2.2387,-2.2387,-2.2387,-2.2387,-2.2387,-2.2387,-2.2387,-2.2387,-2.2482,-2.2699,-2.2879,-2.2907,-2.2727,-2.1324,-2.005,-1.9264,-1.9651,-1.9651,-1.9256,-2.0235,-2.0826,-2.0826,-2.1799,-2.2387,-2.2387,-2.2387,-2.2387,-1.0296,-1.2083,-1.4168,-1.6767,-1.7822,-1.8221,-1.7834,-1.8378,-1.9047,-1.9113,-1.9385,-1.9854,-2.0216,-2.0895,-2.1494,-2.1575,-2.1998,-2.2475,-2.2841,-2.2872,-2.2686,-2.2394,-2.2583,-2.2753,-2.2367,-2.2546,-2.3152,-2.4166,-2.3183,-2.2383,-2.2378,-2.244,-2.244,-2.2434,-2.2661,-2.3002,-2.3459,-2.3584,-2.3679,-2.3558,-2.345,-2.3068,-2.2435,-2.2472,-2.2191,-2.1808,-2.1808,-2.1415,-2.1022,-2.0817,-2.0817,-2.0826,-2.0817,-2.0817,-2.1013,-2.1022,-2.1022,-2.1022,-2.1022,-2.1022,-2.1022,-2.1022,-2.1415,-2.1808,-2.1808,-2.1995,-2.2387,-2.2387,-2.2387,-2.2387,-2.2387,-2.2387,-2.2387,-2.2387,-2.2387,-2.2387,-2.2387,-2.2387,-2.2387,-2.2387,-2.2387,-2.2387,-2.2387,-2.2387,-2.2387,-2.2387,-2.2387,-2.2387,-2.2387,-2.2387,-2.2387,-2.2387,-2.2387,-2.2387,-2.2387,-2.302,-2.3124,-2.2434,-2.0826,-1.9849,-1.9849,-2.0235,-2.0235,-1.9651,-2.0432,-2.1022,-2.1022,-2.1995,-2.2387,-2.2387,-2.2387,-2.2387,-0.9301,-1.1973,-1.5012,-1.6685,-1.6748,-1.6654,-1.8358,-1.8192,-1.8065,-1.9512,-1.9731,-1.9704,-2.0265,-2.0911,-2.1631,-2.1956,-2.2381,-2.2831,-2.3219,-2.2692,-2.2434,-2.2818,-2.2715,-2.2854,-2.3203,-2.3375,-2.3738,-2.4619,-2.3178,-2.2497,-2.2387,-2.2368,-2.2444,-2.2454,-2.2869,-2.3269,-2.3257,-2.3512,-2.3606,-2.355,-2.3219,-2.2841,-2.2434,-2.2406,-2.2387,-2.2191,-2.2191,-2.221,-2.2238,-2.2229,-2.1836,-2.1443,-2.1836,-2.1817,-2.1397,-2.1995,-2.2191,-2.2191,-2.2191,-2.2191,-2.2191,-2.2191,-2.2191,-2.2191,-2.2191,-2.2387,-2.2387,-2.2387,-2.2387,-2.2387,-2.2387,-2.2387,-2.2387,-2.2387,-2.2387,-2.2387,-2.2387,-2.2387,-2.2387,-2.2387,-2.2387,-2.2387,-2.2387,-2.2387,-2.2387,-2.2387,-2.2387,-2.2387,-2.2387,-2.2387,-2.2387,-2.2387,-2.2387,-2.2387,-2.2387,-2.2491,-2.251,-2.2397,-2.2191,-2.2004,-2.2004,-2.121,-2.0826,-2.1031,-2.1415,-2.1415,-2.1415,-2.2191,-2.2387,-2.2387,-2.2387,-2.2387,-0.9929,-1.1704,-1.3499,-1.653,-1.5969,-1.5271,-1.7931,-1.795,-1.7785,-1.9199,-1.9628,-1.9876,-2.0764,-2.167,-2.2199,-2.208,-2.2371,-2.2642,-2.2506,-2.2283,-2.2327,-2.2768,-2.3004,-2.3234,-2.3683,-2.3935,-2.4451,-2.5046,-2.3505,-2.2354,-2.2402,-2.2321,-2.2387,-2.2368,-2.2784,-2.3058,-2.3374,-2.3483,-2.3635,-2.3635,-2.3332,-2.303,-2.2737,-2.2623,-2.2501,-2.2387,-2.2387,-2.2397,-2.2416,-2.2416,-2.221,-2.2014,-2.221,-2.2201,-2.1995,-2.2191,-2.2387,-2.2387,-2.2387,-2.2387,-2.2387,-2.2387,-2.2387,-2.2387,-2.2387,-2.2387,-2.2387,-2.2387,-2.2387,-2.2387,-2.2387,-2.2387,-2.2387,-2.2387,-2.2387,-2.2387,-2.2387,-2.2387,-2.2387,-2.2387,-2.2387,-2.2387,-2.2387,-2.2387,-2.2387,-2.2387,-2.2387,-2.2387,-2.2387,-2.2387,-2.2387,-2.2387,-2.2387,-2.2387,-2.2387,-2.2387,-2.2387,-2.2387,-2.2387,-2.2387,-2.2387,-2.1995,-2.1612,-2.1424,-2.1612,-2.1603,-2.1603,-2.2191,-2.2387,-2.2387,-2.2387,-2.2387,-1.0484,-1.162,-1.2397,-1.6034,-1.5312,-1.4477,-1.6871,-1.7218,-1.7388,-1.8636,-1.9269,-1.9942,-2.1245,-2.1979,-2.2399,-2.1979,-2.2378,-2.2526,-2.1818,-2.2099,-2.2359,-2.2818,-2.3344,-2.382,-2.4166,-2.4514,-2.499,-2.5227,-2.396,-2.2981,-2.251,-2.244,-2.2469,-2.2373,-2.2718,-2.302,-2.3442,-2.3641,-2.3578,-2.3474,-2.3379,-2.3162,-2.285,-2.2756,-2.2595,-2.2387,-2.2387,-2.2387,-2.2387,-2.2387,-2.2387,-2.2387,-2.2387,-2.2387,-2.2387,-2.2387,-2.2387,-2.2387,-2.2387,-2.2387,-2.2387,-2.2387,-2.2387,-2.2387,-2.2387,-2.2387,-2.2387,-2.2387,-2.2387,-2.2387,-2.2387,-2.2387,-2.2387,-2.2387,-2.2387,-2.2387,-2.2387,-2.2387,-2.2387,-2.2387,-2.2387,-2.2387,-2.2387,-2.2387,-2.2387,-2.2387,-2.2387,-2.2387,-2.2387,-2.2387,-2.2387,-2.2387,-2.2387,-2.2387,-2.2387,-2.2387,-2.2387,-2.2387,-2.2387,-2.2387,-2.2387,-2.2387,-2.2201,-2.1612,-2.1808,-2.1799,-2.1799,-2.2191,-2.2387,-2.2387,-2.2387,-2.2387,-1.0076,-1.1596,-1.3016,-1.5248,-1.4981,-1.4479,-1.5663,-1.5958,-1.6292,-1.7549,-1.8758,-2.0077,-2.1389,-2.1989,-2.2212,-2.201,-2.2501,-2.2816,-2.2262,-2.2298,-2.2468,-2.3233,-2.3658,-2.4054,-2.4406,-2.4769,-2.5173,-2.4822,-2.4822,-2.4281,-2.2507,-2.2771,-2.2771,-2.2368,-2.2784,-2.302,-2.3231,-2.3427,-2.3436,-2.3049,-2.3247,-2.3011,-2.2434,-2.2623,-2.2595,-2.2387,-2.2387,-2.2387,-2.2387,-2.2387,-2.2387,-2.2387,-2.2387,-2.2387,-2.2387,-2.2387,-2.2387,-2.2387,-2.2387,-2.2387,-2.2387,-2.2387,-2.2387,-2.2387,-2.2387,-2.2387,-2.2387,-2.2387,-2.2387,-2.2387,-2.2387,-2.2387,-2.2387,-2.2387,-2.2387,-2.2387,-2.2387,-2.2387,-2.2387,-2.2387,-2.2387,-2.2387,-2.2387,-2.2387,-2.2387,-2.2387,-2.2387,-2.2387,-2.2387,-2.2387,-2.2387,-2.2387,-2.2387,-2.2387,-2.2387,-2.2387,-2.2387,-2.2387,-2.2387,-2.2387,-2.2387,-2.2387,-2.2387,-2.2397,-2.2387,-2.2387,-2.2387,-2.2387,-2.2387,-2.2387,-2.2387,-2.2387,-0.862,-0.9332,-1.0123,-1.3358,-1.3045,-1.2785,-1.561,-1.6372,-1.6558,-1.7288,-1.8608,-1.9942,-2.0989,-2.153,-2.191,-2.2192,-2.2181,-2.2099,-2.1403,-2.1692,-2.2266,-2.3273,-2.3557,-2.4156,-2.5002,-2.498,-2.4651,-2.4758,-2.4835,-2.4323,-2.3093,-2.2825,-2.2495,-2.2392,-2.2737,-2.3143,-2.3408,-2.3559,-2.3493,-2.3219,-2.3212,-2.2987,-2.2605,-2.2812,-2.2718,-2.2387,-2.2387,-2.2387,-2.2387,-2.2387,-2.2387,-2.2387,-2.2387,-2.2387,-2.2387,-2.2387,-2.2387,-2.2387,-2.2387,-2.2387,-2.2387,-2.2387,-2.2387,-2.2387,-2.2387,-2.2387,-2.2387,-2.2387,-2.2387,-2.2387,-2.2387,-2.2387,-2.2387,-2.2387,-2.2387,-2.2387,-2.2387,-2.2387,-2.2387,-2.2387,-2.2387,-2.2387,-2.2387,-2.2387,-2.2387,-2.2387,-2.2387,-2.2387,-2.2387,-2.2387,-2.2387,-2.2387,-2.2387,-2.2387,-2.2387,-2.2387,-2.2387,-2.2387,-2.2387,-2.2387,-2.2387,-2.2387,-2.2387,-2.2387,-2.2387,-2.2387,-2.2387,-2.2387,-2.2387,-2.2387,-2.2387,-2.2463,-0.7002,-0.7545,-0.8448,-1.1442,-1.1246,-1.1309,-1.4709,-1.5795,-1.631,-1.7106,-1.8778,-2.0177,-2.1037,-2.1289,-2.1701,-2.2364,-2.2168,-2.1665,-2.097,-2.1376,-2.2058,-2.2994,-2.3375,-2.393,-2.496,-2.4743,-2.4613,-2.461,-2.4671,-2.4388,-2.3455,-2.2994,-2.2724,-2.2593,-2.2803,-2.3209,-2.3625,-2.3635,-2.3531,-2.3128,-2.3259,-2.3238,-2.2727,-2.306,-2.2727,-2.2387,-2.2387,-2.2387,-2.2387,-2.2387,-2.2387,-2.2387,-2.2387,-2.2387,-2.2387,-2.2387,-2.2387,-2.2387,-2.2387,-2.2387,-2.2387,-2.2387,-2.2387,-2.2387,-2.2387,-2.2387,-2.2387,-2.2387,-2.2387,-2.2387,-2.2387,-2.2387,-2.2387,-2.2387,-2.2387,-2.2387,-2.2387,-2.2387,-2.2387,-2.2387,-2.2387,-2.2387,-2.2387,-2.2387,-2.2387,-2.2387,-2.2387,-2.2387,-2.2387,-2.2387,-2.2387,-2.2387,-2.2387,-2.2387,-2.2387,-2.2387,-2.2387,-2.2387,-2.2387,-2.2387,-2.2387,-2.2387,-2.2387,-2.2387,-2.2387,-2.2387,-2.2387,-2.2387,-2.2387,-2.2397,-2.2463,-2.2652,0.0,0.0,0.0,-0.973,-0.9714,-0.9949,-1.2651,-1.4269,-1.558,-1.6937,-1.9037,-2.0716,-2.1859,-2.1618,-2.1575,-2.2465,-2.2258,-2.1714,-2.1344,-2.1338,-2.1846,-2.2783,-2.3162,-2.3591,-2.4517,-2.4474,-2.4549,-2.4586,-2.456,-2.4156,-2.3471,-2.3525,-2.3336,-2.2983,-2.3212,-2.3422,-2.3625,-2.3635,-2.3531,-2.3323,-2.3546,-2.3327,-2.2708,-2.2718,-2.2595,-2.2387,-2.2387,-2.2387,-2.2387,-2.2387,-2.2387,-2.2387,-2.2387,-2.2387,-2.2387,-2.2387,-2.2387,-2.2387,-2.2387,-2.2387,-2.2387,-2.2387,-2.2387,-2.2387,-2.2387,-2.2387,-2.2387,-2.2387,-2.2387,-2.2387,-2.2387,-2.2387,-2.2387,-2.2387,-2.2387,-2.2387,-2.2387,-2.2387,-2.2387,-2.2387,-2.2387,-2.2387,-2.2387,-2.2387,-2.2387,-2.2387,-2.2387,-2.2387,-2.2387,-2.2387,-2.2387,-2.2387,-2.2387,-2.2387,-2.2387,-2.2387,-2.2387,-2.2387,-2.2387,-2.2387,-2.2387,-2.2387,-2.2387,-2.2387,-2.2387,-2.2387,-2.2387,-2.2397,-2.2397,-2.2406,-2.2623,-2.2945,-0.4356,0.0,0.0,0.0,0.0,0.0,-1.2308,-1.3339,-1.4263,-1.5167,-1.6802,-1.8596,-2.0507,-2.0971,-2.1251,-2.2183,-2.2001,-2.1654,-2.1481,-2.143,-2.1706,-2.2616,-2.3064,-2.3575,-2.4619,-2.4576,-2.456,-2.4786,-2.4558,-2.4245,-2.356,-2.3144,-2.2732,-2.2784,-2.3012,-2.3288,-2.3625,-2.3635,-2.3455,-2.2894,-2.347,-2.325,-2.2491,-2.285,-2.2802,-2.2387,-2.2387,-2.2387,-2.2387,-2.2387,-2.2387,-2.2387,-2.2387,-2.2387,-2.2387,-2.2387,-2.2387,-2.2387,-2.2387,-2.2387,-2.2387,-2.2387,-2.2387,-2.2387,-2.2387,-2.2387,-2.2387,-2.2387,-2.2387,-2.2387,-2.2387,-2.2387,-2.2387,-2.2387,-2.2387,-2.2387,-2.2387,-2.2387,-2.2387,-2.2387,-2.2387,-2.2387,-2.2387,-2.2387,-2.2387,-2.2387,-2.2387,-2.2387,-2.2387,-2.2387,-2.2387,-2.2387,-2.2387,-2.2387,-2.2387,-2.2387,-2.2387,-2.2387,-2.2387,-2.2387,-2.2387,-2.2387,-2.2387,-2.2387,-2.2387,-2.2387,-2.2387,-2.2548,-2.2623,-2.2633,-2.2945,-2.3153,-0.4004,-0.4609,-0.5652,-0.7325,0.0,0.0,-1.1355,-1.2892,-1.4217,-1.5502,-1.7418,-1.9213,-2.0158,-2.0356,-2.0805,-2.1431,-2.1299,-2.1094,-2.183,-2.1413,-2.1468,-2.2428,-2.2646,-2.2964,-2.3889,-2.3947,-2.403,-2.4546,-2.4551,-2.4226,-2.379,-2.2803,-2.251,-2.2567,-2.2964,-2.3222,-2.337,-2.3464,-2.3342,-2.28,-2.3058,-2.3088,-2.2529,-2.2764,-2.2716,-2.2387,-2.2387,-2.2387,-2.2387,-2.2387,-2.2387,-2.2387,-2.2387,-2.2387,-2.2387,-2.2387,-2.2387,-2.2387,-2.2387,-2.2387,-2.2387,-2.2387,-2.2387,-2.2387,-2.2387,-2.2387,-2.2387,-2.2387,-2.2387,-2.2387,-2.2387,-2.2387,-2.2387,-2.2387,-2.2387,-2.2387,-2.2387,-2.2387,-2.2387,-2.2387,-2.2387,-2.2387,-2.2387,-2.268,-2.2907,-2.2907,-2.2614,-2.2387,-2.2387,-2.2387,-2.2387,-2.2387,-2.2387,-2.2387,-2.2387,-2.2387,-2.2387,-2.2387,-2.2387,-2.2387,-2.2387,-2.2727,-2.2907,-2.2907,-2.2907,-2.2822,-2.2652,-2.2605,-2.2671,-2.2841,-2.3049,-2.3238,-0.4148,-0.416,-0.4693,-0.6117,-0.6151,0.0,-0.9824,-1.2091,-1.415,-1.6145,-1.8507,-1.9958,-1.9821,-1.9564,-1.9586,-2.0242,-2.0188,-2.0486,-2.1965,-2.1419,-2.1202,-2.2282,-2.2188,-2.2337,-2.297,-2.295,-2.33,-2.4333,-2.4365,-2.4162,-2.3567,-2.2625,-2.2151,-2.2349,-2.2737,-2.2964,-2.3011,-2.32,-2.319,-2.2973,-2.2803,-2.2708,-2.268,-2.2482,-2.2387,-2.2387,-2.2387,-2.2387,-2.2387,-2.2387,-2.2387,-2.2387,-2.2387,-2.2387,-2.2387,-2.2387,-2.2387,-2.2387,-2.2387,-2.2387,-2.2387,-2.2387,-2.2387,-2.2387,-2.2387,-2.2387,-2.2387,-2.2387,-2.2387,-2.2387,-2.2387,-2.2387,-2.2387,-2.2387,-2.2387,-2.2387,-2.2387,-2.2387,-2.2416,-2.251,-2.2529,-2.2529,-2.2529,-2.3143,-2.3635,-2.3635,-2.3001,-2.2529,-2.2529,-2.2444,-2.2387,-2.2387,-2.2387,-2.2387,-2.2387,-2.2387,-2.2387,-2.2387,-2.2482,-2.2529,-2.2529,-2.3238,-2.3635,-2.3635,-2.3635,-2.3455,-2.3077,-2.2661,-2.2671,-2.3086,-2.3086,-2.3285,-0.4346,-0.4448,-0.4936,-0.6201,-0.6779,0.0,-0.8027,-0.8736,-0.9652,-1.1269,-1.1987,-1.3173,-1.6059,-1.6636,-1.7093,-1.8592,-1.8454,-1.8839,-2.0672,-2.1201,-2.1363,-2.1399,-2.2209,-2.3137,-2.3727,-2.3469,-2.3448,-2.4072,-2.3745,-2.3483,-2.3102,-2.2704,-2.2327,-2.2141,-2.2387,-2.2671,-2.3011,-2.3058,-2.2973,-2.2775,-2.2737,-2.2623,-2.2453,-2.2406,-2.2387,-2.2387,-2.2387,-2.2387,-2.2387,-2.2387,-2.2387,-2.2387,-2.2387,-2.2387,-2.2387,-2.2387,-2.2387,-2.2387,-2.2387,-2.2387,-2.2387,-2.2387,-2.2387,-2.2387,-2.2387,-2.2387,-2.2387,-2.2387,-2.2387,-2.2387,-2.2387,-2.2387,-2.2387,-2.2387,-2.2387,-2.2387,-2.2387,-2.2387,-2.2586,-2.3257,-2.3389,-2.3389,-2.3389,-2.3531,-2.3635,-2.3635,-2.3493,-2.3389,-2.3389,-2.2803,-2.2387,-2.2387,-2.2387,-2.2387,-2.2387,-2.2387,-2.2387,-2.2387,-2.302,-2.3389,-2.3389,-2.355,-2.3635,-2.3635,-2.3635,-2.3597,-2.3512,-2.3096,-2.3105,-2.3512,-2.3512,-2.3559,-0.4718,-0.4703,-0.4839,-0.548,-0.5976,0.0,0.0,-0.8092,-0.9231,-1.0492,-1.1245,-1.2206,-1.3706,-1.449,-1.5258,-1.6338,-1.6838,-1.7349,-1.8391,-1.9758,-2.0887,-2.1906,-2.2183,-2.2543,-2.3108,-2.3067,-2.319,-2.401,-2.3483,-2.3243,-2.3132,-2.2583,-2.2173,-2.2085,-2.2387,-2.2595,-2.2699,-2.2812,-2.2756,-2.2548,-2.2557,-2.2501,-2.2387,-2.2387,-2.2387,-2.2387,-2.2387,-2.2387,-2.2387,-2.2387,-2.2387,-2.2387,-2.2387,-2.2387,-2.2387,-2.2387,-2.2387,-2.2387,-2.2387,-2.2387,-2.2387,-2.2387,-2.2387,-2.2387,-2.2387,-2.2387,-2.2387,-2.2387,-2.2387,-2.2387,-2.2387,-2.2387,-2.2387,-2.2387,-2.2387,-2.2501,-2.2916,-2.3011,-2.3134,-2.355,-2.3294,-2.3143,-2.3559,-2.3635,-2.3493,-2.3077,-2.3011,-2.3011,-2.3011,-2.2652,-2.2387,-2.2387,-2.2387,-2.2387,-2.2387,-2.2387,-2.2567,-2.2983,-2.3398,-2.3635,-2.3635,-2.3635,-2.3635,-2.3635,-2.3635,-2.3635,-2.3635,-2.3427,-2.3427,-2.3635,-2.3635,-2.3635,-0.517,-0.5044,-0.4894,-0.4875,-0.522,-0.5689,0.0,0.0,0.0,-1.0004,-1.1142,-1.1777,-1.1405,-1.2373,-1.3432,-1.3981,-1.5104,-1.6054,-1.6463,-1.7934,-1.9614,-2.1504,-2.1521,-2.1363,-2.1842,-2.2454,-2.2974,-2.3884,-2.3626,-2.3516,-2.3294,-2.2625,-2.2373,-2.2094,-2.2501,-2.2605,-2.2397,-2.2567,-2.2567,-2.2387,-2.2387,-2.2387,-2.2387,-2.2387,-2.2387,-2.2387,-2.2387,-2.2387,-2.2387,-2.2387,-2.2387,-2.2387,-2.2387,-2.2387,-2.2387,-2.2387,-2.2387,-2.2387,-2.2387,-2.2387,-2.2387,-2.2387,-2.2387,-2.2387,-2.2387,-2.2387,-2.2387,-2.2387,-2.2387,-2.2387,-2.2387,-2.2387,-2.2387,-2.2387,-2.2387,-2.2576,-2.3247,-2.3398,-2.3398,-2.3398,-2.285,-2.2605,-2.3275,-2.3398,-2.3162,-2.2491,-2.2387,-2.2387,-2.2387,-2.2387,-2.2387,-2.2387,-2.2387,-2.2387,-2.2387,-2.2387,-2.2746,-2.3578,-2.3635,-2.3635,-2.3635,-2.3635,-2.3635,-2.3635,-2.3635,-2.3635,-2.3635,-2.3635,-2.3635,-2.3635,-2.3635,-2.3635,-0.5568,-0.5486,-0.5466,-0.5374,-0.5542,-0.5652,-0.5584,0.0,-0.6559,-0.6532,0.0,-0.7267,-0.847,0.0,0.0,-1.2011,-1.3491,-1.4805,-1.5881,-1.6301,-1.6915,-1.8498,-1.9255,-2.0013,-2.0697,-2.2336,-2.321,-2.3456,-2.4371,-2.4325,-2.3334,-2.3296,-2.2865,-2.2104,-2.2501,-2.2605,-2.2397,-2.2416,-2.2416,-2.2387,-2.2387,-2.2387,-2.2387,-2.2387,-2.2387,-2.2387,-2.2387,-2.2387,-2.2387,-2.2387,-2.2387,-2.2387,-2.2387,-2.2387,-2.2387,-2.2387,-2.2387,-2.2387,-2.2387,-2.2387,-2.2387,-2.2387,-2.2387,-2.2387,-2.2387,-2.2387,-2.2387,-2.2387,-2.2387,-2.2387,-2.2387,-2.2387,-2.2387,-2.2387,-2.2387,-2.2416,-2.251,-2.2529,-2.2529,-2.2529,-2.2453,-2.2416,-2.251,-2.2529,-2.2501,-2.2406,-2.2387,-2.2387,-2.2387,-2.2387,-2.2387,-2.2387,-2.2387,-2.2387,-2.2387,-2.2387,-2.2746,-2.3578,-2.3635,-2.3635,-2.3635,-2.3635,-2.3635,-2.3635,-2.3635,-2.3635,-2.3635,-2.3635,-2.3635,-2.3635,-2.3635,-2.3635,-0.6268,-0.6379,-0.637,-0.6016,-0.6204,-0.6405,-0.6101,-0.6074,-0.6159,-0.6034,0.0,0.0,0.0,0.0,0.0,0.0,-1.2501,-1.3954,-1.4449,-1.4632,-1.5655,-1.8186,-1.8605,-1.923,-2.063,-2.1253,-2.1853,-2.2669,-2.3248,-2.3313,-2.3087,-2.3093,-2.2965,-2.2846,-2.2697,-2.2538,-2.2576,-2.2453,-2.2387,-2.2387,-2.2387,-2.2387,-2.2387,-2.2387,-2.2387,-2.2387,-2.2387,-2.2387,-2.2387,-2.2387,-2.2387,-2.2387,-2.2387,-2.2387,-2.2387,-2.2387,-2.2387,-2.2387,-2.2387,-2.2387,-2.2387,-2.2387,-2.2387,-2.2387,-2.2387,-2.2387,-2.2387,-2.2387,-2.2387,-2.2387,-2.2387,-2.2387,-2.2387,-2.2387,-2.2387,-2.2387,-2.2387,-2.2387,-2.2387,-2.2387,-2.2387,-2.2387,-2.2387,-2.2387,-2.2387,-2.2387,-2.2387,-2.2387,-2.2387,-2.2387,-2.2387,-2.2387,-2.2387,-2.2387,-2.2387,-2.2831,-2.3257,-2.3616,-2.3635,-2.3635,-2.3635,-2.3635,-2.3635,-2.3635,-2.3635,-2.3635,-2.3635,-2.3635,-2.3635,-2.3635,-2.3635,-2.3635,-0.6704,-0.6834,-0.6778,-0.6681,-0.6738,-0.6805,-0.6427,-0.6374,-0.6279,-0.6159,-0.6181,0.0,0.0,0.0,-0.9395,-0.9747,0.0,-1.2972,-1.3276,-1.348,-1.4622,-1.7303,-1.7723,-1.8358,-1.9801,-2.0221,-2.078,-2.1685,-2.2394,-2.2684,-2.265,-2.2944,-2.3062,-2.313,-2.2755,-2.2586,-2.2623,-2.2529,-2.2453,-2.2387,-2.2387,-2.2387,-2.2387,-2.2387,-2.2387,-2.2387,-2.2387,-2.2387,-2.2387,-2.2387,-2.2387,-2.2387,-2.2387,-2.2387,-2.2387,-2.2387,-2.2387,-2.2387,-2.2387,-2.2387,-2.2387,-2.2387,-2.2387,-2.2387,-2.2387,-2.2387,-2.2387,-2.2387,-2.2387,-2.2387,-2.2387,-2.2387,-2.2387,-2.2387,-2.2387,-2.2387,-2.2387,-2.2387,-2.2387,-2.2387,-2.2387,-2.2387,-2.2387,-2.2387,-2.2387,-2.2387,-2.2387,-2.2387,-2.2387,-2.2387,-2.2387,-2.2387,-2.2387,-2.2387,-2.2387,-2.3153,-2.3635,-2.3635,-2.3635,-2.3635,-2.3635,-2.3635,-2.3635,-2.3635,-2.3635,-2.3635,-2.3635,-2.3635,-2.3635,-2.3635,-2.3635,-2.3635,-0.6872,-0.6735,-0.6406,-0.6977,-0.6843,-0.6435,-0.6294,-0.6361,-0.6399,-0.6285,-0.617,-0.6089,-0.6089,-0.6926,-0.7894,-0.8979,-1.0455,0.0,0.0,-1.2985,-1.3513,-1.4546,-1.6075,-1.7163,-1.7464,-1.9542,-2.0716,-2.0307,-2.2643,-2.3241,-2.1696,-2.3112,-2.3267,-2.2113,-2.268,-2.2803,-2.2406,-2.2605,-2.2595,-2.2387,-2.2387,-2.2387,-2.2387,-2.2387,-2.2387,-2.2387,-2.2387,-2.2387,-2.2387,-2.2387,-2.2387,-2.2387,-2.2387,-2.2387,-2.2387,-2.2387,-2.2387,-2.2387,-2.2387,-2.2387,-2.2387,-2.2387,-2.2387,-2.2387,-2.2387,-2.2387,-2.2387,-2.2387,-2.2387,-2.2387,-2.2387,-2.2387,-2.2387,-2.2387,-2.2387,-2.2387,-2.2387,-2.2387,-2.2387,-2.2387,-2.2387,-2.2387,-2.2387,-2.2387,-2.2387,-2.2387,-2.2387,-2.2387,-2.2387,-2.2387,-2.2387,-2.2387,-2.2387,-2.2387,-2.2387,-2.3153,-2.3635,-2.3635,-2.3635,-2.3635,-2.3635,-2.3635,-2.3635,-2.3635,-2.3635,-2.3635,-2.3635,-2.3635,-2.3635,-2.3635,-2.3635,-2.3635,-0.6609,-0.6868,-0.7006,-0.7308,-0.7274,-0.7229,-0.7359,-0.6991,-0.6643,-0.6524,-0.6469,-0.6415,-0.6333,-0.7155,-0.7945,-0.8168,-0.9733,-1.0952,0.0,-1.2234,-1.2996,-1.3319,-1.4546,-1.5709,-1.6592,-1.74,-1.8196,-1.8982,-2.0296,-2.0932,-2.0684,-2.2164,-2.2738,-2.2399,-2.2936,-2.3211,-2.2803,-2.2746,-2.268,-2.2605,-2.2463,-2.2387,-2.2387,-2.2387,-2.2387,-2.2387,-2.2387,-2.2387,-2.2387,-2.2387,-2.2387,-2.2387,-2.2387,-2.2387,-2.2387,-2.2387,-2.2387,-2.2387,-2.2387,-2.2387,-2.2387,-2.2387,-2.2387,-2.2387,-2.2387,-2.2387,-2.2387,-2.2387,-2.2387,-2.2387,-2.2387,-2.2387,-2.2387,-2.2387,-2.2387,-2.2387,-2.2387,-2.2387,-2.2387,-2.2387,-2.2387,-2.2387,-2.2387,-2.2387,-2.2387,-2.2387,-2.2387,-2.2387,-2.2387,-2.2387,-2.2387,-2.2387,-2.2387,-2.2614,-2.3162,-2.3474,-2.3635,-2.3635,-2.3635,-2.3635,-2.3635,-2.3635,-2.3635,-2.3635,-2.3635,-2.3635,-2.3635,-2.3635,-2.3635,-2.3635,-2.3635,-2.3635,-0.638,-0.6634,-0.6773,-0.7255,-0.7144,-0.7157,-0.7298,-0.6855,-0.6546,-0.6479,-0.6571,-0.6508,-0.6273,-0.6998,-0.7629,-0.7726,-0.9123,-1.049,0.0,-1.2172,-1.2759,-1.2759,-1.389,0.0,0.0,-1.6021,-1.67,-1.7615,-1.8649,-1.934,-1.9743,-2.16,-2.2378,-2.2019,-2.306,-2.3333,-2.2794,-2.2888,-2.286,-2.2708,-2.2576,-2.2463,-2.2387,-2.2387,-2.2387,-2.2387,-2.2387,-2.2387,-2.2387,-2.2387,-2.2387,-2.2387,-2.2387,-2.2387,-2.2387,-2.2387,-2.2387,-2.2387,-2.2387,-2.2387,-2.2387,-2.2387,-2.2387,-2.2387,-2.2387,-2.2387,-2.2387,-2.2387,-2.2387,-2.2387,-2.2387,-2.2387,-2.2387,-2.2387,-2.2387,-2.2387,-2.2387,-2.2387,-2.2387,-2.2387,-2.2387,-2.2387,-2.2387,-2.2387,-2.2387,-2.2387,-2.2387,-2.2387,-2.2387,-2.2387,-2.2387,-2.2387,-2.2387,-2.2727,-2.3559,-2.3635,-2.3635,-2.3635,-2.3635,-2.3635,-2.3635,-2.3635,-2.3635,-2.3635,-2.3635,-2.3635,-2.3635,-2.3635,-2.3635,-2.3635,-2.3635,-2.3635]}]]